| time (UTC) | temp C | wind direction | speed KPH | gust KPH | rain 1hr cm | rain 24hr cm | rain mn cm | humidity % | barometer mb |
| 20260904212235 | 29 | 254 | 0.0 | 0.0 | 0.00 | 0.00 | 0.05 | 63 | 1008.5 |
| 20260904212135 | 29 | 254 | 0.0 | 0.0 | 0.00 | 0.00 | 0.05 | 62 | 1008.6 |
| 20260904212035 | 29 | 254 | 0.0 | 0.0 | 0.00 | 0.00 | 0.05 | 62 | 1008.6 |
| 20260904212030 | 29 | 254 | 0.0 | 0.0 | 0.00 | 0.05 | 0.05 | 62 | 1008.4 |
| 20260904211935 | 29 | 252 | 0.0 | 0.0 | 0.00 | 0.00 | 0.05 | 63 | 1008.5 |
| 20260904211900 | 29 | 246 | 0.0 | 0.0 | 0.00 | 0.00 | 0.05 | 63 | 1008.5 |
| 20260904211834 | 29 | 246 | 0.0 | 0.0 | 0.00 | 0.00 | 0.05 | 62 | 1008.5 |
| 20260904211734 | 29 | 245 | 0.0 | 0.0 | 0.00 | 0.00 | 0.05 | 62 | 1008.4 |
| 20260904211634 | 29 | 228 | 0.0 | 0.0 | 0.00 | 0.00 | 0.05 | 62 | 1008.4 |
| 20260904211601 | 29 | 228 | 0.0 | 0.0 | 0.00 | 0.00 | 0.05 | 62 | 1008.4 |
| 20260904211530 | 29 | 228 | 0.0 | 0.0 | 0.00 | 0.05 | 0.05 | 61 | 1008.3 |
| 20260904211448 | 29 | 228 | 0.0 | 0.0 | 0.00 | 0.00 | 0.05 | 61 | 1008.4 |
| 20260904211440 | 29 | 220 | 0.0 | 0.0 | 0.00 | 0.00 | 0.05 | 61 | 1008.4 |
| 20260904211233 | 29 | 271 | 0.0 | 0.0 | 0.00 | 0.00 | 0.05 | 61 | 1008.4 |
| 20260904211132 | 29 | 227 | 0.0 | 0.0 | 0.00 | 0.00 | 0.05 | 61 | 1008.4 |
| 20260904211032 | 29 | 355 | 0.0 | 0.0 | 0.00 | 0.00 | 0.05 | 62 | 1008.5 |
| 20260904211030 | 30 | 355 | 0.0 | 0.0 | 0.00 | 0.05 | 0.05 | 62 | 1008.5 |
| 20260904210932 | 29 | 355 | 0.0 | 0.0 | 0.00 | 0.00 | 0.05 | 62 | 1008.5 |
| 20260904210858 | 29 | 355 | 0.0 | 0.0 | 0.00 | 0.00 | 0.05 | 61 | 1008.5 |
| 20260904210831 | 29 | 355 | 0.0 | 0.0 | 0.00 | 0.00 | 0.05 | 61 | 1008.5 |
| 20260904210731 | 30 | 266 | 0.0 | 0.0 | 0.00 | 0.00 | 0.05 | 61 | 1008.4 |
| 20260904210722 | 30 | 248 | 0.0 | 0.0 | 0.00 | 0.00 | 0.05 | 61 | 1008.3 |
| 20260904210631 | 30 | 267 | 0.0 | 0.0 | 0.00 | 0.00 | 0.05 | 61 | 1008.4 |
| 20260904210622 | 30 | 290 | 0.0 | 0.0 | 0.00 | 0.00 | 0.05 | 61 | 1008.3 |
| 20260904210615 | 30 | 267 | 0.0 | 0.0 | 0.00 | 0.00 | 0.05 | 61 | 1008.4 |
| 20260904210606 | 30 | 236 | 0.0 | 0.0 | 0.00 | 0.00 | 0.05 | 61 | 1008.3 |
| 20260904210530 | 30 | 267 | 0.0 | 0.0 | 0.00 | 0.05 | 0.05 | 61 | 1008.3 |
| 20260904210347 | 30 | 257 | 0.0 | 0.0 | 0.00 | 0.00 | 0.05 | 62 | 1008.3 |
| 20260904210030 | 30 | 260 | 0.0 | 0.0 | 0.00 | 0.05 | 0.05 | 61 | 1008.3 |
| 20260904205927 | 30 | 260 | 0.0 | 0.0 | 0.00 | 0.00 | 0.05 | 60 | 1008.3 |
| 20260904205858 | 30 | 260 | 0.0 | 0.0 | 0.00 | 0.00 | 0.05 | 60 | 1008.3 |
| 20260904205826 | 30 | 260 | 0.0 | 0.0 | 0.00 | 0.00 | 0.05 | 60 | 1008.3 |
| 20260904205725 | 30 | 260 | 0.0 | 0.0 | 0.00 | 0.00 | 0.05 | 59 | 1008.3 |
| 20260904205623 | 30 | 294 | 0.0 | 0.0 | 0.00 | 0.00 | 0.05 | 59 | 1008.4 |
| 20260904205538 | 30 | 266 | 0.0 | 0.0 | 0.00 | 0.00 | 0.05 | 59 | 1008.4 |
| 20260904205532 | 30 | 251 | 0.0 | 0.0 | 0.00 | 0.00 | 0.05 | 60 | 1008.3 |
| 20260904205530 | 30 | 252 | 0.0 | 0.0 | 0.00 | 0.05 | 0.05 | 60 | 1008.3 |
| 20260904205358 | 30 | 266 | 0.0 | 0.0 | 0.00 | 0.00 | 0.05 | 59 | 1008.3 |
| 20260904205345 | 30 | 268 | 0.0 | 0.0 | 0.00 | 0.00 | 0.05 | 59 | 1008.3 |
| 20260904205231 | 30 | 251 | 0.0 | 0.0 | 0.00 | 0.00 | 0.05 | 60 | 1008.3 |
| 20260904205036 | 30 | 288 | 0.0 | 0.0 | 0.00 | 0.00 | 0.05 | 59 | 1008.3 |
| 20260904205031 | 30 | 270 | 0.0 | 0.0 | 0.00 | 0.00 | 0.05 | 58 | 1008.3 |
| 20260904204856 | 30 | 268 | 0.0 | 0.0 | 0.00 | 0.00 | 0.05 | 59 | 1008.2 |
| 20260904204821 | 30 | 266 | 0.0 | 0.0 | 0.00 | 0.00 | 0.05 | 59 | 1008.2 |
| 20260904204753 | 30 | 295 | 0.0 | 0.0 | 0.00 | 0.00 | 0.05 | 58 | 1008.2 |
| 20260904204749 | 30 | 266 | 0.0 | 0.0 | 0.00 | 0.00 | 0.05 | 59 | 1008.2 |
| 20260904204745 | 30 | 289 | 0.0 | 0.0 | 0.00 | 0.00 | 0.05 | 60 | 1008.1 |
| 20260904204739 | 30 | 265 | 0.0 | 0.0 | 0.00 | 0.00 | 0.05 | 59 | 1008.3 |
| 20260904204530 | 30 | 265 | 0.0 | 0.0 | 0.00 | 0.05 | 0.05 | 59 | 1008.1 |
| 20260904204503 | 30 | 292 | 0.0 | 0.0 | 0.00 | 0.00 | 0.05 | 60 | 1008.1 |
| 20260904204333 | 30 | 319 | 0.0 | 0.0 | 0.00 | 0.00 | 0.05 | 58 | 1008.1 |
| 20260904204328 | 30 | 317 | 0.0 | 0.0 | 0.00 | 0.00 | 0.05 | 61 | 1008.1 |
| 20260904204119 | 30 | 320 | 0.0 | 0.0 | 0.00 | 0.00 | 0.05 | 59 | 1008.1 |
| 20260904204045 | 30 | 320 | 0.0 | 0.0 | 0.00 | 0.05 | 0.05 | 59 | 1008.2 |
| 20260904204018 | 30 | 320 | 0.0 | 0.0 | 0.00 | 0.00 | 0.05 | 59 | 1008.2 |
| 20260904203917 | 30 | 320 | 0.0 | 0.0 | 0.00 | 0.00 | 0.05 | 58 | 1008.2 |
| 20260904203856 | 30 | 320 | 0.0 | 0.0 | 0.00 | 0.00 | 0.05 | 58 | 1008.2 |
| 20260904203817 | 30 | 320 | 0.0 | 0.0 | 0.00 | 0.00 | 0.05 | 57 | 1008.2 |
| 20260904203716 | 30 | 320 | 0.0 | 0.0 | 0.00 | 0.00 | 0.05 | 57 | 1008.2 |
| 20260904203616 | 30 | 311 | 0.0 | 0.0 | 0.00 | 0.00 | 0.05 | 57 | 1008.1 |
| 20260904203545 | 30 | 311 | 0.0 | 0.0 | 0.00 | 0.05 | 0.05 | 58 | 1008.1 |
| 20260904203516 | 30 | 311 | 0.0 | 0.0 | 0.00 | 0.00 | 0.05 | 58 | 1008.1 |
| 20260904203443 | 30 | 329 | 0.0 | 0.0 | 0.00 | 0.00 | 0.05 | 59 | 1008.1 |
| 20260904203436 | 30 | 233 | 0.0 | 0.0 | 0.00 | 0.00 | 0.05 | 59 | 1008.0 |
| 20260904203324 | 30 | 295 | 0.0 | 0.0 | 0.00 | 0.00 | 0.05 | 59 | 1008.0 |
| 20260904203115 | 30 | 270 | 0.0 | 0.0 | 0.00 | 0.00 | 0.05 | 58 | 1008.0 |
| 20260904203030 | 30 | 270 | 0.0 | 0.0 | 0.00 | 0.05 | 0.05 | 59 | 1008.0 |
| 20260904203014 | 30 | 270 | 0.0 | 0.0 | 0.00 | 0.00 | 0.05 | 58 | 1008.0 |
| 20260904202914 | 30 | 269 | 0.0 | 0.0 | 0.00 | 0.00 | 0.05 | 59 | 1008.0 |
| 20260904202828 | 30 | 269 | 0.0 | 0.0 | 0.00 | 0.00 | 0.05 | 58 | 1008.2 |
| 20260904202822 | 30 | 269 | 0.0 | 0.0 | 0.00 | 0.00 | 0.05 | 59 | 1008.1 |
| 20260904202613 | 30 | 269 | 0.0 | 0.0 | 0.00 | 0.00 | 0.05 | 58 | 1008.2 |
| 20260904202530 | 30 | 269 | 0.0 | 0.0 | 0.00 | 0.05 | 0.05 | 57 | 1008.2 |
| 20260904202512 | 30 | 268 | 0.0 | 0.0 | 0.00 | 0.00 | 0.05 | 57 | 1008.3 |
| 20260904202412 | 30 | 278 | 0.0 | 0.0 | 0.00 | 0.00 | 0.05 | 58 | 1008.2 |
| 20260904202351 | 30 | 278 | 0.0 | 0.0 | 0.00 | 0.00 | 0.05 | 58 | 1008.2 |
| 20260904202313 | 30 | 277 | 0.0 | 0.0 | 0.00 | 0.00 | 0.05 | 57 | 1008.2 |
| 20260904202225 | 30 | 296 | 0.0 | 0.0 | 0.00 | 0.00 | 0.05 | 58 | 1008.3 |
| 20260904202220 | 30 | 279 | 0.0 | 0.0 | 0.00 | 0.00 | 0.05 | 58 | 1008.2 |
| 20260904202030 | 30 | 284 | 0.0 | 0.0 | 0.00 | 0.05 | 0.05 | 59 | 1008.3 |
| 20260904202010 | 30 | 284 | 0.0 | 0.0 | 0.00 | 0.00 | 0.05 | 59 | 1008.3 |
| 20260904201910 | 30 | 285 | 0.0 | 0.0 | 0.00 | 0.00 | 0.05 | 57 | 1008.3 |
| 20260904201850 | 30 | 285 | 0.0 | 0.0 | 0.00 | 0.00 | 0.05 | 58 | 1008.3 |
| 20260904201810 | 30 | 321 | 0.0 | 0.0 | 0.00 | 0.00 | 0.05 | 59 | 1008.3 |
| 20260904201709 | 30 | 267 | 0.0 | 0.0 | 0.00 | 0.00 | 0.05 | 59 | 1008.3 |
| 20260904201610 | 30 | 263 | 0.0 | 0.0 | 0.00 | 0.00 | 0.05 | 60 | 1008.3 |
| 20260904201545 | 30 | 292 | 0.0 | 0.0 | 0.00 | 0.05 | 0.05 | 61 | 1008.3 |
| 20260904201508 | 30 | 292 | 0.0 | 0.0 | 0.00 | 0.00 | 0.05 | 61 | 1008.3 |
| 20260904201408 | 30 | 292 | 0.0 | 0.0 | 0.00 | 0.00 | 0.05 | 61 | 1008.3 |
| 20260904201348 | 30 | 292 | 0.0 | 0.0 | 0.00 | 0.00 | 0.05 | 61 | 1008.3 |
| 20260904201308 | 30 | 292 | 0.0 | 0.0 | 0.00 | 0.00 | 0.05 | 62 | 1008.3 |
| 20260904201207 | 30 | 292 | 0.0 | 0.0 | 0.00 | 0.00 | 0.05 | 62 | 1008.3 |
| 20260904201106 | 30 | 292 | 0.0 | 0.0 | 0.00 | 0.00 | 0.05 | 60 | 1008.4 |
| 20260904201045 | 30 | 292 | 0.0 | 0.0 | 0.00 | 0.05 | 0.05 | 61 | 1008.4 |
| 20260904201005 | 30 | 292 | 0.0 | 0.0 | 0.00 | 0.00 | 0.05 | 61 | 1008.4 |
| 20260904200905 | 30 | 292 | 0.0 | 0.0 | 0.00 | 0.00 | 0.05 | 60 | 1008.5 |
| 20260904200849 | 30 | 292 | 0.0 | 0.0 | 0.00 | 0.00 | 0.05 | 61 | 1008.5 |
| 20260904200804 | 30 | 292 | 0.0 | 0.0 | 0.00 | 0.00 | 0.05 | 61 | 1008.5 |
| 20260904200706 | 30 | 292 | 0.0 | 0.0 | 0.00 | 0.00 | 0.05 | 60 | 1008.5 |
| 20260904200659 | 30 | 309 | 0.0 | 0.0 | 0.00 | 0.00 | 0.05 | 59 | 1008.5 |
| 20260904200655 | 30 | 271 | 0.0 | 0.0 | 0.00 | 0.00 | 0.05 | 60 | 1008.6 |
| 20260904200651 | 30 | 240 | 0.0 | 0.0 | 0.00 | 0.00 | 0.05 | 60 | 1008.6 |
| 20260904200644 | 30 | 295 | 0.0 | 0.0 | 0.00 | 0.00 | 0.05 | 59 | 1008.5 |
| 20260904200635 | 30 | 296 | 0.0 | 0.0 | 0.00 | 0.00 | 0.05 | 59 | 1008.6 |
| 20260904200530 | 30 | 296 | 0.0 | 0.0 | 0.00 | 0.05 | 0.05 | 59 | 1008.6 |
| 20260904200118 | 30 | 291 | 0.0 | 0.0 | 0.00 | 0.00 | 0.05 | 59 | 1008.6 |
| 20260904200113 | 30 | 246 | 0.0 | 0.0 | 0.00 | 0.00 | 0.05 | 58 | 1008.7 |
| 20260904200032 | 30 | 278 | 0.0 | 0.0 | 0.00 | 0.05 | 0.05 | 59 | 1008.6 |
| 20260904195844 | 30 | 261 | 0.0 | 0.0 | 0.00 | 0.00 | 0.05 | 60 | 1008.6 |
| 20260904195759 | 30 | 264 | 0.0 | 0.0 | 0.00 | 0.00 | 0.05 | 60 | 1008.6 |
| 20260904195659 | 30 | 305 | 0.0 | 0.0 | 0.00 | 0.00 | 0.05 | 60 | 1008.5 |
| 20260904195652 | 30 | 266 | 0.0 | 0.0 | 0.00 | 0.00 | 0.05 | 60 | 1008.5 |
| 20260904195645 | 30 | 265 | 0.0 | 0.0 | 0.00 | 0.00 | 0.05 | 61 | 1008.6 |
| 20260904195530 | 30 | 265 | 0.0 | 0.0 | 0.00 | 0.05 | 0.05 | 60 | 1008.5 |
| 20260904195424 | 30 | 261 | 0.0 | 0.0 | 0.00 | 0.00 | 0.05 | 60 | 1008.6 |
| 20260904195419 | 30 | 266 | 0.0 | 0.0 | 0.00 | 0.00 | 0.05 | 59 | 1008.6 |
| 20260904195412 | 30 | 266 | 0.0 | 0.0 | 0.00 | 0.00 | 0.05 | 59 | 1008.6 |
| 20260904195054 | 30 | 261 | 0.0 | 0.0 | 0.00 | 0.00 | 0.05 | 61 | 1008.6 |
| 20260904195030 | 30 | 261 | 0.0 | 0.0 | 0.00 | 0.05 | 0.05 | 61 | 1008.6 |
| 20260904194953 | 30 | 261 | 0.0 | 0.0 | 0.00 | 0.00 | 0.05 | 60 | 1008.6 |
| 20260904194853 | 30 | 261 | 0.0 | 0.0 | 0.00 | 0.00 | 0.05 | 60 | 1008.6 |
| 20260904194840 | 30 | 261 | 0.0 | 0.0 | 0.00 | 0.00 | 0.05 | 60 | 1008.6 |
| 20260904194752 | 30 | 261 | 0.0 | 0.0 | 0.00 | 0.00 | 0.05 | 59 | 1008.7 |
| 20260904194652 | 30 | 264 | 0.0 | 0.0 | 0.00 | 0.00 | 0.05 | 60 | 1008.7 |
| 20260904194605 | 30 | 282 | 0.0 | 0.0 | 0.00 | 0.00 | 0.05 | 61 | 1008.7 |
| 20260904194600 | 30 | 273 | 0.0 | 0.0 | 0.00 | 0.00 | 0.05 | 60 | 1008.8 |
| 20260904194530 | 30 | 282 | 0.0 | 0.0 | 0.00 | 0.05 | 0.05 | 60 | 1008.7 |
| 20260904194418 | 30 | 282 | 0.0 | 0.0 | 0.00 | 0.00 | 0.05 | 61 | 1008.7 |
| 20260904194412 | 30 | 283 | 0.0 | 0.0 | 0.00 | 0.00 | 0.05 | 61 | 1008.7 |
| 20260904194256 | 30 | 283 | 0.0 | 0.0 | 0.00 | 0.00 | 0.05 | 58 | 1008.8 |
| 20260904194251 | 30 | 283 | 0.0 | 0.0 | 0.00 | 0.00 | 0.05 | 60 | 1008.8 |
| 20260904194242 | 30 | 283 | 0.0 | 0.0 | 0.00 | 0.00 | 0.05 | 59 | 1008.8 |
| 20260904194124 | 30 | 285 | 0.0 | 0.0 | 0.00 | 0.00 | 0.05 | 58 | 1008.8 |
| 20260904194030 | 30 | 285 | 0.0 | 0.0 | 0.00 | 0.05 | 0.05 | 59 | 1008.8 |
| 20260904193756 | 30 | 298 | 0.0 | 0.0 | 0.00 | 0.00 | 0.05 | 57 | 1008.8 |
| 20260904193559 | 30 | 306 | 0.0 | 0.0 | 0.00 | 0.00 | 0.05 | 59 | 1008.9 |
| 20260904193546 | 30 | 323 | 0.0 | 0.0 | 0.00 | 0.00 | 0.05 | 59 | 1008.9 |
| 20260904193530 | 31 | 325 | 0.0 | 0.0 | 0.00 | 0.05 | 0.05 | 59 | 1008.9 |
| 20260904193456 | 30 | 325 | 0.0 | 0.0 | 0.00 | 0.00 | 0.05 | 59 | 1008.9 |
| 20260904193446 | 30 | 306 | 0.0 | 0.0 | 0.00 | 0.00 | 0.05 | 59 | 1008.9 |
| 20260904193301 | 30 | 307 | 0.0 | 0.0 | 0.00 | 0.00 | 0.05 | 58 | 1009.0 |
| 20260904193256 | 30 | 306 | 0.0 | 0.0 | 0.00 | 0.00 | 0.05 | 59 | 1009.0 |
| 20260904193132 | 31 | 314 | 0.0 | 0.0 | 0.00 | 0.00 | 0.05 | 59 | 1009.1 |
| 20260904193128 | 31 | 315 | 0.0 | 0.0 | 0.00 | 0.00 | 0.05 | 58 | 1009.1 |
| 20260904193124 | 31 | 294 | 0.0 | 0.0 | 0.00 | 0.00 | 0.05 | 60 | 1009.1 |
| 20260904193117 | 30 | 309 | 0.0 | 0.0 | 0.00 | 0.00 | 0.05 | 58 | 1009.1 |
| 20260904193108 | 31 | 283 | 0.0 | 0.0 | 0.00 | 0.00 | 0.05 | 58 | 1009.1 |
| 20260904193031 | 31 | 288 | 0.0 | 0.0 | 0.00 | 0.05 | 0.05 | 58 | 1009.1 |
| 20260904192644 | 30 | 262 | 0.0 | 0.0 | 0.00 | 0.00 | 0.05 | 59 | 1009.1 |
| 20260904192544 | 30 | 261 | 0.0 | 0.0 | 0.00 | 0.00 | 0.05 | 59 | 1009.0 |
| 20260904192530 | 31 | 302 | 0.0 | 0.0 | 0.00 | 0.05 | 0.05 | 57 | 1009.0 |
| 20260904192517 | 30 | 316 | 0.0 | 0.0 | 0.00 | 0.00 | 0.05 | 58 | 1009.0 |
| 20260904192511 | 30 | 321 | 0.0 | 0.0 | 0.00 | 0.00 | 0.05 | 59 | 1009.0 |
| 20260904192506 | 30 | 302 | 0.0 | 0.0 | 0.00 | 0.00 | 0.05 | 57 | 1009.0 |
| 20260904192350 | 30 | 316 | 0.0 | 0.0 | 0.00 | 0.00 | 0.05 | 58 | 1009.0 |
| 20260904192156 | 30 | 316 | 0.0 | 0.0 | 0.00 | 0.00 | 0.05 | 59 | 1009.0 |
| 20260904192150 | 30 | 253 | 0.0 | 0.0 | 0.00 | 0.00 | 0.05 | 59 | 1009.0 |
| 20260904192030 | 31 | 300 | 0.0 | 0.0 | 0.00 | 0.05 | 0.05 | 59 | 1009.1 |
| 20260904191959 | 30 | 303 | 0.0 | 0.0 | 0.00 | 0.00 | 0.05 | 58 | 1009.1 |
| 20260904191954 | 30 | 301 | 0.0 | 0.0 | 0.00 | 0.00 | 0.05 | 59 | 1009.1 |
| 20260904191838 | 30 | 303 | 0.0 | 0.0 | 0.00 | 0.00 | 0.05 | 58 | 1009.1 |
| 20260904191740 | 30 | 303 | 0.0 | 0.0 | 0.00 | 0.00 | 0.05 | 58 | 1009.1 |
| 20260904191640 | 30 | 321 | 0.0 | 0.0 | 0.00 | 0.00 | 0.05 | 57 | 1009.0 |
| 20260904191607 | 31 | 267 | 0.0 | 0.0 | 0.00 | 0.00 | 0.05 | 57 | 1009.0 |
| 20260904191530 | 31 | 267 | 0.0 | 0.0 | 0.00 | 0.05 | 0.05 | 57 | 1009.0 |
| 20260904191454 | 31 | 326 | 0.0 | 0.0 | 0.00 | 0.00 | 0.05 | 57 | 1009.0 |
| 20260904191400 | 31 | 0 | 0.0 | 0.0 | 0.00 | 0.05 | 0.05 | 59 | 1009.1 |
| 20260904191342 | 31 | 260 | 0.0 | 0.0 | 0.00 | 0.00 | 0.05 | 59 | 1008.3 |
| 20260904191332 | 31 | 0 | 0.0 | 0.0 | 0.00 | 0.05 | 0.05 | 60 | 1009.3 |
| 20260904191301 | 30 | 0 | 0.0 | 0.0 | 0.00 | 0.05 | 0.05 | 62 | 1005.0 |
| 20260904191157 | 31 | 260 | 0.0 | 0.0 | 0.00 | 0.00 | 0.05 | 58 | 1008.3 |
| 20260904191056 | 30 | 271 | 0.0 | 0.0 | 0.00 | 0.00 | 0.05 | 58 | 1008.3 |
| 20260904190953 | 30 | 284 | 0.0 | 0.0 | 0.00 | 0.00 | 0.05 | 58 | 1008.3 |
| 20260904190853 | 30 | 271 | 0.0 | 0.0 | 0.00 | 0.00 | 0.05 | 57 | 1008.3 |
| 20260904190817 | 30 | 271 | 0.0 | 0.0 | 0.00 | 0.00 | 0.05 | 57 | 1008.3 |
| 20260904190754 | 30 | 271 | 0.0 | 0.0 | 0.00 | 0.00 | 0.05 | 58 | 1008.3 |
| 20260904190653 | 30 | 254 | 0.0 | 0.0 | 0.00 | 0.00 | 0.05 | 57 | 1008.4 |
| 20260904190551 | 30 | 320 | 0.0 | 0.0 | 0.00 | 0.00 | 0.05 | 59 | 1008.4 |
| 20260904190452 | 30 | 259 | 0.0 | 0.0 | 0.00 | 0.00 | 0.05 | 59 | 1008.4 |
| 20260904190347 | 31 | 323 | 0.0 | 0.0 | 0.00 | 0.00 | 0.05 | 61 | 1008.4 |
| 20260904190312 | 31 | 321 | 0.0 | 0.0 | 0.00 | 0.00 | 0.05 | 61 | 1008.4 |
| 20260904190247 | 31 | 323 | 0.0 | 0.0 | 0.00 | 0.00 | 0.05 | 62 | 1008.4 |
| 20260904190158 | 31 | 323 | 0.0 | 0.0 | 0.00 | 0.00 | 0.05 | 59 | 1008.5 |
| 20260904190154 | 31 | 323 | 0.0 | 0.0 | 0.00 | 0.00 | 0.05 | 59 | 1008.4 |
| 20260904185945 | 31 | 257 | 0.0 | 0.0 | 0.00 | 0.00 | 0.05 | 59 | 1008.5 |
| 20260904185845 | 31 | 220 | 0.0 | 0.0 | 0.00 | 0.00 | 0.05 | 59 | 1008.5 |
| 20260904185812 | 31 | 252 | 0.0 | 0.0 | 0.00 | 0.00 | 0.05 | 59 | 1008.5 |
| 20260904185745 | 31 | 289 | 0.0 | 0.0 | 0.00 | 0.00 | 0.05 | 58 | 1008.6 |
| 20260904185645 | 31 | 0 | 0.0 | 0.0 | 0.00 | 0.00 | 0.05 | 60 | 1008.6 |
| 20260904185629 | 31 | 288 | 0.0 | 0.0 | 0.00 | 0.00 | 0.05 | 58 | 1008.6 |
| 20260904185622 | 31 | 292 | 0.0 | 0.0 | 0.00 | 0.00 | 0.05 | 59 | 1008.6 |
| 20260904185509 | 31 | 9 | 0.0 | 0.0 | 0.00 | 0.00 | 0.05 | 60 | 1008.6 |
| 20260904185500 | 31 | 246 | 0.0 | 0.0 | 0.00 | 0.00 | 0.05 | 58 | 1008.6 |
| 20260904185141 | 30 | 327 | 0.0 | 0.0 | 0.00 | 0.00 | 0.05 | 60 | 1008.7 |
| 20260904185041 | 30 | 235 | 0.0 | 0.0 | 0.00 | 0.00 | 0.05 | 60 | 1008.7 |
| 20260904184941 | 30 | 271 | 0.0 | 0.0 | 0.00 | 0.00 | 0.05 | 61 | 1008.7 |
| 20260904184842 | 30 | 264 | 0.0 | 0.0 | 0.00 | 0.00 | 0.05 | 61 | 1008.7 |
| 20260904184812 | 30 | 264 | 0.0 | 0.0 | 0.00 | 0.00 | 0.05 | 62 | 1008.7 |
| 20260904184748 | 30 | 249 | 0.0 | 0.0 | 0.00 | 0.00 | 0.05 | 64 | 1008.7 |
| 20260904184744 | 30 | 250 | 0.0 | 0.0 | 0.00 | 0.00 | 0.05 | 62 | 1008.7 |
| 20260904184534 | 30 | 292 | 0.0 | 0.0 | 0.00 | 0.00 | 0.05 | 64 | 1008.7 |
| 20260904184434 | 30 | 292 | 0.0 | 0.0 | 0.00 | 0.00 | 0.05 | 64 | 1008.7 |
| 20260904184352 | 30 | 305 | 0.0 | 0.0 | 0.00 | 0.00 | 0.05 | 63 | 1008.7 |
| 20260904184348 | 30 | 304 | 0.0 | 0.0 | 0.00 | 0.00 | 0.05 | 64 | 1008.7 |
| 20260904184340 | 30 | 304 | 0.0 | 0.0 | 0.00 | 0.00 | 0.05 | 65 | 1008.7 |
| 20260904184133 | 30 | 305 | 0.0 | 0.0 | 0.00 | 0.00 | 0.05 | 64 | 1008.7 |
| 20260904184033 | 30 | 305 | 0.0 | 0.0 | 0.00 | 0.00 | 0.05 | 63 | 1008.7 |
| 20260904183929 | 30 | 306 | 0.0 | 0.0 | 0.00 | 0.00 | 0.05 | 63 | 1008.7 |
| 20260904183812 | 30 | 303 | 0.0 | 0.0 | 0.00 | 0.00 | 0.05 | 62 | 1008.7 |
| 20260904183729 | 30 | 304 | 0.0 | 0.0 | 0.00 | 0.00 | 0.05 | 62 | 1008.7 |
| 20260904183629 | 30 | 303 | 0.0 | 0.0 | 0.00 | 0.00 | 0.05 | 63 | 1008.7 |
| 20260904183544 | 30 | 304 | 0.0 | 0.0 | 0.00 | 0.00 | 0.05 | 63 | 1008.7 |
| 20260904183538 | 30 | 304 | 0.0 | 0.0 | 0.00 | 0.00 | 0.05 | 62 | 1008.7 |
| 20260904183329 | 30 | 313 | 0.0 | 0.0 | 0.00 | 0.00 | 0.05 | 62 | 1008.7 |
| 20260904183312 | 30 | 305 | 0.0 | 0.0 | 0.00 | 0.00 | 0.05 | 62 | 1008.7 |
| 20260904183230 | 30 | 306 | 0.0 | 0.0 | 0.00 | 0.00 | 0.05 | 63 | 1008.7 |
| 20260904183131 | 30 | 308 | 0.0 | 0.0 | 0.00 | 0.00 | 0.05 | 63 | 1008.8 |
| 20260904183042 | 30 | 262 | 0.0 | 0.0 | 0.00 | 0.00 | 0.05 | 63 | 1008.7 |
| 20260904183038 | 30 | 309 | 0.0 | 0.0 | 0.00 | 0.00 | 0.05 | 62 | 1008.7 |
| 20260904182812 | 30 | 261 | 0.0 | 0.0 | 0.00 | 0.00 | 0.05 | 62 | 1008.7 |
| 20260904182730 | 30 | 261 | 0.0 | 0.0 | 0.00 | 0.00 | 0.05 | 62 | 1008.7 |
| 20260904182629 | 30 | 261 | 0.0 | 0.0 | 0.00 | 0.00 | 0.05 | 63 | 1008.8 |
| 20260904182529 | 30 | 260 | 0.0 | 0.0 | 0.00 | 0.00 | 0.05 | 63 | 1008.8 |
| 20260904182429 | 30 | 261 | 0.0 | 0.0 | 0.00 | 0.00 | 0.05 | 63 | 1008.8 |
| 20260904182329 | 30 | 264 | 0.0 | 0.0 | 0.00 | 0.00 | 0.05 | 61 | 1008.8 |
| 20260904182229 | 30 | 269 | 0.0 | 0.0 | 0.00 | 0.00 | 0.05 | 61 | 1008.9 |
| 20260904182129 | 30 | 302 | 0.0 | 0.0 | 0.00 | 0.00 | 0.05 | 60 | 1008.9 |
| 20260904182039 | 30 | 263 | 0.0 | 0.0 | 0.00 | 0.00 | 0.05 | 59 | 1008.8 |
| 20260904182034 | 30 | 265 | 0.0 | 0.0 | 0.00 | 0.00 | 0.05 | 61 | 1008.8 |
| 20260904181825 | 30 | 263 | 0.0 | 0.0 | 0.00 | 0.00 | 0.05 | 60 | 1008.9 |
| 20260904181811 | 30 | 262 | 0.0 | 0.0 | 0.00 | 0.00 | 0.05 | 60 | 1008.9 |
| 20260904181739 | 30 | 261 | 0.0 | 0.0 | 0.00 | 0.00 | 0.05 | 60 | 1008.9 |
| 20260904181734 | 30 | 262 | 0.0 | 0.0 | 0.00 | 0.00 | 0.05 | 60 | 1008.8 |
| 20260904181525 | 30 | 263 | 0.0 | 0.0 | 0.00 | 0.00 | 0.05 | 60 | 1008.8 |
| 20260904181425 | 30 | 261 | 0.0 | 0.0 | 0.00 | 0.00 | 0.05 | 60 | 1008.8 |
| 20260904181312 | 30 | 269 | 0.0 | 0.0 | 0.00 | 0.00 | 0.05 | 59 | 1008.8 |
| 20260904181225 | 30 | 269 | 0.0 | 0.0 | 0.00 | 0.00 | 0.05 | 60 | 1008.8 |
| 20260904181126 | 30 | 269 | 0.0 | 0.0 | 0.00 | 0.00 | 0.05 | 61 | 1008.7 |
| 20260904181025 | 30 | 240 | 0.0 | 0.0 | 0.00 | 0.00 | 0.05 | 60 | 1008.8 |
| 20260904180925 | 30 | 175 | 0.0 | 0.0 | 0.00 | 0.00 | 0.05 | 61 | 1008.8 |
| 20260904180845 | 30 | 257 | 0.0 | 0.0 | 0.00 | 0.00 | 0.05 | 60 | 1008.7 |
| 20260904180840 | 30 | 259 | 0.0 | 0.0 | 0.00 | 0.00 | 0.05 | 60 | 1008.7 |
| 20260904180832 | 30 | 257 | 0.0 | 0.0 | 0.00 | 0.00 | 0.05 | 60 | 1008.7 |
| 20260904180625 | 30 | 258 | 0.0 | 0.0 | 0.00 | 0.00 | 0.05 | 61 | 1008.7 |
| 20260904180525 | 30 | 250 | 0.0 | 0.0 | 0.00 | 0.00 | 0.05 | 59 | 1008.8 |
| 20260904180439 | 30 | 225 | 0.0 | 0.0 | 0.00 | 0.00 | 0.05 | 63 | 1008.8 |
| 20260904180434 | 30 | 273 | 0.0 | 0.0 | 0.00 | 0.00 | 0.05 | 61 | 1008.8 |
| 20260904180312 | 30 | 225 | 0.0 | 0.0 | 0.00 | 0.00 | 0.05 | 62 | 1008.8 |
| 20260904180226 | 30 | 225 | 0.0 | 0.0 | 0.00 | 0.00 | 0.05 | 62 | 1008.9 |
| 20260904180121 | 30 | 225 | 0.0 | 0.0 | 0.00 | 0.00 | 0.05 | 64 | 1008.9 |
| 20260904180021 | 30 | 277 | 0.0 | 0.0 | 0.00 | 0.00 | 0.05 | 62 | 1008.9 |
| 20260904175921 | 30 | 278 | 0.0 | 0.0 | 0.00 | 0.00 | 0.05 | 61 | 1008.8 |
| 20260904175811 | 30 | 289 | 0.0 | 0.0 | 0.00 | 0.00 | 0.05 | 60 | 1008.8 |
| 20260904175721 | 30 | 268 | 0.0 | 0.0 | 0.00 | 0.00 | 0.05 | 61 | 1008.9 |
| 20260904175621 | 30 | 268 | 0.0 | 0.0 | 0.00 | 0.00 | 0.05 | 61 | 1008.9 |
| 20260904175521 | 30 | 299 | 0.0 | 0.0 | 0.00 | 0.00 | 0.05 | 62 | 1009.0 |
| 20260904175421 | 30 | 287 | 0.0 | 0.0 | 0.00 | 0.00 | 0.05 | 60 | 1008.9 |
| 20260904175312 | 30 | 287 | 0.0 | 0.0 | 0.00 | 0.00 | 0.05 | 59 | 1008.9 |
| 20260904175223 | 30 | 280 | 0.0 | 0.0 | 0.00 | 0.00 | 0.05 | 59 | 1008.8 |
| 20260904175122 | 30 | 240 | 0.0 | 0.0 | 0.00 | 0.00 | 0.05 | 59 | 1008.8 |
| 20260904175022 | 30 | 290 | 0.0 | 0.0 | 0.00 | 0.00 | 0.05 | 60 | 1008.8 |
| 20260904175004 | 30 | 286 | 0.0 | 0.0 | 0.00 | 0.00 | 0.05 | 61 | 1008.8 |
| 20260904174958 | 30 | 287 | 0.0 | 0.0 | 0.00 | 0.00 | 0.05 | 60 | 1008.7 |
| 20260904174841 | 30 | 287 | 0.0 | 0.0 | 0.00 | 0.00 | 0.05 | 61 | 1008.8 |
| 20260904174730 | 30 | 252 | 0.0 | 0.0 | 0.00 | 0.00 | 0.05 | 60 | 1008.7 |
| 20260904174521 | 30 | 279 | 0.0 | 0.0 | 0.00 | 0.00 | 0.05 | 60 | 1008.7 |
| 20260904174421 | 30 | 279 | 0.0 | 0.0 | 0.00 | 0.00 | 0.05 | 60 | 1008.7 |
| 20260904174311 | 30 | 279 | 0.0 | 0.0 | 0.00 | 0.00 | 0.05 | 61 | 1008.7 |
| 20260904174217 | 30 | 268 | 0.0 | 0.0 | 0.00 | 0.00 | 0.05 | 61 | 1008.8 |
| 20260904174117 | 30 | 273 | 0.0 | 0.0 | 0.00 | 0.00 | 0.05 | 60 | 1008.7 |
| 20260904174015 | 30 | 270 | 0.0 | 0.0 | 0.00 | 0.00 | 0.05 | 61 | 1008.8 |
| 20260904173915 | 30 | 298 | 0.0 | 0.0 | 0.00 | 0.00 | 0.05 | 60 | 1008.8 |
| 20260904173814 | 30 | 298 | 0.0 | 0.0 | 0.00 | 0.00 | 0.05 | 60 | 1008.8 |
| 20260904173708 | 30 | 299 | 0.0 | 0.0 | 0.00 | 0.00 | 0.05 | 61 | 1008.7 |
| 20260904173608 | 30 | 300 | 0.0 | 0.0 | 0.00 | 0.00 | 0.05 | 61 | 1008.7 |
| 20260904173507 | 30 | 302 | 0.0 | 0.0 | 0.00 | 0.00 | 0.05 | 62 | 1008.8 |
| 20260904173407 | 30 | 302 | 0.0 | 0.0 | 0.00 | 0.00 | 0.05 | 61 | 1008.8 |
| 20260904173307 | 30 | 310 | 0.0 | 0.0 | 0.00 | 0.00 | 0.05 | 61 | 1008.7 |
| 20260904173228 | 30 | 303 | 0.0 | 0.0 | 0.00 | 0.00 | 0.05 | 62 | 1008.7 |
| 20260904173115 | 30 | 246 | 0.0 | 0.0 | 0.00 | 0.00 | 0.05 | 61 | 1008.7 |
| 20260904172903 | 30 | 259 | 0.0 | 0.0 | 0.00 | 0.00 | 0.05 | 59 | 1008.8 |
| 20260904172801 | 30 | 235 | 0.0 | 0.0 | 0.00 | 0.00 | 0.05 | 59 | 1008.7 |
| 20260904172657 | 30 | 215 | 0.0 | 0.0 | 0.00 | 0.00 | 0.05 | 60 | 1008.8 |
| 20260904172610 | 30 | 236 | 0.0 | 0.0 | 0.00 | 0.00 | 0.05 | 60 | 1008.8 |
| 20260904172605 | 30 | 240 | 0.0 | 0.0 | 0.00 | 0.00 | 0.05 | 61 | 1008.8 |
| 20260904172355 | 30 | 214 | 0.0 | 0.0 | 0.00 | 0.00 | 0.05 | 62 | 1008.7 |
| 20260904172255 | 30 | 266 | 0.0 | 0.0 | 0.00 | 0.00 | 0.05 | 61 | 1008.6 |
| 20260904172149 | 30 | 274 | 0.0 | 0.0 | 0.00 | 0.00 | 0.05 | 61 | 1008.7 |
| 20260904172049 | 30 | 198 | 0.0 | 0.0 | 0.00 | 0.00 | 0.05 | 61 | 1008.8 |
| 20260904171948 | 30 | 317 | 0.0 | 0.0 | 0.00 | 0.00 | 0.05 | 60 | 1008.8 |
| 20260904171849 | 30 | 264 | 0.0 | 0.0 | 0.00 | 0.00 | 0.05 | 60 | 1008.9 |
| 20260904171749 | 30 | 240 | 0.0 | 0.0 | 0.00 | 0.00 | 0.05 | 60 | 1008.9 |
| 20260904171702 | 30 | 259 | 0.0 | 0.0 | 0.00 | 0.00 | 0.05 | 62 | 1009.0 |
| 20260904171656 | 30 | 247 | 0.0 | 0.0 | 0.00 | 0.00 | 0.05 | 61 | 1008.9 |
| 20260904171517 | 30 | 251 | 0.0 | 0.0 | 0.00 | 0.00 | 0.05 | 64 | 1009.0 |
| 20260904171512 | 30 | 237 | 0.0 | 0.0 | 0.00 | 0.00 | 0.05 | 62 | 1009.0 |
| 20260904171507 | 30 | 242 | 0.0 | 0.0 | 0.00 | 0.00 | 0.05 | 62 | 1009.0 |
| 20260904171245 | 30 | 237 | 0.0 | 0.0 | 0.00 | 0.00 | 0.05 | 62 | 1009.0 |
| 20260904171138 | 30 | 281 | 0.0 | 0.0 | 0.00 | 0.00 | 0.05 | 62 | 1008.9 |
| 20260904171038 | 30 | 246 | 0.0 | 0.0 | 0.00 | 0.00 | 0.05 | 63 | 1008.9 |
| 20260904170938 | 30 | 266 | 0.0 | 0.0 | 0.00 | 0.00 | 0.05 | 62 | 1008.8 |
| 20260904170838 | 30 | 281 | 0.0 | 0.0 | 0.00 | 0.00 | 0.05 | 62 | 1008.8 |
| 20260904170755 | 30 | 271 | 0.0 | 0.0 | 0.00 | 0.00 | 0.05 | 63 | 1008.8 |
| 20260904170641 | 30 | 271 | 0.0 | 0.0 | 0.00 | 0.00 | 0.05 | 64 | 1008.8 |
| 20260904170504 | 30 | 279 | 0.0 | 0.0 | 0.00 | 0.00 | 0.05 | 64 | 1009.0 |
| 20260904170500 | 30 | 279 | 0.0 | 0.0 | 0.00 | 0.00 | 0.05 | 64 | 1009.0 |
| 20260904170455 | 30 | 252 | 0.0 | 0.0 | 0.00 | 0.00 | 0.05 | 65 | 1008.9 |
| 20260904170337 | 30 | 279 | 0.0 | 0.0 | 0.00 | 0.00 | 0.05 | 64 | 1009.0 |
| 20260904170124 | 30 | 290 | 0.0 | 0.0 | 0.00 | 0.00 | 0.05 | 63 | 1009.0 |
| 20260904170025 | 30 | 292 | 0.0 | 0.0 | 0.00 | 0.00 | 0.05 | 63 | 1008.9 |
| 20260904165926 | 30 | 294 | 0.0 | 0.0 | 0.00 | 0.00 | 0.05 | 62 | 1009.1 |
| 20260904165826 | 30 | 294 | 0.0 | 0.0 | 0.00 | 0.00 | 0.05 | 62 | 1009.0 |
| 20260904165727 | 30 | 294 | 0.0 | 0.0 | 0.00 | 0.00 | 0.05 | 62 | 1009.1 |
| 20260904165651 | 30 | 301 | 0.0 | 0.0 | 0.00 | 0.00 | 0.05 | 62 | 1009.1 |
| 20260904165538 | 30 | 279 | 0.0 | 0.0 | 0.00 | 0.00 | 0.05 | 62 | 1008.8 |
| 20260904165533 | 30 | 321 | 0.0 | 0.0 | 0.00 | 0.00 | 0.05 | 62 | 1008.9 |
| 20260904165345 | 30 | 305 | 0.0 | 0.0 | 0.00 | 0.00 | 0.05 | 62 | 1008.7 |
| 20260904165341 | 30 | 266 | 0.0 | 0.0 | 0.00 | 0.00 | 0.05 | 62 | 1008.8 |
| 20260904165332 | 30 | 279 | 0.0 | 0.0 | 0.00 | 0.00 | 0.05 | 62 | 1008.8 |
| 20260904165031 | 30 | 295 | 0.0 | 0.0 | 0.00 | 0.00 | 0.05 | 62 | 1008.8 |
| 20260904165027 | 30 | 305 | 0.0 | 0.0 | 0.00 | 0.00 | 0.05 | 62 | 1008.7 |
| 20260904164815 | 30 | 294 | 0.0 | 0.0 | 0.00 | 0.00 | 0.05 | 62 | 1008.7 |
| 20260904164714 | 29 | 315 | 0.0 | 0.0 | 0.00 | 0.00 | 0.05 | 63 | 1008.7 |
| 20260904164609 | 29 | 276 | 0.0 | 0.0 | 0.00 | 0.00 | 0.05 | 63 | 1008.6 |
| 20260904164509 | 29 | 277 | 0.0 | 0.0 | 0.00 | 0.00 | 0.05 | 63 | 1008.6 |
| 20260904164409 | 29 | 335 | 0.0 | 0.0 | 0.00 | 0.00 | 0.05 | 63 | 1008.7 |
| 20260904164308 | 29 | 288 | 0.0 | 0.0 | 0.00 | 0.00 | 0.05 | 63 | 1008.8 |
| 20260904164211 | 29 | 314 | 0.0 | 0.0 | 0.00 | 0.00 | 0.05 | 65 | 1008.8 |
| 20260904164204 | 29 | 304 | 0.0 | 0.0 | 0.00 | 0.00 | 0.05 | 65 | 1008.8 |
| 20260904164109 | 29 | 294 | 0.0 | 0.0 | 0.00 | 0.00 | 0.05 | 65 | 1008.8 |
| 20260904164009 | 29 | 279 | 0.0 | 0.0 | 0.00 | 0.00 | 0.05 | 65 | 1008.9 |
| 20260904163907 | 29 | 279 | 0.0 | 0.0 | 0.00 | 0.00 | 0.05 | 65 | 1008.9 |
| 20260904163807 | 29 | 278 | 0.0 | 0.0 | 0.00 | 0.00 | 0.05 | 65 | 1008.9 |
| 20260904163707 | 29 | 312 | 0.0 | 0.0 | 0.00 | 0.00 | 0.05 | 64 | 1009.0 |
| 20260904163700 | 29 | 313 | 0.0 | 0.0 | 0.00 | 0.00 | 0.05 | 64 | 1009.0 |
| 20260904163621 | 29 | 263 | 0.0 | 0.0 | 0.00 | 0.00 | 0.05 | 66 | 1009.0 |
| 20260904163616 | 29 | 302 | 0.0 | 0.0 | 0.00 | 0.00 | 0.05 | 66 | 1009.0 |
| 20260904163406 | 29 | 263 | 0.0 | 0.0 | 0.00 | 0.00 | 0.05 | 64 | 1008.9 |
| 20260904163307 | 29 | 263 | 0.0 | 0.0 | 0.00 | 0.00 | 0.05 | 65 | 1008.9 |
| 20260904163207 | 29 | 264 | 0.0 | 0.0 | 0.00 | 0.00 | 0.05 | 64 | 1008.8 |
| 20260904163200 | 29 | 264 | 0.0 | 0.0 | 0.00 | 0.00 | 0.05 | 64 | 1008.8 |
| 20260904163108 | 29 | 264 | 0.0 | 0.0 | 0.00 | 0.00 | 0.05 | 64 | 1008.9 |
| 20260904163006 | 29 | 264 | 0.0 | 0.0 | 0.00 | 0.00 | 0.05 | 64 | 1008.9 |
| 20260904162906 | 29 | 254 | 0.0 | 0.0 | 0.00 | 0.00 | 0.05 | 65 | 1008.9 |
| 20260904162804 | 29 | 253 | 0.0 | 0.0 | 0.00 | 0.00 | 0.05 | 65 | 1009.1 |
| 20260904162700 | 29 | 253 | 0.0 | 0.0 | 0.00 | 0.00 | 0.05 | 65 | 1009.2 |
| 20260904162427 | 29 | 296 | 0.0 | 0.0 | 0.00 | 0.05 | 0.05 | 66 | 1009.3 |
| 20260904162322 | 29 | 304 | 0.0 | 0.0 | 0.00 | 0.05 | 0.05 | 64 | 1009.1 |
| 20260904162243 | 29 | 306 | 0.0 | 0.0 | 0.00 | 0.05 | 0.05 | 65 | 1008.9 |
| 20260904162234 | 29 | 306 | 0.0 | 0.0 | 0.00 | 0.05 | 0.05 | 65 | 1008.8 |
| 20260904162230 | 29 | 306 | 0.0 | 0.0 | 0.00 | 0.05 | 0.05 | 64 | 1008.9 |
| 20260904162033 | 29 | 306 | 0.0 | 0.0 | 0.00 | 0.05 | 0.05 | 65 | 1009.0 |
| 20260904162029 | 29 | 306 | 0.0 | 0.0 | 0.00 | 0.05 | 0.05 | 65 | 1008.9 |
| 20260904161816 | 29 | 306 | 0.0 | 0.0 | 0.00 | 0.05 | 0.05 | 64 | 1008.9 |
| 20260904161738 | 29 | 306 | 0.0 | 0.0 | 0.00 | 0.05 | 0.05 | 64 | 1009.0 |
| 20260904161715 | 29 | 306 | 0.0 | 0.0 | 0.00 | 0.05 | 0.05 | 63 | 1009.0 |
| 20260904161646 | 29 | 320 | 0.0 | 0.0 | 0.00 | 0.05 | 0.05 | 63 | 1009.2 |
| 20260904161640 | 29 | 307 | 0.0 | 0.0 | 0.00 | 0.05 | 0.05 | 62 | 1009.1 |
| 20260904161527 | 29 | 277 | 0.0 | 0.0 | 0.00 | 0.05 | 0.05 | 62 | 1009.2 |
| 20260904161231 | 30 | 286 | 0.0 | 0.0 | 0.00 | 0.05 | 0.05 | 63 | 1009.0 |
| 20260904161208 | 30 | 307 | 0.0 | 0.0 | 0.00 | 0.05 | 0.05 | 63 | 1008.8 |
| 20260904161109 | 30 | 307 | 0.0 | 0.0 | 0.00 | 0.05 | 0.05 | 62 | 1008.9 |
| 20260904161009 | 30 | 308 | 0.0 | 0.0 | 0.00 | 0.05 | 0.05 | 63 | 1008.8 |
| 20260904160908 | 30 | 307 | 0.0 | 0.0 | 0.00 | 0.05 | 0.05 | 63 | 1008.0 |
| 20260904160805 | 30 | 309 | 0.0 | 0.0 | 0.00 | 0.05 | 0.05 | 62 | 1008.4 |
| 20260904160726 | 30 | 323 | 0.0 | 0.0 | 0.00 | 0.05 | 0.05 | 62 | 1008.4 |
| 20260904160705 | 30 | 312 | 0.0 | 0.0 | 0.00 | 0.05 | 0.05 | 62 | 1006.8 |
| 20260904160605 | 30 | 323 | 0.0 | 0.0 | 0.00 | 0.05 | 0.05 | 63 | 1008.8 |
| 20260904160505 | 30 | 232 | 0.0 | 0.0 | 0.00 | 0.05 | 0.05 | 62 | 1008.8 |
| 20260904160403 | 30 | 306 | 0.0 | 0.0 | 0.00 | 0.05 | 0.05 | 63 | 1006.5 |
| 20260904160259 | 30 | 294 | 0.0 | 0.0 | 0.00 | 0.05 | 0.05 | 62 | 1007.3 |
| 20260904160220 | 30 | 288 | 0.0 | 0.0 | 0.00 | 0.05 | 0.05 | 63 | 1007.3 |
| 20260904160157 | 30 | 288 | 0.0 | 0.0 | 0.00 | 0.05 | 0.05 | 62 | 1008.6 |
| 20260904160056 | 30 | 355 | 0.0 | 0.0 | 0.00 | 0.05 | 0.05 | 62 | 1008.6 |
| 20260904160010 | 30 | 275 | 0.0 | 0.0 | 0.00 | 0.05 | 0.05 | 62 | 1008.7 |
| 20260904160006 | 30 | 114 | 0.0 | 0.0 | 0.00 | 0.05 | 0.05 | 62 | 1008.7 |
| 20260904155751 | 30 | 306 | 0.0 | 0.0 | 0.00 | 0.05 | 0.05 | 63 | 1008.8 |
| 20260904155714 | 30 | 336 | 0.0 | 0.0 | 0.00 | 0.05 | 0.05 | 63 | 1008.8 |
| 20260904155650 | 30 | 336 | 0.0 | 0.0 | 0.00 | 0.05 | 0.05 | 62 | 1008.9 |
| 20260904155551 | 30 | 336 | 0.0 | 0.0 | 0.00 | 0.05 | 0.05 | 63 | 1008.7 |
| 20260904155451 | 30 | 121 | 0.0 | 0.0 | 0.00 | 0.05 | 0.05 | 62 | 1005.9 |
| 20260904155350 | 30 | 302 | 0.0 | 0.0 | 0.00 | 0.05 | 0.05 | 62 | 1005.9 |
| 20260904155250 | 30 | 209 | 0.0 | 0.0 | 0.00 | 0.05 | 0.05 | 62 | 1008.9 |
| 20260904155209 | 30 | 208 | 0.0 | 0.0 | 0.00 | 0.05 | 0.05 | 62 | 1009.1 |
| 20260904155203 | 30 | 15 | 0.0 | 0.0 | 0.00 | 0.05 | 0.05 | 63 | 1009.0 |
| 20260904155158 | 30 | 208 | 0.0 | 0.0 | 0.00 | 0.05 | 0.05 | 62 | 1009.1 |
| 20260904154947 | 30 | 290 | 0.0 | 0.0 | 0.00 | 0.05 | 0.05 | 63 | 1006.6 |
| 20260904154844 | 30 | 290 | 0.0 | 0.0 | 0.00 | 0.05 | 0.05 | 63 | 1005.2 |
| 20260904154743 | 30 | 263 | 0.0 | 0.0 | 0.00 | 0.05 | 0.05 | 64 | 1005.0 |
| 20260904154709 | 30 | 275 | 0.0 | 0.0 | 0.00 | 0.05 | 0.05 | 62 | 1005.0 |
| 20260904154705 | 30 | 293 | 0.0 | 0.0 | 0.00 | 0.05 | 0.05 | 64 | 1004.9 |
| 20260904154659 | 30 | 293 | 0.0 | 0.0 | 0.00 | 0.05 | 0.05 | 64 | 1004.9 |
| 20260904154650 | 30 | 292 | 0.0 | 0.0 | 0.00 | 0.05 | 0.05 | 63 | 1005.0 |
| 20260904154429 | 30 | 309 | 0.0 | 0.0 | 0.00 | 0.05 | 0.05 | 61 | 1008.0 |
| 20260904154423 | 30 | 273 | 0.0 | 0.0 | 0.00 | 0.05 | 0.05 | 62 | 1006.6 |
| 20260904154132 | 30 | 291 | 0.0 | 0.0 | 0.00 | 0.05 | 0.05 | 62 | 1008.6 |
| 20260904154112 | 30 | 329 | 0.0 | 0.0 | 0.00 | 0.05 | 0.05 | 61 | 1004.6 |
| 20260904154108 | 30 | 298 | 0.0 | 0.0 | 0.00 | 0.05 | 0.05 | 62 | 1006.0 |
| 20260904154104 | 30 | 296 | 0.0 | 0.0 | 0.00 | 0.05 | 0.05 | 61 | 1004.4 |
| 20260904154058 | 30 | 262 | 0.0 | 0.0 | 0.00 | 0.05 | 0.05 | 61 | 1004.7 |
| 20260904153706 | 30 | 302 | 0.0 | 0.0 | 0.00 | 0.05 | 0.05 | 62 | 1004.1 |
| 20260904153644 | 30 | 61 | 0.0 | 0.0 | 0.00 | 0.05 | 0.05 | 62 | 1004.3 |
| 20260904153638 | 30 | 266 | 0.0 | 0.0 | 0.00 | 0.05 | 0.05 | 62 | 1004.1 |
| 20260904153429 | 30 | 52 | 0.0 | 0.0 | 0.00 | 0.05 | 0.05 | 62 | 1004.2 |
| 20260904153339 | 30 | 282 | 0.0 | 0.0 | 0.00 | 0.05 | 0.05 | 62 | 1004.1 |
| 20260904153333 | 30 | 315 | 0.0 | 0.0 | 0.00 | 0.05 | 0.05 | 62 | 1004.2 |
| 20260904153206 | 30 | 280 | 0.0 | 0.0 | 0.00 | 0.05 | 0.05 | 61 | 1004.0 |
| 20260904153125 | 30 | 330 | 0.0 | 0.0 | 0.00 | 0.05 | 0.05 | 61 | 1004.0 |
| 20260904153049 | 30 | 275 | 0.0 | 0.0 | 0.00 | 0.05 | 0.05 | 63 | 1004.1 |
| 20260904152935 | 29 | 265 | 0.0 | 0.0 | 0.00 | 0.05 | 0.05 | 62 | 1004.2 |
| 20260904152822 | 29 | 300 | 0.0 | 0.0 | 0.00 | 0.05 | 0.05 | 63 | 1004.0 |
| 20260904152812 | 29 | 311 | 0.0 | 0.0 | 0.00 | 0.05 | 0.05 | 62 | 1004.0 |
| 20260904152700 | 29 | 292 | 0.0 | 0.0 | 0.00 | 0.05 | 0.05 | 63 | 1004.2 |
| 20260904152654 | 29 | 323 | 0.0 | 0.0 | 0.00 | 0.05 | 0.05 | 62 | 1003.9 |
| 20260904152322 | 29 | 217 | 0.0 | 0.0 | 0.00 | 0.05 | 0.05 | 62 | 1004.5 |
| 20260904152206 | 30 | 272 | 0.0 | 0.0 | 0.00 | 0.05 | 0.05 | 62 | 1003.8 |
| 20260904152110 | 30 | 296 | 0.0 | 0.0 | 0.00 | 0.05 | 0.05 | 63 | 1003.8 |
| 20260904152011 | 29 | 271 | 0.0 | 0.0 | 0.00 | 0.05 | 0.05 | 63 | 1003.8 |
| 20260904151910 | 29 | 293 | 0.0 | 0.0 | 0.00 | 0.05 | 0.05 | 63 | 1003.8 |
| 20260904151810 | 29 | 308 | 0.0 | 0.0 | 0.00 | 0.05 | 0.05 | 63 | 1003.7 |
| 20260904151706 | 29 | 318 | 0.0 | 0.0 | 0.00 | 0.05 | 0.05 | 63 | 1003.6 |
| 20260904151611 | 29 | 321 | 0.0 | 0.0 | 0.00 | 0.05 | 0.05 | 63 | 1003.6 |
| 20260904151512 | 30 | 323 | 0.0 | 0.0 | 0.00 | 0.05 | 0.05 | 63 | 1003.7 |
| 20260904151411 | 30 | 308 | 0.0 | 0.0 | 0.00 | 0.05 | 0.05 | 63 | 1003.8 |
| 20260904151309 | 29 | 244 | 0.0 | 0.0 | 0.00 | 0.05 | 0.05 | 65 | 1003.7 |
| 20260904151212 | 29 | 244 | 0.0 | 0.0 | 0.00 | 0.05 | 0.05 | 65 | 1004.4 |
| 20260904151204 | 29 | 244 | 0.0 | 0.0 | 0.00 | 0.05 | 0.05 | 65 | 1004.2 |
| 20260904151108 | 29 | 243 | 0.0 | 0.0 | 0.00 | 0.05 | 0.05 | 65 | 1004.2 |
| 20260904151036 | 29 | 280 | 0.0 | 0.0 | 0.00 | 0.05 | 0.05 | 65 | 1004.8 |
| 20260904151031 | 29 | 290 | 0.0 | 0.0 | 0.00 | 0.05 | 0.05 | 65 | 1004.1 |
| 20260904151026 | 29 | 286 | 0.0 | 0.0 | 0.00 | 0.05 | 0.05 | 65 | 1004.2 |
| 20260904151018 | 29 | 286 | 0.0 | 0.0 | 0.00 | 0.05 | 0.05 | 65 | 1004.3 |
| 20260904150708 | 29 | 288 | 0.0 | 0.0 | 0.00 | 0.05 | 0.05 | 64 | 1004.1 |
| 20260904150606 | 29 | 244 | 0.0 | 0.0 | 0.00 | 0.05 | 0.05 | 65 | 1004.1 |
| 20260904150523 | 28 | 253 | 0.0 | 0.0 | 0.00 | 0.05 | 0.05 | 65 | 1004.1 |
| 20260904150519 | 29 | 269 | 0.0 | 0.0 | 0.00 | 0.05 | 0.05 | 65 | 1004.2 |
| 20260904150514 | 29 | 270 | 0.0 | 0.0 | 0.00 | 0.05 | 0.05 | 65 | 1004.1 |
| 20260904150319 | 28 | 277 | 0.0 | 0.0 | 0.00 | 0.05 | 0.05 | 65 | 1004.0 |
| 20260904150204 | 28 | 265 | 0.0 | 0.0 | 0.00 | 0.05 | 0.05 | 67 | 1004.2 |
| 20260904150104 | 28 | 267 | 0.0 | 0.0 | 0.00 | 0.05 | 0.05 | 66 | 1004.4 |
| 20260904150019 | 28 | 259 | 0.0 | 0.0 | 0.00 | 0.05 | 0.05 | 66 | 1004.5 |
| 20260904150003 | 28 | 259 | 0.0 | 0.0 | 0.00 | 0.05 | 0.05 | 66 | 1004.4 |
| 20260904145904 | 28 | 294 | 0.0 | 0.0 | 0.00 | 0.05 | 0.05 | 66 | 1004.2 |
| 20260904145804 | 28 | 261 | 0.0 | 0.0 | 0.00 | 0.05 | 0.05 | 65 | 1004.1 |
| 20260904145708 | 28 | 289 | 0.0 | 0.0 | 0.00 | 0.05 | 0.05 | 66 | 1004.1 |
| 20260904145703 | 28 | 302 | 0.0 | 0.0 | 0.00 | 0.05 | 0.05 | 66 | 1004.1 |
| 20260904145604 | 28 | 317 | 0.0 | 0.0 | 0.00 | 0.05 | 0.05 | 68 | 1004.1 |
| 20260904145518 | 28 | 303 | 0.0 | 0.0 | 0.00 | 0.05 | 0.05 | 69 | 1005.5 |
| 20260904145503 | 28 | 301 | 0.0 | 0.0 | 0.00 | 0.05 | 0.05 | 69 | 1005.5 |
| 20260904145427 | 28 | 263 | 0.0 | 0.0 | 0.00 | 0.05 | 0.05 | 69 | 1005.5 |
| 20260904145314 | 28 | 263 | 0.0 | 0.0 | 0.00 | 0.05 | 0.05 | 69 | 1004.9 |
| 20260904145306 | 28 | 263 | 0.0 | 0.0 | 0.00 | 0.05 | 0.05 | 68 | 1004.9 |
| 20260904145059 | 28 | 274 | 0.0 | 0.0 | 0.00 | 0.05 | 0.05 | 68 | 1004.3 |
| 20260904145019 | 28 | 313 | 0.0 | 0.0 | 0.00 | 0.05 | 0.05 | 69 | 1004.2 |
| 20260904144959 | 28 | 313 | 0.0 | 0.0 | 0.00 | 0.05 | 0.05 | 69 | 1004.2 |
| 20260904144859 | 28 | 273 | 0.0 | 0.0 | 0.00 | 0.05 | 0.05 | 68 | 1004.2 |
| 20260904144823 | 28 | 296 | 0.0 | 0.0 | 0.00 | 0.05 | 0.05 | 68 | 1004.2 |
| 20260904144818 | 28 | 340 | 0.0 | 0.0 | 0.00 | 0.05 | 0.05 | 69 | 1004.5 |
| 20260904144813 | 28 | 301 | 0.0 | 0.0 | 0.00 | 0.05 | 0.05 | 69 | 1004.3 |
| 20260904144804 | 28 | 5 | 0.0 | 0.0 | 0.00 | 0.05 | 0.05 | 68 | 1004.3 |
| 20260904144759 | 28 | 290 | 0.0 | 0.0 | 0.00 | 0.05 | 0.05 | 68 | 1004.1 |
| 20260904144646 | 28 | 5 | 0.0 | 0.0 | 0.00 | 0.05 | 0.05 | 69 | 1004.2 |
| 20260904144641 | 28 | 292 | 0.0 | 0.0 | 0.00 | 0.05 | 0.05 | 68 | 1004.1 |
| 20260904144518 | 28 | 292 | 0.0 | 0.0 | 0.00 | 0.05 | 0.05 | 68 | 1004.2 |
| 20260904144156 | 28 | 5 | 0.0 | 0.0 | 0.00 | 0.05 | 0.05 | 69 | 1004.2 |
| 20260904144055 | 28 | 327 | 0.0 | 0.0 | 0.00 | 0.05 | 0.05 | 68 | 1004.3 |
| 20260904144018 | 28 | 323 | 0.0 | 0.0 | 0.00 | 0.05 | 0.05 | 69 | 1004.3 |
| 20260904143953 | 28 | 325 | 0.0 | 0.0 | 0.00 | 0.05 | 0.05 | 69 | 1004.3 |
| 20260904143853 | 28 | 80 | 0.0 | 0.0 | 0.00 | 0.05 | 0.05 | 70 | 1004.3 |
| 20260904143808 | 28 | 47 | 0.0 | 0.0 | 0.00 | 0.05 | 0.05 | 70 | 1004.3 |
| 20260904143804 | 28 | 80 | 0.0 | 0.0 | 0.00 | 0.05 | 0.05 | 70 | 1004.2 |
| 20260904143755 | 28 | 87 | 0.0 | 0.0 | 0.00 | 0.05 | 0.05 | 70 | 1004.3 |
| 20260904143549 | 28 | 275 | 0.0 | 0.0 | 0.00 | 0.05 | 0.05 | 70 | 1004.2 |
| 20260904143518 | 28 | 293 | 0.0 | 0.0 | 0.00 | 0.05 | 0.05 | 69 | 1004.2 |
| 20260904143516 | 28 | 259 | 0.0 | 0.0 | 0.00 | 0.05 | 0.05 | 68 | 1004.4 |
| 20260904143512 | 28 | 317 | 0.0 | 0.0 | 0.00 | 0.05 | 0.05 | 68 | 1004.4 |
| 20260904143506 | 28 | 298 | 0.0 | 0.0 | 0.00 | 0.05 | 0.05 | 68 | 1004.2 |
| 20260904143202 | 28 | 321 | 0.0 | 0.0 | 0.00 | 0.05 | 0.05 | 68 | 1004.5 |
| 20260904143146 | 28 | 348 | 0.0 | 0.0 | 0.00 | 0.05 | 0.05 | 68 | 1004.5 |
| 20260904143045 | 28 | 300 | 0.0 | 0.0 | 0.00 | 0.05 | 0.05 | 67 | 1004.5 |
| 20260904143018 | 28 | 309 | 0.0 | 0.0 | 0.00 | 0.05 | 0.05 | 66 | 1004.4 |
| 20260904142944 | 28 | 321 | 0.0 | 0.0 | 0.00 | 0.05 | 0.05 | 66 | 1004.4 |
| 20260904142858 | 28 | 338 | 0.0 | 0.0 | 0.00 | 0.05 | 0.05 | 66 | 1004.3 |
| 20260904142854 | 28 | 292 | 0.0 | 0.0 | 0.00 | 0.05 | 0.05 | 66 | 1004.3 |
| 20260904142701 | 28 | 309 | 0.0 | 0.0 | 0.00 | 0.05 | 0.05 | 67 | 1004.3 |
| 20260904142643 | 28 | 326 | 0.0 | 0.0 | 0.00 | 0.05 | 0.05 | 67 | 1004.3 |
| 20260904142543 | 28 | 328 | 0.0 | 0.0 | 0.00 | 0.05 | 0.05 | 67 | 1004.3 |
| 20260904142518 | 28 | 305 | 0.0 | 0.0 | 0.00 | 0.05 | 0.05 | 68 | 1004.6 |
| 20260904142442 | 28 | 301 | 0.0 | 0.0 | 0.00 | 0.05 | 0.05 | 68 | 1004.5 |
| 20260904142342 | 28 | 304 | 0.0 | 0.0 | 0.00 | 0.05 | 0.05 | 68 | 1004.4 |
| 20260904142243 | 28 | 280 | 0.0 | 0.0 | 0.00 | 0.05 | 0.05 | 69 | 1004.3 |
| 20260904142201 | 28 | 267 | 0.0 | 0.0 | 0.00 | 0.05 | 0.05 | 69 | 1004.4 |
| 20260904142142 | 28 | 266 | 0.0 | 0.0 | 0.00 | 0.05 | 0.05 | 69 | 1004.4 |
| 20260904142042 | 28 | 266 | 0.0 | 0.0 | 0.00 | 0.05 | 0.05 | 69 | 1004.3 |
| 20260904142018 | 28 | 268 | 0.0 | 0.0 | 0.00 | 0.05 | 0.05 | 69 | 1005.5 |
| 20260904141941 | 28 | 273 | 0.0 | 0.0 | 0.00 | 0.05 | 0.05 | 69 | 1005.6 |
| 20260904141840 | 28 | 292 | 0.0 | 0.0 | 0.00 | 0.05 | 0.05 | 69 | 1005.6 |
| 20260904141759 | 28 | 305 | 0.0 | 0.0 | 0.00 | 0.05 | 0.05 | 70 | 1004.2 |
| 20260904141753 | 28 | 307 | 0.0 | 0.0 | 0.00 | 0.05 | 0.05 | 69 | 1004.2 |
| 20260904141746 | 28 | 270 | 0.0 | 0.0 | 0.00 | 0.05 | 0.05 | 69 | 1004.2 |
| 20260904141539 | 28 | 269 | 0.0 | 0.0 | 0.00 | 0.05 | 0.05 | 70 | 1004.2 |
| 20260904141518 | 28 | 279 | 0.0 | 0.0 | 0.00 | 0.05 | 0.05 | 70 | 1004.2 |
| 20260904141439 | 28 | 228 | 0.0 | 0.0 | 0.00 | 0.05 | 0.05 | 70 | 1004.2 |
| 20260904141338 | 28 | 294 | 0.0 | 0.0 | 0.00 | 0.05 | 0.05 | 71 | 1004.3 |
| 20260904141237 | 28 | 246 | 0.0 | 0.0 | 0.00 | 0.05 | 0.05 | 72 | 1004.4 |
| 20260904141201 | 28 | 246 | 0.0 | 0.0 | 0.00 | 0.05 | 0.05 | 72 | 1004.6 |
| 20260904141137 | 28 | 309 | 0.0 | 0.0 | 0.00 | 0.05 | 0.05 | 71 | 1004.6 |
| 20260904141048 | 28 | 268 | 0.0 | 0.0 | 0.00 | 0.05 | 0.05 | 71 | 1004.7 |
| 20260904141044 | 28 | 355 | 0.0 | 0.0 | 0.00 | 0.05 | 0.05 | 71 | 1004.6 |
| 20260904141018 | 28 | 269 | 0.0 | 0.0 | 0.00 | 0.05 | 0.05 | 71 | 1004.7 |
| 20260904140833 | 27 | 306 | 0.0 | 0.0 | 0.00 | 0.05 | 0.05 | 71 | 1004.8 |
| 20260904140733 | 27 | 309 | 0.0 | 0.0 | 0.00 | 0.05 | 0.05 | 71 | 1004.8 |
| 20260904140700 | 27 | 265 | 0.0 | 0.0 | 0.00 | 0.05 | 0.05 | 71 | 1004.9 |
| 20260904140633 | 27 | 279 | 0.0 | 0.0 | 0.00 | 0.05 | 0.05 | 70 | 1004.9 |
| 20260904140532 | 27 | 329 | 0.0 | 0.0 | 0.03 | 0.05 | 0.05 | 70 | 1004.8 |
| 20260904140518 | 27 | 320 | 0.0 | 0.0 | 0.03 | 0.05 | 0.05 | 70 | 1004.9 |
| 20260904140433 | 27 | 323 | 0.0 | 0.0 | 0.03 | 0.05 | 0.05 | 69 | 1004.9 |
| 20260904140426 | 27 | 311 | 0.0 | 0.0 | 0.03 | 0.05 | 0.05 | 70 | 1004.7 |
| 20260904140333 | 27 | 292 | 0.0 | 0.0 | 0.03 | 0.05 | 0.05 | 69 | 1004.9 |
| 20260904140311 | 27 | 292 | 0.0 | 0.0 | 0.03 | 0.05 | 0.05 | 71 | 1004.7 |
| 20260904140157 | 28 | 332 | 0.0 | 0.0 | 0.03 | 0.05 | 0.05 | 69 | 1004.7 |
| 20260904140153 | 28 | 312 | 0.0 | 0.0 | 0.03 | 0.05 | 0.05 | 70 | 1004.9 |
| 20260904140148 | 27 | 311 | 0.0 | 0.0 | 0.03 | 0.05 | 0.05 | 70 | 1004.7 |
| 20260904140018 | 28 | 319 | 0.0 | 0.0 | 0.03 | 0.05 | 0.05 | 69 | 1004.9 |
| 20260904135829 | 28 | 255 | 0.0 | 0.0 | 0.03 | 0.05 | 0.05 | 70 | 1004.9 |
| 20260904135728 | 28 | 311 | 0.0 | 0.0 | 0.03 | 0.05 | 0.05 | 71 | 1004.8 |
| 20260904135700 | 28 | 313 | 0.0 | 0.0 | 0.03 | 0.05 | 0.05 | 70 | 1004.9 |
| 20260904135627 | 28 | 342 | 0.0 | 0.0 | 0.03 | 0.05 | 0.05 | 70 | 1004.9 |
| 20260904135527 | 28 | 272 | 0.0 | 0.0 | 0.03 | 0.05 | 0.05 | 72 | 1004.9 |
| 20260904135518 | 28 | 275 | 0.0 | 0.0 | 0.03 | 0.05 | 0.05 | 72 | 1005.0 |
| 20260904135509 | 28 | 315 | 0.0 | 0.0 | 0.03 | 0.05 | 0.05 | 73 | 1005.0 |
| 20260904135503 | 28 | 319 | 0.0 | 0.0 | 0.03 | 0.05 | 0.05 | 73 | 1004.9 |
| 20260904135349 | 28 | 223 | 0.0 | 0.0 | 0.03 | 0.05 | 0.05 | 73 | 1004.9 |
| 20260904135232 | 28 | 315 | 0.0 | 0.0 | 0.03 | 0.05 | 0.05 | 73 | 1005.1 |
| 20260904135024 | 27 | 330 | 0.0 | 0.0 | 0.03 | 0.05 | 0.05 | 73 | 1005.2 |
| 20260904135018 | 27 | 259 | 0.0 | 0.0 | 0.03 | 0.05 | 0.05 | 73 | 1005.2 |
| 20260904134931 | 27 | 264 | 0.0 | 0.0 | 0.03 | 0.05 | 0.05 | 74 | 1005.2 |
| 20260904134927 | 27 | 263 | 0.0 | 0.0 | 0.03 | 0.05 | 0.05 | 75 | 1005.1 |
| 20260904134923 | 27 | 309 | 0.0 | 0.0 | 0.03 | 0.05 | 0.05 | 74 | 1005.1 |
| 20260904134914 | 27 | 257 | 0.0 | 0.0 | 0.03 | 0.05 | 0.05 | 75 | 1005.1 |
| 20260904134623 | 27 | 263 | 0.0 | 0.0 | 0.03 | 0.05 | 0.05 | 74 | 1005.2 |
| 20260904134536 | 27 | 267 | 0.0 | 0.0 | 0.03 | 0.05 | 0.05 | 74 | 1005.5 |
| 20260904134531 | 27 | 263 | 0.0 | 0.0 | 0.03 | 0.05 | 0.05 | 74 | 1005.2 |
| 20260904134519 | 27 | 267 | 0.0 | 0.0 | 0.03 | 0.05 | 0.05 | 74 | 1005.5 |
| 20260904134321 | 27 | 299 | 0.0 | 0.0 | 0.03 | 0.05 | 0.05 | 74 | 1005.5 |
| 20260904134221 | 27 | 271 | 0.0 | 0.0 | 0.03 | 0.05 | 0.05 | 74 | 1005.6 |
| 20260904134156 | 27 | 294 | 0.0 | 0.0 | 0.03 | 0.05 | 0.05 | 74 | 1005.6 |
| 20260904134134 | 27 | 292 | 0.0 | 0.0 | 0.03 | 0.05 | 0.05 | 75 | 1005.9 |
| 20260904134129 | 27 | 5 | 0.0 | 0.0 | 0.03 | 0.05 | 0.05 | 74 | 1005.6 |
| 20260904134019 | 27 | 291 | 0.0 | 0.0 | 0.03 | 0.05 | 0.05 | 75 | 1005.8 |
| 20260904133920 | 27 | 284 | 0.0 | 0.0 | 0.03 | 0.05 | 0.05 | 76 | 1005.9 |
| 20260904133819 | 27 | 213 | 0.0 | 0.0 | 0.03 | 0.05 | 0.05 | 76 | 1005.6 |
| 20260904133719 | 27 | 314 | 0.0 | 0.0 | 0.03 | 0.05 | 0.05 | 76 | 1005.6 |
| 20260904133654 | 27 | 317 | 0.0 | 0.0 | 0.03 | 0.05 | 0.05 | 76 | 1005.7 |
| 20260904133618 | 27 | 315 | 0.0 | 0.0 | 0.03 | 0.05 | 0.05 | 75 | 1005.7 |
| 20260904133519 | 27 | 317 | 0.0 | 0.0 | 0.03 | 0.05 | 0.05 | 75 | 1005.7 |
| 20260904133443 | 27 | 296 | 0.0 | 0.0 | 0.03 | 0.05 | 0.05 | 75 | 1005.7 |
| 20260904133439 | 27 | 63 | 0.0 | 0.0 | 0.03 | 0.05 | 0.05 | 75 | 1005.6 |
| 20260904133434 | 27 | 290 | 0.0 | 0.0 | 0.03 | 0.05 | 0.05 | 75 | 1005.8 |
| 20260904133151 | 27 | 308 | 0.0 | 0.0 | 0.03 | 0.05 | 0.05 | 75 | 1005.6 |
| 20260904133142 | 27 | 311 | 0.0 | 0.0 | 0.03 | 0.05 | 0.05 | 75 | 1005.7 |
| 20260904133137 | 26 | 253 | 0.0 | 0.0 | 0.03 | 0.05 | 0.05 | 76 | 1005.8 |
| 20260904133132 | 27 | 306 | 0.0 | 0.0 | 0.03 | 0.05 | 0.05 | 75 | 1005.6 |
| 20260904133018 | 27 | 280 | 0.0 | 0.0 | 0.03 | 0.05 | 0.05 | 75 | 1005.7 |
| 20260904132813 | 26 | 302 | 0.0 | 0.0 | 0.03 | 0.05 | 0.05 | 76 | 1005.7 |
| 20260904132713 | 26 | 307 | 0.0 | 0.0 | 0.03 | 0.05 | 0.05 | 76 | 1005.8 |
| 20260904132652 | 26 | 307 | 0.0 | 0.0 | 0.03 | 0.05 | 0.05 | 76 | 1005.9 |
| 20260904132612 | 26 | 309 | 0.0 | 0.0 | 0.03 | 0.05 | 0.05 | 76 | 1005.9 |
| 20260904132526 | 26 | 327 | 0.0 | 0.0 | 0.03 | 0.05 | 0.05 | 77 | 1006.0 |
| 20260904132521 | 26 | 321 | 0.0 | 0.0 | 0.03 | 0.05 | 0.05 | 76 | 1006.1 |
| 20260904132519 | 26 | 321 | 0.0 | 0.0 | 0.03 | 0.05 | 0.05 | 76 | 1005.9 |
| 20260904132311 | 26 | 311 | 0.0 | 0.0 | 0.03 | 0.05 | 0.05 | 77 | 1006.0 |
| 20260904132211 | 26 | 311 | 0.0 | 0.0 | 0.03 | 0.05 | 0.05 | 78 | 1006.0 |
| 20260904132151 | 26 | 311 | 0.0 | 0.0 | 0.03 | 0.05 | 0.05 | 78 | 1006.1 |
| 20260904132110 | 26 | 271 | 0.0 | 0.0 | 0.03 | 0.05 | 0.05 | 77 | 1006.0 |
| 20260904132048 | 26 | 277 | 0.0 | 0.0 | 0.03 | 0.05 | 0.05 | 77 | 1006.0 |
| 20260904132010 | 26 | 277 | 0.0 | 0.0 | 0.03 | 0.05 | 0.05 | 77 | 1006.5 |
| 20260904131908 | 26 | 274 | 0.0 | 0.0 | 0.03 | 0.05 | 0.05 | 77 | 1006.0 |
| 20260904131809 | 26 | 275 | 0.0 | 0.0 | 0.03 | 0.05 | 0.05 | 77 | 1006.1 |
| 20260904131706 | 26 | 300 | 0.0 | 0.0 | 0.03 | 0.05 | 0.05 | 77 | 1006.3 |
| 20260904131650 | 26 | 300 | 0.0 | 0.0 | 0.03 | 0.05 | 0.05 | 77 | 1006.3 |
| 20260904131606 | 26 | 296 | 0.0 | 0.0 | 0.03 | 0.05 | 0.05 | 77 | 1006.1 |
| 20260904131519 | 26 | 276 | 0.0 | 0.0 | 0.03 | 0.05 | 0.05 | 77 | 1006.3 |
| 20260904131504 | 26 | 276 | 0.0 | 0.0 | 0.03 | 0.05 | 0.05 | 77 | 1006.3 |
| 20260904131404 | 26 | 284 | 0.0 | 0.0 | 0.03 | 0.05 | 0.05 | 77 | 1006.3 |
| 20260904131318 | 26 | 313 | 0.0 | 0.0 | 0.03 | 0.05 | 0.05 | 77 | 1006.3 |
| 20260904131313 | 26 | 265 | 0.0 | 0.0 | 0.03 | 0.05 | 0.05 | 77 | 1006.1 |
| 20260904131150 | 26 | 318 | 0.0 | 0.0 | 0.03 | 0.05 | 0.05 | 77 | 1006.3 |
| 20260904131103 | 26 | 285 | 0.0 | 0.0 | 0.03 | 0.05 | 0.05 | 78 | 1006.4 |
| 20260904131018 | 26 | 265 | 0.0 | 0.0 | 0.03 | 0.05 | 0.05 | 78 | 1006.4 |
| 20260904131000 | 26 | 265 | 0.0 | 0.0 | 0.03 | 0.05 | 0.05 | 78 | 1006.4 |
| 20260904130915 | 26 | 269 | 0.0 | 0.0 | 0.03 | 0.05 | 0.05 | 79 | 1006.7 |
| 20260904130909 | 26 | 267 | 0.0 | 0.0 | 0.03 | 0.05 | 0.05 | 79 | 1006.5 |
| 20260904130719 | 26 | 309 | 0.0 | 0.0 | 0.03 | 0.05 | 0.05 | 79 | 1006.5 |
| 20260904130714 | 26 | 302 | 0.0 | 0.0 | 0.03 | 0.05 | 0.05 | 79 | 1006.7 |
| 20260904130707 | 26 | 301 | 0.0 | 0.0 | 0.03 | 0.05 | 0.05 | 78 | 1006.7 |
| 20260904130533 | 26 | 289 | 0.0 | 0.0 | 0.00 | 0.03 | 0.03 | 80 | 1006.7 |
| 20260904130459 | 26 | 289 | 0.0 | 0.0 | 0.00 | 0.03 | 0.03 | 80 | 1006.7 |
| 20260904130411 | 26 | 277 | 0.0 | 0.0 | 0.00 | 0.03 | 0.03 | 80 | 1006.8 |
| 20260904130357 | 26 | 303 | 0.0 | 0.0 | 0.00 | 0.03 | 0.03 | 80 | 1006.8 |
| 20260904130305 | 26 | 252 | 0.0 | 0.0 | 0.00 | 0.03 | 0.03 | 80 | 1006.7 |
| 20260904130256 | 26 | 277 | 0.0 | 0.0 | 0.00 | 0.03 | 0.03 | 80 | 1006.8 |
| 20260904130055 | 26 | 307 | 0.0 | 0.0 | 0.00 | 0.03 | 0.03 | 80 | 1006.7 |
| 20260904130018 | 26 | 307 | 0.0 | 0.0 | 0.00 | 0.03 | 0.03 | 80 | 1006.7 |
| 20260904125955 | 26 | 307 | 0.0 | 0.0 | 0.00 | 0.03 | 0.03 | 80 | 1006.7 |
| 20260904125909 | 25 | 293 | 0.0 | 0.0 | 0.00 | 0.03 | 0.03 | 81 | 1008.9 |
| 20260904125853 | 25 | 318 | 0.0 | 0.0 | 0.00 | 0.03 | 0.03 | 80 | 1006.7 |
| 20260904125804 | 25 | 287 | 0.0 | 0.0 | 0.00 | 0.03 | 0.03 | 81 | 1006.6 |
| 20260904125755 | 25 | 292 | 0.0 | 0.0 | 0.00 | 0.03 | 0.03 | 81 | 1008.9 |
| 20260904125606 | 25 | 311 | 0.0 | 0.0 | 0.00 | 0.03 | 0.03 | 80 | 1008.9 |
| 20260904125601 | 25 | 286 | 0.0 | 0.0 | 0.00 | 0.03 | 0.03 | 81 | 1008.9 |
| 20260904125533 | 25 | 307 | 0.0 | 0.0 | 0.00 | 0.03 | 0.03 | 80 | 1008.9 |
| 20260904125409 | 25 | 313 | 0.0 | 0.0 | 0.00 | 0.03 | 0.03 | 82 | 1009.8 |
| 20260904125351 | 25 | 311 | 0.0 | 0.0 | 0.00 | 0.03 | 0.03 | 81 | 1009.4 |
| 20260904125305 | 25 | 318 | 0.0 | 0.0 | 0.00 | 0.03 | 0.03 | 82 | 1009.7 |
| 20260904125254 | 25 | 313 | 0.0 | 0.0 | 0.00 | 0.03 | 0.03 | 82 | 1009.8 |
| 20260904125049 | 25 | 282 | 0.0 | 0.0 | 0.00 | 0.03 | 0.03 | 82 | 1009.8 |
| 20260904125019 | 25 | 271 | 0.0 | 0.0 | 0.00 | 0.03 | 0.03 | 83 | 1009.8 |
| 20260904124949 | 25 | 270 | 0.0 | 0.0 | 0.00 | 0.03 | 0.03 | 83 | 1009.8 |
| 20260904124848 | 25 | 270 | 0.0 | 0.0 | 0.00 | 0.03 | 0.03 | 83 | 1009.8 |
| 20260904124748 | 25 | 261 | 0.0 | 0.0 | 0.00 | 0.03 | 0.03 | 83 | 1009.8 |
| 20260904124649 | 25 | 261 | 0.0 | 0.0 | 0.00 | 0.03 | 0.03 | 83 | 1009.8 |
| 20260904124547 | 25 | 261 | 0.0 | 0.0 | 0.00 | 0.03 | 0.03 | 83 | 1009.8 |
| 20260904124533 | 25 | 261 | 0.0 | 0.0 | 0.00 | 0.03 | 0.03 | 84 | 1009.8 |
| 20260904124447 | 25 | 261 | 0.0 | 0.0 | 0.00 | 0.03 | 0.03 | 85 | 1009.8 |
| 20260904124346 | 25 | 258 | 0.0 | 0.0 | 0.00 | 0.03 | 0.03 | 84 | 1009.8 |
| 20260904124245 | 25 | 258 | 0.0 | 0.0 | 0.00 | 0.03 | 0.03 | 84 | 1009.8 |
| 20260904124146 | 25 | 256 | 0.0 | 0.0 | 0.00 | 0.03 | 0.03 | 84 | 1009.8 |
| 20260904124044 | 25 | 256 | 0.0 | 0.0 | 0.00 | 0.03 | 0.03 | 84 | 1009.9 |
| 20260904124019 | 25 | 263 | 0.0 | 0.0 | 0.00 | 0.03 | 0.03 | 84 | 1009.9 |
| 20260904123943 | 25 | 228 | 0.0 | 0.0 | 0.00 | 0.03 | 0.03 | 84 | 1009.9 |
| 20260904123841 | 25 | 232 | 0.0 | 0.0 | 0.00 | 0.03 | 0.03 | 84 | 1009.9 |
| 20260904123741 | 25 | 355 | 0.0 | 0.0 | 0.00 | 0.03 | 0.03 | 84 | 1009.9 |
| 20260904123641 | 25 | 280 | 0.0 | 0.0 | 0.00 | 0.03 | 0.03 | 84 | 1010.0 |
| 20260904123540 | 25 | 267 | 0.0 | 0.0 | 0.00 | 0.03 | 0.03 | 84 | 1010.0 |
| 20260904123518 | 25 | 267 | 0.0 | 0.0 | 0.00 | 0.03 | 0.03 | 85 | 1010.0 |
| 20260904123440 | 25 | 267 | 0.0 | 0.0 | 0.00 | 0.03 | 0.03 | 85 | 1010.0 |
| 20260904123353 | 25 | 304 | 0.0 | 0.0 | 0.00 | 0.03 | 0.03 | 86 | 1010.1 |
| 20260904123348 | 25 | 309 | 0.0 | 0.0 | 0.00 | 0.03 | 0.03 | 85 | 1010.1 |
| 20260904123144 | 24 | 244 | 0.0 | 0.0 | 0.00 | 0.03 | 0.03 | 87 | 1010.1 |
| 20260904123139 | 24 | 246 | 0.0 | 0.0 | 0.00 | 0.03 | 0.03 | 87 | 1010.1 |
| 20260904123038 | 24 | 271 | 0.0 | 0.0 | 0.00 | 0.03 | 0.03 | 87 | 1010.1 |
| 20260904123018 | 24 | 270 | 0.0 | 0.0 | 0.00 | 0.03 | 0.03 | 87 | 1010.0 |
| 20260904122957 | 24 | 270 | 0.0 | 0.0 | 0.00 | 0.03 | 0.03 | 87 | 1010.0 |
| 20260904122844 | 24 | 270 | 0.0 | 0.0 | 0.00 | 0.03 | 0.03 | 88 | 1010.1 |
| 20260904122643 | 24 | 270 | 0.0 | 0.0 | 0.00 | 0.03 | 0.03 | 88 | 1010.1 |
| 20260904122634 | 24 | 271 | 0.0 | 0.0 | 0.00 | 0.03 | 0.03 | 88 | 1010.1 |
| 20260904122534 | 24 | 265 | 0.0 | 0.0 | 0.00 | 0.03 | 0.03 | 88 | 1010.2 |
| 20260904122518 | 24 | 259 | 0.0 | 0.0 | 0.00 | 0.03 | 0.03 | 89 | 1010.1 |
| 20260904122433 | 24 | 259 | 0.0 | 0.0 | 0.00 | 0.03 | 0.03 | 89 | 1010.1 |
| 20260904122333 | 24 | 290 | 0.0 | 0.0 | 0.00 | 0.03 | 0.03 | 89 | 1010.1 |
| 20260904122233 | 24 | 290 | 0.0 | 0.0 | 0.00 | 0.03 | 0.03 | 89 | 1010.0 |
| 20260904122132 | 24 | 290 | 0.0 | 0.0 | 0.00 | 0.03 | 0.03 | 89 | 1010.0 |
| 20260904122032 | 24 | 290 | 0.0 | 0.0 | 0.00 | 0.03 | 0.03 | 89 | 1010.0 |
| 20260904122018 | 24 | 271 | 0.0 | 0.0 | 0.00 | 0.03 | 0.03 | 89 | 1010.1 |
| 20260904121932 | 24 | 282 | 0.0 | 0.0 | 0.00 | 0.03 | 0.03 | 90 | 1010.1 |
| 20260904121830 | 23 | 250 | 0.0 | 0.0 | 0.00 | 0.03 | 0.03 | 90 | 1010.0 |
| 20260904121730 | 23 | 248 | 0.0 | 0.0 | 0.00 | 0.03 | 0.03 | 91 | 1010.0 |
| 20260904121648 | 23 | 250 | 0.0 | 0.0 | 0.00 | 0.03 | 0.03 | 92 | 1010.0 |
| 20260904121644 | 23 | 256 | 0.0 | 0.0 | 0.00 | 0.03 | 0.03 | 91 | 1009.9 |
| 20260904121637 | 23 | 250 | 0.0 | 0.0 | 0.00 | 0.03 | 0.03 | 92 | 1009.9 |
| 20260904121519 | 23 | 250 | 0.0 | 0.0 | 0.00 | 0.03 | 0.03 | 92 | 1010.1 |
| 20260904121427 | 23 | 250 | 0.0 | 0.0 | 0.00 | 0.03 | 0.03 | 92 | 1010.0 |
| 20260904121340 | 23 | 251 | 0.0 | 0.0 | 0.00 | 0.03 | 0.03 | 93 | 1009.9 |
| 20260904121335 | 23 | 250 | 0.0 | 0.0 | 0.00 | 0.03 | 0.03 | 92 | 1010.0 |
| 20260904121144 | 23 | 240 | 0.0 | 0.0 | 0.00 | 0.03 | 0.03 | 94 | 1009.9 |
| 20260904121134 | 23 | 240 | 0.0 | 0.0 | 0.00 | 0.03 | 0.03 | 93 | 1010.0 |
| 20260904121019 | 23 | 240 | 0.0 | 0.0 | 0.00 | 0.03 | 0.03 | 94 | 1010.1 |
| 20260904120924 | 23 | 240 | 0.0 | 0.0 | 0.00 | 0.03 | 0.03 | 94 | 1010.0 |
| 20260904120824 | 23 | 239 | 0.0 | 0.0 | 0.00 | 0.03 | 0.03 | 94 | 1010.0 |
| 20260904120722 | 23 | 238 | 0.0 | 0.0 | 0.00 | 0.03 | 0.03 | 94 | 1009.9 |
| 20260904120639 | 23 | 238 | 0.0 | 0.0 | 0.00 | 0.03 | 0.03 | 95 | 1010.0 |
| 20260904120622 | 23 | 238 | 0.0 | 0.0 | 0.00 | 0.03 | 0.03 | 95 | 1010.0 |
| 20260904120522 | 23 | 238 | 0.0 | 0.0 | 0.00 | 0.03 | 0.03 | 95 | 1009.9 |
| 20260904120518 | 23 | 238 | 0.0 | 0.0 | 0.00 | 0.03 | 0.03 | 95 | 1010.0 |
| 20260904120421 | 23 | 238 | 0.0 | 0.0 | 0.00 | 0.03 | 0.03 | 95 | 1009.9 |
| 20260904120321 | 23 | 238 | 0.0 | 0.0 | 0.00 | 0.03 | 0.03 | 95 | 1009.9 |
| 20260904120220 | 23 | 238 | 0.0 | 0.0 | 0.00 | 0.03 | 0.03 | 95 | 1009.9 |
| 20260904120153 | 23 | 238 | 0.0 | 0.0 | 0.00 | 0.03 | 0.03 | 95 | 1009.9 |
| 20260904120149 | 22 | 238 | 0.0 | 0.0 | 0.00 | 0.03 | 0.03 | 96 | 1009.9 |
| 20260904120145 | 23 | 238 | 0.0 | 0.0 | 0.00 | 0.03 | 0.03 | 95 | 1009.9 |
| 20260904120138 | 23 | 238 | 0.0 | 0.0 | 0.00 | 0.03 | 0.03 | 95 | 1009.9 |
| 20260904120018 | 22 | 238 | 0.0 | 0.0 | 0.00 | 0.03 | 0.03 | 96 | 1010.0 |
| 20260904115819 | 22 | 237 | 0.0 | 0.0 | 0.00 | 0.03 | 0.03 | 96 | 1009.9 |
| 20260904115716 | 22 | 237 | 0.0 | 0.0 | 0.00 | 0.03 | 0.03 | 96 | 1009.8 |
| 20260904115635 | 22 | 237 | 0.0 | 0.0 | 0.00 | 0.03 | 0.03 | 96 | 1009.9 |
| 20260904115615 | 22 | 237 | 0.0 | 0.0 | 0.00 | 0.03 | 0.03 | 96 | 1009.9 |
| 20260904115518 | 22 | 237 | 0.0 | 0.0 | 0.00 | 0.03 | 0.03 | 96 | 1010.0 |
| 20260904115515 | 22 | 237 | 0.0 | 0.0 | 0.00 | 0.03 | 0.03 | 96 | 1009.8 |
| 20260904115415 | 22 | 237 | 0.0 | 0.0 | 0.00 | 0.03 | 0.03 | 96 | 1009.9 |
| 20260904115313 | 22 | 237 | 0.0 | 0.0 | 0.00 | 0.03 | 0.03 | 96 | 1009.9 |
| 20260904115213 | 22 | 237 | 0.0 | 0.0 | 0.00 | 0.03 | 0.03 | 96 | 1009.9 |
| 20260904115135 | 22 | 237 | 0.0 | 0.0 | 0.00 | 0.03 | 0.03 | 96 | 1010.0 |
| 20260904115112 | 22 | 237 | 0.0 | 0.0 | 0.00 | 0.03 | 0.03 | 96 | 1010.0 |
| 20260904115018 | 22 | 237 | 0.0 | 0.0 | 0.00 | 0.03 | 0.03 | 96 | 1010.1 |
| 20260904115012 | 22 | 237 | 0.0 | 0.0 | 0.00 | 0.03 | 0.03 | 96 | 1010.0 |
| 20260904114912 | 22 | 237 | 0.0 | 0.0 | 0.00 | 0.03 | 0.03 | 96 | 1010.0 |
| 20260904114825 | 22 | 237 | 0.0 | 0.0 | 0.00 | 0.03 | 0.03 | 96 | 1010.1 |
| 20260904114820 | 22 | 237 | 0.0 | 0.0 | 0.00 | 0.03 | 0.03 | 96 | 1010.0 |
| 20260904114610 | 22 | 237 | 0.0 | 0.0 | 0.00 | 0.03 | 0.03 | 96 | 1010.1 |
| 20260904114518 | 22 | 267 | 0.0 | 0.0 | 0.00 | 0.03 | 0.03 | 96 | 1010.2 |
| 20260904114510 | 22 | 267 | 0.0 | 0.0 | 0.00 | 0.03 | 0.03 | 96 | 1010.1 |
| 20260904114409 | 22 | 267 | 0.0 | 0.0 | 0.00 | 0.03 | 0.03 | 96 | 1010.1 |
| 20260904114309 | 22 | 267 | 0.0 | 0.0 | 0.00 | 0.03 | 0.03 | 96 | 1010.1 |
| 20260904114209 | 22 | 268 | 0.0 | 0.0 | 0.00 | 0.03 | 0.03 | 96 | 1010.1 |
| 20260904114121 | 21 | 268 | 0.0 | 0.0 | 0.00 | 0.03 | 0.03 | 96 | 1010.0 |
| 20260904114115 | 21 | 268 | 0.0 | 0.0 | 0.00 | 0.03 | 0.03 | 96 | 1010.0 |
| 20260904114033 | 21 | 268 | 0.0 | 0.0 | 0.00 | 0.03 | 0.03 | 96 | 1010.2 |
| 20260904113906 | 21 | 268 | 0.0 | 0.0 | 0.00 | 0.03 | 0.03 | 96 | 1010.1 |
| 20260904113858 | 21 | 269 | 0.0 | 0.0 | 0.00 | 0.03 | 0.03 | 96 | 1010.1 |
| 20260904113805 | 21 | 268 | 0.0 | 0.0 | 0.00 | 0.03 | 0.03 | 96 | 1010.0 |
| 20260904113741 | 21 | 269 | 0.0 | 0.0 | 0.00 | 0.03 | 0.03 | 96 | 1010.1 |
| 20260904113604 | 21 | 269 | 0.0 | 0.0 | 0.00 | 0.03 | 0.03 | 96 | 1010.1 |
| 20260904113518 | 21 | 269 | 0.0 | 0.0 | 0.00 | 0.03 | 0.03 | 96 | 1010.2 |
| 20260904113504 | 21 | 269 | 0.0 | 0.0 | 0.00 | 0.03 | 0.03 | 96 | 1010.1 |
| 20260904113419 | 21 | 269 | 0.0 | 0.0 | 0.00 | 0.03 | 0.03 | 96 | 1010.1 |
| 20260904113413 | 21 | 269 | 0.0 | 0.0 | 0.00 | 0.03 | 0.03 | 96 | 1010.1 |
| 20260904113204 | 21 | 269 | 0.0 | 0.0 | 0.00 | 0.03 | 0.03 | 96 | 1010.1 |
| 20260904113103 | 21 | 269 | 0.0 | 0.0 | 0.00 | 0.03 | 0.03 | 96 | 1010.1 |
| 20260904113034 | 21 | 269 | 0.0 | 0.0 | 0.00 | 0.03 | 0.03 | 96 | 1010.2 |
| 20260904113024 | 21 | 269 | 0.0 | 0.0 | 0.00 | 0.03 | 0.03 | 96 | 1010.1 |
| 20260904112911 | 21 | 269 | 0.0 | 0.0 | 0.00 | 0.03 | 0.03 | 96 | 1010.1 |
| 20260904112700 | 21 | 269 | 0.0 | 0.0 | 0.00 | 0.03 | 0.03 | 96 | 1010.2 |
| 20260904112629 | 21 | 269 | 0.0 | 0.0 | 0.00 | 0.03 | 0.03 | 96 | 1010.2 |
| 20260904112600 | 21 | 269 | 0.0 | 0.0 | 0.00 | 0.03 | 0.03 | 96 | 1010.1 |
| 20260904112518 | 21 | 269 | 0.0 | 0.0 | 0.00 | 0.03 | 0.03 | 96 | 1010.2 |
| 20260904112459 | 21 | 269 | 0.0 | 0.0 | 0.00 | 0.03 | 0.03 | 96 | 1010.1 |
| 20260904112359 | 21 | 269 | 0.0 | 0.0 | 0.00 | 0.03 | 0.03 | 96 | 1010.1 |
| 20260904112259 | 21 | 269 | 0.0 | 0.0 | 0.00 | 0.03 | 0.03 | 96 | 1010.1 |
| 20260904112206 | 21 | 269 | 0.0 | 0.0 | 0.00 | 0.03 | 0.03 | 96 | 1010.1 |
| 20260904112159 | 21 | 269 | 0.0 | 0.0 | 0.00 | 0.03 | 0.03 | 96 | 1010.1 |
| 20260904112048 | 21 | 269 | 0.0 | 0.0 | 0.00 | 0.03 | 0.03 | 96 | 1010.0 |
| 20260904112042 | 21 | 269 | 0.0 | 0.0 | 0.00 | 0.03 | 0.03 | 96 | 1010.1 |
| 20260904112018 | 21 | 269 | 0.0 | 0.0 | 0.00 | 0.03 | 0.03 | 96 | 1010.2 |
| 20260904111928 | 21 | 269 | 0.0 | 0.0 | 0.00 | 0.03 | 0.03 | 96 | 1010.1 |
| 20260904111810 | 21 | 269 | 0.0 | 0.0 | 0.00 | 0.03 | 0.03 | 96 | 1010.0 |
| 20260904111519 | 21 | 269 | 0.0 | 0.0 | 0.00 | 0.03 | 0.03 | 96 | 1010.1 |
| 20260904111456 | 21 | 269 | 0.0 | 0.0 | 0.00 | 0.03 | 0.03 | 96 | 1010.0 |
| 20260904111354 | 21 | 269 | 0.0 | 0.0 | 0.00 | 0.03 | 0.03 | 96 | 1009.9 |
| 20260904111254 | 21 | 269 | 0.0 | 0.0 | 0.00 | 0.03 | 0.03 | 96 | 1009.9 |
| 20260904111213 | 21 | 269 | 0.0 | 0.0 | 0.00 | 0.03 | 0.03 | 96 | 1009.9 |
| 20260904111102 | 21 | 269 | 0.0 | 0.0 | 0.00 | 0.03 | 0.03 | 96 | 1009.9 |
| 20260904111048 | 21 | 269 | 0.0 | 0.0 | 0.00 | 0.03 | 0.03 | 96 | 1010.0 |
| 20260904110852 | 21 | 269 | 0.0 | 0.0 | 0.00 | 0.03 | 0.03 | 96 | 1009.8 |
| 20260904110752 | 21 | 269 | 0.0 | 0.0 | 0.00 | 0.03 | 0.03 | 96 | 1009.8 |
| 20260904110624 | 21 | 269 | 0.0 | 0.0 | 0.00 | 0.03 | 0.03 | 96 | 1009.8 |
| 20260904110551 | 21 | 269 | 0.0 | 0.0 | 0.00 | 0.03 | 0.03 | 96 | 1009.8 |
| 20260904110518 | 21 | 269 | 0.0 | 0.0 | 0.00 | 0.03 | 0.03 | 96 | 1009.9 |
| 20260904110449 | 21 | 269 | 0.0 | 0.0 | 0.00 | 0.03 | 0.03 | 96 | 1009.8 |
| 20260904110350 | 21 | 269 | 0.0 | 0.0 | 0.00 | 0.03 | 0.03 | 96 | 1009.8 |
| 20260904110343 | 21 | 269 | 0.0 | 0.0 | 0.00 | 0.03 | 0.03 | 96 | 1009.6 |
| 20260904110249 | 21 | 269 | 0.0 | 0.0 | 0.00 | 0.03 | 0.03 | 96 | 1009.7 |
| 20260904110232 | 21 | 269 | 0.0 | 0.0 | 0.00 | 0.03 | 0.03 | 96 | 1009.6 |
| 20260904110049 | 21 | 269 | 0.0 | 0.0 | 0.00 | 0.03 | 0.03 | 96 | 1009.6 |
| 20260904110018 | 21 | 269 | 0.0 | 0.0 | 0.00 | 0.03 | 0.03 | 96 | 1009.7 |
| 20260904105949 | 21 | 269 | 0.0 | 0.0 | 0.00 | 0.03 | 0.03 | 96 | 1009.6 |
| 20260904105847 | 21 | 269 | 0.0 | 0.0 | 0.00 | 0.03 | 0.03 | 96 | 1009.5 |
| 20260904105746 | 21 | 269 | 0.0 | 0.0 | 0.00 | 0.03 | 0.03 | 96 | 1009.5 |
| 20260904105623 | 21 | 269 | 0.0 | 0.0 | 0.00 | 0.03 | 0.03 | 96 | 1009.5 |
| 20260904105545 | 21 | 269 | 0.0 | 0.0 | 0.00 | 0.03 | 0.03 | 96 | 1009.5 |
| 20260904105519 | 21 | 269 | 0.0 | 0.0 | 0.00 | 0.03 | 0.03 | 96 | 1009.6 |
| 20260904105445 | 21 | 269 | 0.0 | 0.0 | 0.00 | 0.03 | 0.03 | 96 | 1009.5 |
| 20260904105359 | 21 | 269 | 0.0 | 0.0 | 0.00 | 0.03 | 0.03 | 95 | 1009.5 |
| 20260904105354 | 21 | 269 | 0.0 | 0.0 | 0.00 | 0.03 | 0.03 | 96 | 1009.4 |
| 20260904105144 | 21 | 269 | 0.0 | 0.0 | 0.00 | 0.03 | 0.03 | 95 | 1009.4 |
| 20260904105123 | 21 | 269 | 0.0 | 0.0 | 0.00 | 0.03 | 0.03 | 95 | 1009.4 |
| 20260904105042 | 21 | 269 | 0.0 | 0.0 | 0.00 | 0.03 | 0.03 | 95 | 1009.4 |
| 20260904105018 | 21 | 269 | 0.0 | 0.0 | 0.00 | 0.03 | 0.03 | 95 | 1009.4 |
| 20260904104942 | 21 | 269 | 0.0 | 0.0 | 0.00 | 0.03 | 0.03 | 95 | 1009.3 |
| 20260904104843 | 21 | 269 | 0.0 | 0.0 | 0.00 | 0.03 | 0.03 | 95 | 1009.3 |
| 20260904104741 | 21 | 269 | 0.0 | 0.0 | 0.00 | 0.03 | 0.03 | 95 | 1009.3 |
| 20260904104659 | 21 | 269 | 0.0 | 0.0 | 0.00 | 0.03 | 0.03 | 95 | 1009.3 |
| 20260904104647 | 21 | 269 | 0.0 | 0.0 | 0.00 | 0.03 | 0.03 | 95 | 1009.2 |
| 20260904104519 | 21 | 269 | 0.0 | 0.0 | 0.00 | 0.03 | 0.03 | 95 | 1009.4 |
| 20260904104439 | 21 | 269 | 0.0 | 0.0 | 0.00 | 0.03 | 0.03 | 95 | 1009.3 |
| 20260904104337 | 21 | 269 | 0.0 | 0.0 | 0.00 | 0.03 | 0.03 | 95 | 1009.3 |
| 20260904104237 | 21 | 269 | 0.0 | 0.0 | 0.00 | 0.03 | 0.03 | 95 | 1009.3 |
| 20260904104122 | 21 | 269 | 0.0 | 0.0 | 0.00 | 0.03 | 0.03 | 95 | 1009.3 |
| 20260904104049 | 21 | 269 | 0.0 | 0.0 | 0.00 | 0.03 | 0.03 | 95 | 1009.4 |
| 20260904104036 | 21 | 269 | 0.0 | 0.0 | 0.00 | 0.03 | 0.03 | 95 | 1009.4 |
| 20260904103938 | 21 | 269 | 0.0 | 0.0 | 0.00 | 0.03 | 0.03 | 95 | 1009.3 |
| 20260904103836 | 21 | 269 | 0.0 | 0.0 | 0.00 | 0.03 | 0.03 | 95 | 1009.3 |
| 20260904103736 | 21 | 269 | 0.0 | 0.0 | 0.00 | 0.03 | 0.03 | 95 | 1009.2 |
| 20260904103620 | 21 | 269 | 0.0 | 0.0 | 0.00 | 0.03 | 0.03 | 95 | 1009.2 |
| 20260904103535 | 21 | 269 | 0.0 | 0.0 | 0.00 | 0.03 | 0.03 | 95 | 1009.2 |
| 20260904103519 | 21 | 269 | 0.0 | 0.0 | 0.00 | 0.03 | 0.03 | 95 | 1009.3 |
| 20260904103434 | 21 | 269 | 0.0 | 0.0 | 0.00 | 0.03 | 0.03 | 95 | 1009.2 |
| 20260904103333 | 21 | 269 | 0.0 | 0.0 | 0.00 | 0.03 | 0.03 | 95 | 1009.2 |
| 20260904103246 | 21 | 269 | 0.0 | 0.0 | 0.00 | 0.03 | 0.03 | 95 | 1009.2 |
| 20260904103242 | 21 | 269 | 0.0 | 0.0 | 0.00 | 0.03 | 0.03 | 95 | 1009.1 |
| 20260904103120 | 21 | 269 | 0.0 | 0.0 | 0.00 | 0.03 | 0.03 | 95 | 1009.2 |
| 20260904103032 | 21 | 269 | 0.0 | 0.0 | 0.00 | 0.03 | 0.03 | 95 | 1009.2 |
| 20260904103019 | 21 | 269 | 0.0 | 0.0 | 0.00 | 0.03 | 0.03 | 95 | 1009.2 |
| 20260904102932 | 21 | 269 | 0.0 | 0.0 | 0.00 | 0.03 | 0.03 | 95 | 1009.1 |
| 20260904102832 | 21 | 269 | 0.0 | 0.0 | 0.00 | 0.03 | 0.03 | 95 | 1009.1 |
| 20260904102730 | 21 | 269 | 0.0 | 0.0 | 0.00 | 0.03 | 0.03 | 95 | 1009.1 |
| 20260904102703 | 21 | 269 | 0.0 | 0.0 | 0.00 | 0.03 | 0.03 | 95 | 1009.1 |
| 20260904102659 | 21 | 269 | 0.0 | 0.0 | 0.00 | 0.03 | 0.03 | 95 | 1009.1 |
| 20260904102645 | 21 | 269 | 0.0 | 0.0 | 0.00 | 0.03 | 0.03 | 95 | 1009.1 |
| 20260904102548 | 21 | 269 | 0.0 | 0.0 | 0.00 | 0.03 | 0.03 | 95 | 1009.2 |
| 20260904102329 | 21 | 269 | 0.0 | 0.0 | 0.00 | 0.03 | 0.03 | 95 | 1009.1 |
| 20260904102229 | 21 | 269 | 0.0 | 0.0 | 0.00 | 0.03 | 0.03 | 95 | 1009.1 |
| 20260904102119 | 21 | 269 | 0.0 | 0.0 | 0.00 | 0.03 | 0.03 | 95 | 1009.1 |
| 20260904102034 | 21 | 269 | 0.0 | 0.0 | 0.00 | 0.03 | 0.03 | 95 | 1009.2 |
| 20260904102028 | 21 | 269 | 0.0 | 0.0 | 0.00 | 0.03 | 0.03 | 95 | 1009.1 |
| 20260904101926 | 21 | 269 | 0.0 | 0.0 | 0.00 | 0.03 | 0.03 | 95 | 1009.1 |
| 20260904101841 | 21 | 269 | 0.0 | 0.0 | 0.00 | 0.03 | 0.03 | 95 | 1009.0 |
| 20260904101826 | 21 | 269 | 0.0 | 0.0 | 0.00 | 0.03 | 0.03 | 95 | 1009.1 |
| 20260904101738 | 21 | 269 | 0.0 | 0.0 | 0.00 | 0.03 | 0.03 | 95 | 1009.1 |
| 20260904101728 | 21 | 269 | 0.0 | 0.0 | 0.00 | 0.03 | 0.03 | 95 | 1009.0 |
| 20260904101524 | 21 | 269 | 0.0 | 0.0 | 0.00 | 0.03 | 0.03 | 95 | 1009.0 |
| 20260904101519 | 21 | 269 | 0.0 | 0.0 | 0.00 | 0.03 | 0.03 | 95 | 1009.1 |
| 20260904101424 | 21 | 269 | 0.0 | 0.0 | 0.00 | 0.03 | 0.03 | 95 | 1009.0 |
| 20260904101324 | 21 | 269 | 0.0 | 0.0 | 0.00 | 0.03 | 0.03 | 95 | 1009.0 |
| 20260904101223 | 21 | 269 | 0.0 | 0.0 | 0.00 | 0.03 | 0.03 | 95 | 1009.1 |
| 20260904101119 | 21 | 269 | 0.0 | 0.0 | 0.00 | 0.03 | 0.03 | 95 | 1009.1 |
| 20260904101022 | 21 | 269 | 0.0 | 0.0 | 0.00 | 0.03 | 0.03 | 95 | 1009.1 |
| 20260904101019 | 21 | 269 | 0.0 | 0.0 | 0.00 | 0.03 | 0.03 | 95 | 1009.2 |
| 20260904100922 | 21 | 269 | 0.0 | 0.0 | 0.00 | 0.03 | 0.03 | 95 | 1009.1 |
| 20260904100821 | 21 | 269 | 0.0 | 0.0 | 0.00 | 0.03 | 0.03 | 95 | 1009.2 |
| 20260904100721 | 21 | 269 | 0.0 | 0.0 | 0.00 | 0.03 | 0.03 | 95 | 1009.2 |
| 20260904100622 | 21 | 269 | 0.0 | 0.0 | 0.00 | 0.03 | 0.03 | 95 | 1009.2 |
| 20260904100520 | 21 | 269 | 0.0 | 0.0 | 0.00 | 0.03 | 0.03 | 95 | 1009.2 |
| 20260904100420 | 21 | 269 | 0.0 | 0.0 | 0.00 | 0.03 | 0.03 | 95 | 1009.2 |
| 20260904100319 | 21 | 269 | 0.0 | 0.0 | 0.00 | 0.03 | 0.03 | 95 | 1009.3 |
| 20260904100219 | 21 | 269 | 0.0 | 0.0 | 0.00 | 0.03 | 0.03 | 95 | 1009.2 |
| 20260904100121 | 21 | 269 | 0.0 | 0.0 | 0.00 | 0.03 | 0.03 | 95 | 1009.3 |
| 20260904100019 | 22 | 269 | 0.0 | 0.0 | 0.00 | 0.03 | 0.03 | 95 | 1009.3 |
| 20260904095919 | 22 | 269 | 0.0 | 0.0 | 0.00 | 0.03 | 0.03 | 95 | 1009.3 |
| 20260904095831 | 22 | 269 | 0.0 | 0.0 | 0.00 | 0.03 | 0.03 | 95 | 1009.3 |
| 20260904095827 | 22 | 269 | 0.0 | 0.0 | 0.00 | 0.03 | 0.03 | 95 | 1009.3 |
| 20260904095619 | 22 | 269 | 0.0 | 0.0 | 0.00 | 0.03 | 0.03 | 95 | 1009.3 |
| 20260904095536 | 22 | 269 | 0.0 | 0.0 | 0.00 | 0.03 | 0.03 | 95 | 1009.3 |
| 20260904095519 | 22 | 269 | 0.0 | 0.0 | 0.00 | 0.03 | 0.03 | 95 | 1009.4 |
| 20260904095423 | 22 | 269 | 0.0 | 0.0 | 0.00 | 0.03 | 0.03 | 95 | 1009.3 |
| 20260904095214 | 22 | 269 | 0.0 | 0.0 | 0.00 | 0.03 | 0.03 | 95 | 1009.3 |
| 20260904095131 | 22 | 269 | 0.0 | 0.0 | 0.00 | 0.03 | 0.03 | 95 | 1009.2 |
| 20260904095123 | 22 | 269 | 0.0 | 0.0 | 0.00 | 0.03 | 0.03 | 95 | 1009.2 |
| 20260904095019 | 22 | 269 | 0.0 | 0.0 | 0.00 | 0.03 | 0.03 | 95 | 1009.4 |
| 20260904094912 | 22 | 269 | 0.0 | 0.0 | 0.00 | 0.03 | 0.03 | 95 | 1009.3 |
| 20260904094825 | 22 | 269 | 0.0 | 0.0 | 0.00 | 0.03 | 0.03 | 95 | 1009.3 |
| 20260904094821 | 22 | 269 | 0.0 | 0.0 | 0.00 | 0.03 | 0.03 | 95 | 1009.3 |
| 20260904094612 | 22 | 269 | 0.0 | 0.0 | 0.00 | 0.03 | 0.03 | 95 | 1009.3 |
| 20260904094519 | 22 | 269 | 0.0 | 0.0 | 0.00 | 0.03 | 0.03 | 95 | 1009.4 |
| 20260904094511 | 22 | 269 | 0.0 | 0.0 | 0.00 | 0.03 | 0.03 | 95 | 1009.3 |
| 20260904094409 | 22 | 269 | 0.0 | 0.0 | 0.00 | 0.03 | 0.03 | 95 | 1009.3 |
| 20260904094307 | 22 | 269 | 0.0 | 0.0 | 0.00 | 0.03 | 0.03 | 95 | 1009.3 |
| 20260904094207 | 22 | 269 | 0.0 | 0.0 | 0.00 | 0.03 | 0.03 | 95 | 1009.3 |
| 20260904094106 | 22 | 269 | 0.0 | 0.0 | 0.00 | 0.03 | 0.03 | 95 | 1009.3 |
| 20260904094019 | 22 | 275 | 0.0 | 0.0 | 0.00 | 0.03 | 0.03 | 95 | 1009.4 |
| 20260904094007 | 22 | 275 | 0.0 | 0.0 | 0.00 | 0.03 | 0.03 | 95 | 1009.2 |
| 20260904093906 | 22 | 275 | 0.0 | 0.0 | 0.00 | 0.03 | 0.03 | 95 | 1009.3 |
| 20260904093805 | 22 | 275 | 0.0 | 0.0 | 0.00 | 0.05 | 0.03 | 95 | 1009.3 |
| 20260904093705 | 22 | 275 | 0.0 | 0.0 | 0.00 | 0.05 | 0.03 | 95 | 1009.2 |
| 20260904093605 | 22 | 275 | 0.0 | 0.0 | 0.00 | 0.05 | 0.03 | 95 | 1009.2 |
| 20260904093519 | 22 | 275 | 0.0 | 0.0 | 0.00 | 0.05 | 0.03 | 95 | 1009.3 |
| 20260904093503 | 22 | 275 | 0.0 | 0.0 | 0.00 | 0.05 | 0.03 | 95 | 1009.2 |
| 20260904093404 | 22 | 275 | 0.0 | 0.0 | 0.00 | 0.05 | 0.03 | 95 | 1009.2 |
| 20260904093303 | 22 | 275 | 0.0 | 0.0 | 0.00 | 0.05 | 0.03 | 95 | 1009.2 |
| 20260904093203 | 22 | 275 | 0.0 | 0.0 | 0.00 | 0.05 | 0.03 | 96 | 1009.2 |
| 20260904093112 | 22 | 275 | 0.0 | 0.0 | 0.00 | 0.05 | 0.03 | 96 | 1009.2 |
| 20260904093102 | 22 | 275 | 0.0 | 0.0 | 0.00 | 0.05 | 0.03 | 96 | 1009.1 |
| 20260904093019 | 22 | 275 | 0.0 | 0.0 | 0.00 | 0.05 | 0.03 | 96 | 1009.2 |
| 20260904093002 | 22 | 275 | 0.0 | 0.0 | 0.00 | 0.05 | 0.03 | 96 | 1009.1 |
| 20260904092902 | 22 | 275 | 0.0 | 0.0 | 0.00 | 0.05 | 0.03 | 96 | 1009.1 |
| 20260904092801 | 22 | 275 | 0.0 | 0.0 | 0.00 | 0.05 | 0.03 | 96 | 1009.2 |
| 20260904092700 | 22 | 275 | 0.0 | 0.0 | 0.00 | 0.05 | 0.03 | 96 | 1009.2 |
| 20260904092610 | 22 | 275 | 0.0 | 0.0 | 0.00 | 0.05 | 0.03 | 96 | 1009.2 |
| 20260904092559 | 22 | 275 | 0.0 | 0.0 | 0.00 | 0.05 | 0.03 | 96 | 1009.2 |
| 20260904092518 | 22 | 275 | 0.0 | 0.0 | 0.00 | 0.05 | 0.03 | 96 | 1009.4 |
| 20260904092459 | 22 | 275 | 0.0 | 0.0 | 0.00 | 0.05 | 0.03 | 96 | 1009.2 |
| 20260904092358 | 22 | 275 | 0.0 | 0.0 | 0.00 | 0.05 | 0.03 | 96 | 1009.2 |
| 20260904092258 | 22 | 275 | 0.0 | 0.0 | 0.00 | 0.08 | 0.03 | 96 | 1009.3 |
| 20260904092157 | 22 | 275 | 0.0 | 0.0 | 0.00 | 0.08 | 0.03 | 96 | 1009.3 |
| 20260904092110 | 22 | 275 | 0.0 | 0.0 | 0.00 | 0.08 | 0.03 | 96 | 1009.3 |
| 20260904092057 | 22 | 275 | 0.0 | 0.0 | 0.00 | 0.08 | 0.03 | 96 | 1009.3 |
| 20260904092019 | 22 | 275 | 0.0 | 0.0 | 0.00 | 0.08 | 0.03 | 96 | 1009.5 |
| 20260904091956 | 22 | 275 | 0.0 | 0.0 | 0.00 | 0.08 | 0.03 | 96 | 1009.3 |
| 20260904091856 | 22 | 275 | 0.0 | 0.0 | 0.00 | 0.08 | 0.03 | 96 | 1009.3 |
| 20260904091833 | 22 | 275 | 0.0 | 0.0 | 0.00 | 0.10 | 0.03 | 96 | 1009.3 |
| 20260904091828 | 22 | 275 | 0.0 | 0.0 | 0.00 | 0.08 | 0.03 | 96 | 1009.3 |
| 20260904091556 | 22 | 275 | 0.0 | 0.0 | 0.00 | 0.10 | 0.03 | 96 | 1009.3 |
| 20260904091550 | 22 | 275 | 0.0 | 0.0 | 0.00 | 0.10 | 0.03 | 96 | 1009.4 |
| 20260904091543 | 22 | 275 | 0.0 | 0.0 | 0.00 | 0.10 | 0.03 | 96 | 1009.3 |
| 20260904091533 | 22 | 275 | 0.0 | 0.0 | 0.00 | 0.10 | 0.03 | 96 | 1009.5 |
| 20260904091431 | 22 | 275 | 0.0 | 0.0 | 0.00 | 0.13 | 0.03 | 96 | 1009.4 |
| 20260904091426 | 22 | 275 | 0.0 | 0.0 | 0.00 | 0.10 | 0.03 | 96 | 1009.4 |
| 20260904091158 | 22 | 275 | 0.0 | 0.0 | 0.00 | 0.13 | 0.03 | 96 | 1009.4 |
| 20260904091019 | 22 | 275 | 0.0 | 0.0 | 0.00 | 0.13 | 0.03 | 96 | 1009.6 |
| 20260904090951 | 22 | 275 | 0.0 | 0.0 | 0.00 | 0.13 | 0.03 | 96 | 1009.4 |
| 20260904090851 | 22 | 275 | 0.0 | 0.0 | 0.00 | 0.13 | 0.03 | 96 | 1009.4 |
| 20260904090751 | 22 | 275 | 0.0 | 0.0 | 0.00 | 0.15 | 0.03 | 96 | 1009.4 |
| 20260904090650 | 22 | 275 | 0.0 | 0.0 | 0.00 | 0.15 | 0.03 | 96 | 1009.4 |
| 20260904090609 | 22 | 275 | 0.0 | 0.0 | 0.00 | 0.15 | 0.03 | 96 | 1009.4 |
| 20260904090549 | 22 | 275 | 0.0 | 0.0 | 0.00 | 0.15 | 0.03 | 96 | 1009.4 |
| 20260904090518 | 22 | 275 | 0.0 | 0.0 | 0.00 | 0.15 | 0.03 | 96 | 1009.5 |
| 20260904090449 | 22 | 275 | 0.0 | 0.0 | 0.00 | 0.15 | 0.03 | 96 | 1009.3 |
| 20260904090416 | 22 | 275 | 0.0 | 0.0 | 0.00 | 0.18 | 0.03 | 96 | 1009.3 |
| 20260904090349 | 22 | 275 | 0.0 | 0.0 | 0.00 | 0.15 | 0.03 | 96 | 1009.3 |
| 20260904090317 | 22 | 275 | 0.0 | 0.0 | 0.00 | 0.18 | 0.03 | 96 | 1009.3 |
| 20260904090312 | 22 | 275 | 0.0 | 0.0 | 0.00 | 0.15 | 0.03 | 96 | 1009.3 |
| 20260904090303 | 22 | 275 | 0.0 | 0.0 | 0.00 | 0.18 | 0.03 | 96 | 1009.3 |
| 20260904090019 | 22 | 275 | 0.0 | 0.0 | 0.00 | 0.18 | 0.03 | 96 | 1009.5 |
| 20260904085947 | 22 | 275 | 0.0 | 0.0 | 0.00 | 0.18 | 0.03 | 96 | 1009.3 |
| 20260904085846 | 22 | 254 | 0.0 | 0.0 | 0.00 | 0.20 | 0.03 | 96 | 1009.2 |
| 20260904085746 | 22 | 254 | 0.0 | 0.0 | 0.00 | 0.20 | 0.03 | 96 | 1009.2 |
| 20260904085645 | 22 | 254 | 0.0 | 0.0 | 0.00 | 0.20 | 0.03 | 96 | 1009.2 |
| 20260904085608 | 22 | 254 | 0.0 | 0.0 | 0.00 | 0.20 | 0.03 | 96 | 1009.2 |
| 20260904085545 | 22 | 254 | 0.0 | 0.0 | 0.00 | 0.20 | 0.03 | 96 | 1009.2 |
| 20260904085519 | 22 | 254 | 0.0 | 0.0 | 0.00 | 0.20 | 0.03 | 96 | 1009.4 |
| 20260904085444 | 22 | 254 | 0.0 | 0.0 | 0.00 | 0.20 | 0.03 | 96 | 1009.2 |
| 20260904085344 | 22 | 263 | 0.0 | 0.0 | 0.00 | 0.23 | 0.03 | 96 | 1009.2 |
| 20260904085244 | 22 | 263 | 0.0 | 0.0 | 0.00 | 0.23 | 0.03 | 96 | 1009.2 |
| 20260904085142 | 22 | 263 | 0.0 | 0.0 | 0.00 | 0.23 | 0.03 | 96 | 1009.2 |
| 20260904085108 | 22 | 263 | 0.0 | 0.0 | 0.00 | 0.23 | 0.03 | 96 | 1009.2 |
| 20260904085054 | 22 | 263 | 0.0 | 0.0 | 0.00 | 0.25 | 0.03 | 96 | 1009.2 |
| 20260904085050 | 22 | 263 | 0.0 | 0.0 | 0.00 | 0.23 | 0.03 | 96 | 1009.2 |
| 20260904085019 | 22 | 263 | 0.0 | 0.0 | 0.00 | 0.25 | 0.03 | 96 | 1009.4 |
| 20260904084841 | 22 | 263 | 0.0 | 0.0 | 0.00 | 0.25 | 0.03 | 96 | 1009.2 |
| 20260904084740 | 22 | 263 | 0.0 | 0.0 | 0.00 | 0.25 | 0.03 | 96 | 1009.2 |
| 20260904084640 | 22 | 263 | 0.0 | 0.0 | 0.00 | 0.25 | 0.03 | 96 | 1009.2 |
| 20260904084605 | 22 | 263 | 0.0 | 0.0 | 0.00 | 0.25 | 0.03 | 96 | 1009.2 |
| 20260904084539 | 23 | 263 | 0.0 | 0.0 | 0.00 | 0.25 | 0.03 | 96 | 1009.2 |
| 20260904084518 | 23 | 263 | 0.0 | 0.0 | 0.00 | 0.25 | 0.03 | 96 | 1009.4 |
| 20260904084440 | 22 | 263 | 0.0 | 0.0 | 0.00 | 0.25 | 0.03 | 96 | 1009.2 |
| 20260904084341 | 23 | 263 | 0.0 | 0.0 | 0.00 | 0.25 | 0.03 | 96 | 1009.2 |
| 20260904084239 | 23 | 263 | 0.0 | 0.0 | 0.00 | 0.25 | 0.03 | 96 | 1009.2 |
| 20260904084139 | 23 | 263 | 0.0 | 0.0 | 0.00 | 0.25 | 0.03 | 96 | 1009.2 |
| 20260904084109 | 23 | 263 | 0.0 | 0.0 | 0.00 | 0.25 | 0.03 | 96 | 1009.2 |
| 20260904084105 | 23 | 263 | 0.0 | 0.0 | 0.00 | 0.25 | 0.03 | 96 | 1009.2 |
| 20260904084059 | 23 | 262 | 0.0 | 0.0 | 0.00 | 0.25 | 0.03 | 96 | 1009.1 |
| 20260904084054 | 23 | 263 | 0.0 | 0.0 | 0.00 | 0.25 | 0.03 | 96 | 1009.2 |
| 20260904084019 | 23 | 263 | 0.0 | 0.0 | 0.00 | 0.25 | 0.03 | 96 | 1009.4 |
| 20260904083940 | 23 | 263 | 0.0 | 0.0 | 0.00 | 0.25 | 0.03 | 96 | 1009.2 |
| 20260904083931 | 23 | 263 | 0.0 | 0.0 | 0.00 | 0.25 | 0.03 | 96 | 1009.2 |
| 20260904083548 | 23 | 262 | 0.0 | 0.0 | 0.00 | 0.28 | 0.03 | 96 | 1009.4 |
| 20260904083543 | 23 | 262 | 0.0 | 0.0 | 0.00 | 0.28 | 0.03 | 96 | 1009.2 |
| 20260904083355 | 23 | 267 | 0.0 | 0.0 | 0.00 | 0.28 | 0.03 | 96 | 1009.2 |
| 20260904083241 | 23 | 267 | 0.0 | 0.0 | 0.00 | 0.28 | 0.03 | 96 | 1009.3 |
| 20260904083104 | 23 | 267 | 0.0 | 0.0 | 0.00 | 0.28 | 0.03 | 96 | 1009.3 |
| 20260904083032 | 23 | 267 | 0.0 | 0.0 | 0.00 | 0.28 | 0.03 | 96 | 1009.3 |
| 20260904083018 | 23 | 267 | 0.0 | 0.0 | 0.00 | 0.28 | 0.03 | 96 | 1009.5 |
| 20260904082932 | 23 | 267 | 0.0 | 0.0 | 0.00 | 0.28 | 0.03 | 96 | 1009.3 |
| 20260904082831 | 23 | 264 | 0.0 | 0.0 | 0.00 | 0.28 | 0.03 | 96 | 1009.3 |
| 20260904082730 | 23 | 263 | 0.0 | 0.0 | 0.00 | 0.30 | 0.03 | 96 | 1009.2 |
| 20260904082630 | 23 | 263 | 0.0 | 0.0 | 0.00 | 0.30 | 0.03 | 96 | 1009.2 |
| 20260904082602 | 23 | 263 | 0.0 | 0.0 | 0.00 | 0.30 | 0.03 | 96 | 1009.2 |
| 20260904082530 | 23 | 263 | 0.0 | 0.0 | 0.00 | 0.30 | 0.03 | 96 | 1009.2 |
| 20260904082519 | 23 | 263 | 0.0 | 0.0 | 0.00 | 0.30 | 0.03 | 96 | 1009.4 |
| 20260904082430 | 23 | 263 | 0.0 | 0.0 | 0.00 | 0.30 | 0.03 | 96 | 1009.2 |
| 20260904082330 | 23 | 263 | 0.0 | 0.0 | 0.00 | 0.30 | 0.03 | 96 | 1009.2 |
| 20260904082228 | 23 | 263 | 0.0 | 0.0 | 0.00 | 0.33 | 0.03 | 96 | 1009.2 |
| 20260904082128 | 23 | 263 | 0.0 | 0.0 | 0.00 | 0.36 | 0.03 | 96 | 1009.2 |
| 20260904082101 | 23 | 263 | 0.0 | 0.0 | 0.00 | 0.36 | 0.03 | 96 | 1009.2 |
| 20260904082027 | 23 | 263 | 0.0 | 0.0 | 0.00 | 0.36 | 0.03 | 96 | 1009.2 |
| 20260904082019 | 23 | 263 | 0.0 | 0.0 | 0.00 | 0.36 | 0.03 | 96 | 1009.4 |
| 20260904081928 | 23 | 263 | 0.0 | 0.0 | 0.00 | 0.38 | 0.03 | 96 | 1009.2 |
| 20260904081828 | 23 | 263 | 0.0 | 0.0 | 0.00 | 0.41 | 0.03 | 96 | 1009.2 |
| 20260904081740 | 23 | 263 | 0.0 | 0.0 | 0.00 | 0.41 | 0.03 | 96 | 1009.2 |
| 20260904081736 | 23 | 263 | 0.0 | 0.0 | 0.00 | 0.41 | 0.03 | 96 | 1009.2 |
| 20260904081601 | 22 | 263 | 0.0 | 0.0 | 0.00 | 0.41 | 0.03 | 96 | 1009.2 |
| 20260904081526 | 22 | 263 | 0.0 | 0.0 | 0.00 | 0.41 | 0.03 | 96 | 1009.2 |
| 20260904081519 | 22 | 263 | 0.0 | 0.0 | 0.00 | 0.41 | 0.03 | 96 | 1009.3 |
| 20260904081426 | 22 | 263 | 0.0 | 0.0 | 0.00 | 0.41 | 0.03 | 96 | 1009.1 |
| 20260904081407 | 22 | 263 | 0.0 | 0.0 | 0.00 | 0.43 | 0.03 | 96 | 1009.2 |
| 20260904081402 | 22 | 263 | 0.0 | 0.0 | 0.00 | 0.43 | 0.03 | 96 | 1009.2 |
| 20260904081249 | 22 | 263 | 0.0 | 0.0 | 0.00 | 0.43 | 0.03 | 96 | 1009.2 |
| 20260904081239 | 22 | 263 | 0.0 | 0.0 | 0.00 | 0.43 | 0.03 | 96 | 1009.1 |
| 20260904081018 | 22 | 263 | 0.0 | 0.0 | 0.00 | 0.43 | 0.03 | 96 | 1009.4 |
| 20260904080938 | 22 | 263 | 0.0 | 0.0 | 0.00 | 0.43 | 0.03 | 96 | 1009.2 |
| 20260904080934 | 22 | 263 | 0.0 | 0.0 | 0.00 | 0.43 | 0.03 | 96 | 1009.2 |
| 20260904080723 | 22 | 263 | 0.0 | 0.0 | 0.00 | 0.43 | 0.03 | 96 | 1009.2 |
| 20260904080623 | 22 | 263 | 0.0 | 0.0 | 0.00 | 0.43 | 0.03 | 96 | 1009.2 |
| 20260904080558 | 22 | 263 | 0.0 | 0.0 | 0.00 | 0.46 | 0.03 | 96 | 1009.2 |
| 20260904080536 | 22 | 257 | 0.0 | 0.0 | 0.00 | 0.46 | 0.03 | 96 | 1009.2 |
| 20260904080532 | 22 | 261 | 0.0 | 0.0 | 0.00 | 0.46 | 0.03 | 96 | 1009.2 |
| 20260904080519 | 22 | 257 | 0.0 | 0.0 | 0.00 | 0.46 | 0.03 | 96 | 1009.4 |
| 20260904080335 | 22 | 245 | 0.0 | 0.0 | 0.00 | 0.46 | 0.03 | 96 | 1009.1 |
| 20260904080331 | 22 | 245 | 0.0 | 0.0 | 0.00 | 0.46 | 0.03 | 96 | 1009.1 |
| 20260904080141 | 22 | 245 | 0.0 | 0.0 | 0.00 | 0.48 | 0.03 | 96 | 1009.1 |
| 20260904080136 | 22 | 245 | 0.0 | 0.0 | 0.00 | 0.46 | 0.03 | 96 | 1009.1 |
| 20260904080128 | 22 | 245 | 0.0 | 0.0 | 0.00 | 0.46 | 0.03 | 96 | 1009.1 |
| 20260904080019 | 22 | 245 | 0.0 | 0.0 | 0.00 | 0.46 | 0.03 | 96 | 1009.4 |
| 20260904075921 | 22 | 245 | 0.0 | 0.0 | 0.00 | 0.48 | 0.03 | 96 | 1009.2 |
| 20260904075819 | 22 | 245 | 0.0 | 0.0 | 0.00 | 0.48 | 0.03 | 96 | 1009.2 |
| 20260904075719 | 22 | 245 | 0.0 | 0.0 | 0.00 | 0.48 | 0.03 | 96 | 1009.2 |
| 20260904075618 | 22 | 245 | 0.0 | 0.0 | 0.00 | 0.48 | 0.03 | 96 | 1009.2 |
| 20260904075555 | 22 | 245 | 0.0 | 0.0 | 0.00 | 0.48 | 0.03 | 96 | 1009.2 |
| 20260904075519 | 22 | 245 | 0.0 | 0.0 | 0.00 | 0.48 | 0.03 | 96 | 1009.5 |
| 20260904075417 | 22 | 245 | 0.0 | 0.0 | 0.00 | 0.51 | 0.03 | 96 | 1009.3 |
| 20260904075317 | 22 | 245 | 0.0 | 0.0 | 0.00 | 0.51 | 0.03 | 96 | 1009.3 |
| 20260904075248 | 22 | 245 | 0.0 | 0.0 | 0.00 | 0.51 | 0.03 | 96 | 1009.3 |
| 20260904075244 | 22 | 245 | 0.0 | 0.0 | 0.00 | 0.51 | 0.03 | 96 | 1009.2 |
| 20260904075239 | 22 | 245 | 0.0 | 0.0 | 0.00 | 0.51 | 0.03 | 96 | 1009.2 |
| 20260904075122 | 22 | 245 | 0.0 | 0.0 | 0.00 | 0.51 | 0.03 | 96 | 1009.2 |
| 20260904075019 | 22 | 245 | 0.0 | 0.0 | 0.00 | 0.51 | 0.03 | 96 | 1009.4 |
| 20260904074915 | 22 | 245 | 0.0 | 0.0 | 0.00 | 0.51 | 0.03 | 96 | 1009.2 |
| 20260904074814 | 22 | 245 | 0.0 | 0.0 | 0.00 | 0.51 | 0.03 | 96 | 1009.2 |
| 20260904074714 | 22 | 245 | 0.0 | 0.0 | 0.00 | 0.51 | 0.03 | 96 | 1009.2 |
| 20260904074627 | 22 | 245 | 0.0 | 0.0 | 0.00 | 0.51 | 0.03 | 96 | 1009.3 |
| 20260904074619 | 22 | 245 | 0.0 | 0.0 | 0.00 | 0.51 | 0.03 | 96 | 1009.3 |
| 20260904074519 | 22 | 245 | 0.0 | 0.0 | 0.00 | 0.51 | 0.03 | 96 | 1009.5 |
| 20260904074412 | 22 | 245 | 0.0 | 0.0 | 0.00 | 0.51 | 0.03 | 96 | 1009.3 |
| 20260904074312 | 22 | 245 | 0.0 | 0.0 | 0.00 | 0.51 | 0.03 | 96 | 1009.2 |
| 20260904074224 | 22 | 245 | 0.0 | 0.0 | 0.00 | 0.51 | 0.03 | 96 | 1009.2 |
| 20260904074220 | 22 | 245 | 0.0 | 0.0 | 0.00 | 0.51 | 0.03 | 96 | 1009.2 |
| 20260904074051 | 22 | 245 | 0.0 | 0.0 | 0.00 | 0.51 | 0.03 | 96 | 1009.2 |
| 20260904074019 | 22 | 245 | 0.0 | 0.0 | 0.00 | 0.51 | 0.03 | 96 | 1009.4 |
| 20260904074010 | 22 | 245 | 0.0 | 0.0 | 0.00 | 0.51 | 0.03 | 96 | 1009.2 |
| 20260904073911 | 22 | 245 | 0.0 | 0.0 | 0.00 | 0.53 | 0.03 | 96 | 1009.2 |
| 20260904073826 | 22 | 245 | 0.0 | 0.0 | 0.00 | 0.56 | 0.03 | 96 | 1009.1 |
| 20260904073821 | 22 | 245 | 0.0 | 0.0 | 0.00 | 0.56 | 0.03 | 96 | 1009.1 |
| 20260904073817 | 22 | 245 | 0.0 | 0.0 | 0.00 | 0.56 | 0.03 | 96 | 1009.2 |
| 20260904073808 | 22 | 245 | 0.0 | 0.0 | 0.00 | 0.56 | 0.03 | 96 | 1009.1 |
| 20260904073518 | 22 | 245 | 0.0 | 0.0 | 0.00 | 0.56 | 0.03 | 96 | 1009.4 |
| 20260904073510 | 22 | 245 | 0.0 | 0.0 | 0.00 | 0.56 | 0.03 | 96 | 1009.1 |
| 20260904073409 | 22 | 245 | 0.0 | 0.0 | 0.00 | 0.56 | 0.03 | 96 | 1009.2 |
| 20260904073309 | 22 | 245 | 0.0 | 0.0 | 0.00 | 0.56 | 0.03 | 96 | 1009.2 |
| 20260904073209 | 22 | 245 | 0.0 | 0.0 | 0.00 | 0.56 | 0.03 | 96 | 1009.2 |
| 20260904073123 | 22 | 245 | 0.0 | 0.0 | 0.00 | 0.56 | 0.03 | 96 | 1009.2 |
| 20260904073115 | 22 | 245 | 0.0 | 0.0 | 0.00 | 0.56 | 0.03 | 96 | 1009.2 |
| 20260904073018 | 22 | 245 | 0.0 | 0.0 | 0.00 | 0.56 | 0.03 | 96 | 1009.4 |
| 20260904072908 | 22 | 245 | 0.0 | 0.0 | 0.00 | 0.56 | 0.03 | 96 | 1009.2 |
| 20260904072807 | 22 | 245 | 0.0 | 0.0 | 0.00 | 0.56 | 0.03 | 96 | 1009.2 |
| 20260904072719 | 22 | 245 | 0.0 | 0.0 | 0.00 | 0.56 | 0.03 | 96 | 1009.1 |
| 20260904072714 | 22 | 245 | 0.0 | 0.0 | 0.00 | 0.56 | 0.03 | 96 | 1009.2 |
| 20260904072549 | 22 | 245 | 0.0 | 0.0 | 0.00 | 0.56 | 0.03 | 96 | 1009.1 |
| 20260904072518 | 22 | 245 | 0.0 | 0.0 | 0.00 | 0.56 | 0.03 | 96 | 1009.4 |
| 20260904072505 | 22 | 245 | 0.0 | 0.0 | 0.00 | 0.56 | 0.03 | 96 | 1009.2 |
| 20260904072404 | 22 | 245 | 0.0 | 0.0 | 0.00 | 0.56 | 0.03 | 96 | 1009.1 |
| 20260904072312 | 22 | 245 | 0.0 | 0.0 | 0.00 | 0.56 | 0.03 | 96 | 1009.1 |
| 20260904072306 | 22 | 245 | 0.0 | 0.0 | 0.00 | 0.56 | 0.03 | 96 | 1009.1 |
| 20260904072204 | 22 | 245 | 0.0 | 0.0 | 0.00 | 0.56 | 0.03 | 96 | 1009.1 |
| 20260904072155 | 22 | 245 | 0.0 | 0.0 | 0.00 | 0.56 | 0.03 | 96 | 1009.1 |
| 20260904072034 | 22 | 245 | 0.0 | 0.0 | 0.00 | 0.56 | 0.03 | 96 | 1009.2 |
| 20260904072002 | 22 | 245 | 0.0 | 0.0 | 0.00 | 0.56 | 0.03 | 96 | 1009.0 |
| 20260904071902 | 22 | 245 | 0.0 | 0.0 | 0.00 | 0.56 | 0.03 | 96 | 1009.0 |
| 20260904071815 | 22 | 245 | 0.0 | 0.0 | 0.00 | 0.56 | 0.03 | 96 | 1009.0 |
| 20260904071801 | 22 | 245 | 0.0 | 0.0 | 0.00 | 0.56 | 0.03 | 96 | 1009.0 |
| 20260904071703 | 22 | 245 | 0.0 | 0.0 | 0.00 | 0.56 | 0.03 | 96 | 1008.9 |
| 20260904071654 | 22 | 245 | 0.0 | 0.0 | 0.00 | 0.56 | 0.03 | 96 | 1009.0 |
| 20260904071519 | 22 | 245 | 0.0 | 0.0 | 0.00 | 0.56 | 0.03 | 96 | 1009.1 |
| 20260904071501 | 22 | 245 | 0.0 | 0.0 | 0.00 | 0.56 | 0.03 | 96 | 1008.9 |
| 20260904071415 | 22 | 245 | 0.0 | 0.0 | 0.00 | 0.56 | 0.03 | 96 | 1008.8 |
| 20260904071409 | 22 | 245 | 0.0 | 0.0 | 0.00 | 0.56 | 0.03 | 96 | 1008.9 |
| 20260904071159 | 22 | 245 | 0.0 | 0.0 | 0.00 | 0.56 | 0.03 | 96 | 1008.8 |
| 20260904071119 | 22 | 245 | 0.0 | 0.0 | 0.00 | 0.56 | 0.03 | 96 | 1008.8 |
| 20260904071107 | 22 | 245 | 0.0 | 0.0 | 0.00 | 0.56 | 0.03 | 96 | 1008.8 |
| 20260904071019 | 22 | 245 | 0.0 | 0.0 | 0.00 | 0.56 | 0.03 | 96 | 1009.0 |
| 20260904070857 | 22 | 245 | 0.0 | 0.0 | 0.00 | 0.56 | 0.03 | 96 | 1008.7 |
| 20260904070811 | 23 | 245 | 0.0 | 0.0 | 0.00 | 0.56 | 0.03 | 96 | 1008.7 |
| 20260904070806 | 22 | 245 | 0.0 | 0.0 | 0.00 | 0.56 | 0.03 | 96 | 1008.7 |
| 20260904070546 | 22 | 245 | 0.0 | 0.0 | 0.00 | 0.56 | 0.03 | 96 | 1008.6 |
| 20260904070519 | 22 | 245 | 0.0 | 0.0 | 0.00 | 0.56 | 0.03 | 96 | 1008.8 |
| 20260904070456 | 22 | 245 | 0.0 | 0.0 | 0.00 | 0.56 | 0.03 | 96 | 1008.6 |
| 20260904070355 | 22 | 245 | 0.0 | 0.0 | 0.00 | 0.56 | 0.03 | 96 | 1008.6 |
| 20260904070309 | 22 | 245 | 0.0 | 0.0 | 0.00 | 0.56 | 0.03 | 96 | 1008.6 |
| 20260904070254 | 22 | 245 | 0.0 | 0.0 | 0.00 | 0.56 | 0.03 | 96 | 1008.6 |
| 20260904070202 | 23 | 245 | 0.0 | 0.0 | 0.00 | 0.56 | 0.03 | 96 | 1008.5 |
| 20260904070153 | 23 | 245 | 0.0 | 0.0 | 0.00 | 0.56 | 0.03 | 96 | 1008.6 |
| 20260904070019 | 23 | 245 | 0.0 | 0.0 | 0.00 | 0.56 | 0.03 | 96 | 1008.8 |
| 20260904065953 | 23 | 245 | 0.0 | 0.0 | 0.00 | 0.56 | 0.03 | 96 | 1008.6 |
| 20260904065851 | 23 | 245 | 0.0 | 0.0 | 0.00 | 0.56 | 0.03 | 96 | 1008.6 |
| 20260904065751 | 23 | 245 | 0.0 | 0.0 | 0.00 | 0.56 | 0.03 | 96 | 1008.5 |
| 20260904065650 | 23 | 245 | 0.0 | 0.0 | 0.00 | 0.56 | 0.03 | 96 | 1008.5 |
| 20260904065611 | 23 | 245 | 0.0 | 0.0 | 0.00 | 0.56 | 0.03 | 96 | 1008.5 |
| 20260904065519 | 23 | 245 | 0.0 | 0.0 | 0.00 | 0.56 | 0.03 | 96 | 1008.7 |
| 20260904065459 | 23 | 245 | 0.0 | 0.0 | 0.00 | 0.56 | 0.03 | 96 | 1008.5 |
| 20260904065249 | 23 | 245 | 0.0 | 0.0 | 0.00 | 0.56 | 0.03 | 95 | 1008.4 |
| 20260904065149 | 23 | 245 | 0.0 | 0.0 | 0.00 | 0.56 | 0.03 | 95 | 1008.4 |
| 20260904065046 | 23 | 245 | 0.0 | 0.0 | 0.00 | 0.56 | 0.03 | 95 | 1008.4 |
| 20260904065019 | 23 | 245 | 0.0 | 0.0 | 0.00 | 0.56 | 0.03 | 95 | 1008.5 |
| 20260904064948 | 23 | 245 | 0.0 | 0.0 | 0.00 | 0.56 | 0.03 | 95 | 1008.3 |
| 20260904064847 | 23 | 245 | 0.0 | 0.0 | 0.00 | 0.56 | 0.03 | 95 | 1008.3 |
| 20260904064813 | 23 | 245 | 0.0 | 0.0 | 0.00 | 0.56 | 0.03 | 95 | 1008.3 |
| 20260904064747 | 23 | 245 | 0.0 | 0.0 | 0.00 | 0.56 | 0.03 | 95 | 1008.4 |
| 20260904064702 | 23 | 244 | 0.0 | 0.0 | 0.00 | 0.56 | 0.03 | 95 | 1008.4 |
| 20260904064653 | 23 | 245 | 0.0 | 0.0 | 0.00 | 0.56 | 0.03 | 95 | 1008.3 |
| 20260904064518 | 23 | 245 | 0.0 | 0.0 | 0.00 | 0.56 | 0.03 | 95 | 1008.5 |
| 20260904064447 | 23 | 245 | 0.0 | 0.0 | 0.00 | 0.56 | 0.03 | 95 | 1008.3 |
| 20260904064346 | 23 | 245 | 0.0 | 0.0 | 0.00 | 0.56 | 0.03 | 95 | 1008.3 |
| 20260904064245 | 23 | 245 | 0.0 | 0.0 | 0.00 | 0.56 | 0.03 | 95 | 1008.3 |
| 20260904064145 | 23 | 245 | 0.0 | 0.0 | 0.00 | 0.56 | 0.03 | 95 | 1008.3 |
| 20260904064044 | 23 | 245 | 0.0 | 0.0 | 0.00 | 0.56 | 0.03 | 95 | 1008.4 |
| 20260904064019 | 23 | 245 | 0.0 | 0.0 | 0.00 | 0.56 | 0.03 | 95 | 1008.6 |
| 20260904063944 | 23 | 245 | 0.0 | 0.0 | 0.00 | 0.56 | 0.03 | 95 | 1008.4 |
| 20260904063843 | 23 | 245 | 0.0 | 0.0 | 0.00 | 0.56 | 0.03 | 95 | 1008.4 |
| 20260904063742 | 23 | 245 | 0.0 | 0.0 | 0.00 | 0.56 | 0.03 | 95 | 1008.4 |
| 20260904063657 | 23 | 245 | 0.0 | 0.0 | 0.00 | 0.56 | 0.03 | 95 | 1008.3 |
| 20260904063648 | 23 | 245 | 0.0 | 0.0 | 0.00 | 0.56 | 0.03 | 95 | 1008.4 |
| 20260904063519 | 23 | 245 | 0.0 | 0.0 | 0.00 | 0.56 | 0.03 | 95 | 1008.6 |
| 20260904063441 | 23 | 245 | 0.0 | 0.0 | 0.00 | 0.56 | 0.03 | 95 | 1008.4 |
| 20260904063421 | 23 | 245 | 0.0 | 0.0 | 0.00 | 0.56 | 0.03 | 95 | 1008.4 |
| 20260904063416 | 23 | 245 | 0.0 | 0.0 | 0.00 | 0.56 | 0.03 | 95 | 1008.3 |
| 20260904063411 | 23 | 245 | 0.0 | 0.0 | 0.00 | 0.56 | 0.03 | 95 | 1008.4 |
| 20260904063252 | 23 | 245 | 0.0 | 0.0 | 0.00 | 0.56 | 0.03 | 95 | 1008.4 |
| 20260904063019 | 23 | 245 | 0.0 | 0.0 | 0.00 | 0.56 | 0.03 | 95 | 1008.4 |
| 20260904062937 | 23 | 245 | 0.0 | 0.0 | 0.00 | 0.56 | 0.03 | 95 | 1008.2 |
| 20260904062837 | 23 | 245 | 0.0 | 0.0 | 0.00 | 0.56 | 0.03 | 95 | 1008.2 |
| 20260904062737 | 23 | 245 | 0.0 | 0.0 | 0.00 | 0.56 | 0.03 | 95 | 1008.1 |
| 20260904062635 | 23 | 245 | 0.0 | 0.0 | 0.00 | 0.56 | 0.03 | 95 | 1008.1 |
| 20260904062536 | 23 | 245 | 0.0 | 0.0 | 0.00 | 0.56 | 0.03 | 95 | 1008.1 |
| 20260904062519 | 23 | 245 | 0.0 | 0.0 | 0.00 | 0.56 | 0.03 | 95 | 1008.4 |
| 20260904062434 | 23 | 244 | 0.0 | 0.0 | 0.00 | 0.56 | 0.03 | 95 | 1008.2 |
| 20260904062334 | 23 | 245 | 0.0 | 0.0 | 0.00 | 0.56 | 0.03 | 95 | 1008.2 |
| 20260904062324 | 23 | 245 | 0.0 | 0.0 | 0.00 | 0.56 | 0.03 | 95 | 1008.3 |
| 20260904062317 | 23 | 245 | 0.0 | 0.0 | 0.00 | 0.56 | 0.03 | 95 | 1008.3 |
| 20260904062313 | 23 | 245 | 0.0 | 0.0 | 0.00 | 0.58 | 0.03 | 95 | 1008.4 |
| 20260904062306 | 23 | 245 | 0.0 | 0.0 | 0.00 | 0.56 | 0.03 | 95 | 1008.3 |
| 20260904062042 | 23 | 245 | 0.0 | 0.0 | 0.00 | 0.56 | 0.03 | 95 | 1008.3 |
| 20260904062034 | 23 | 245 | 0.0 | 0.0 | 0.00 | 0.56 | 0.03 | 95 | 1008.6 |
| 20260904061832 | 23 | 245 | 0.0 | 0.0 | 0.00 | 0.58 | 0.03 | 95 | 1008.4 |
| 20260904061732 | 23 | 245 | 0.0 | 0.0 | 0.00 | 0.58 | 0.03 | 95 | 1008.4 |
| 20260904061631 | 23 | 245 | 0.0 | 0.0 | 0.00 | 0.58 | 0.03 | 95 | 1008.4 |
| 20260904061534 | 23 | 245 | 0.0 | 0.0 | 0.00 | 0.58 | 0.03 | 95 | 1008.6 |
| 20260904061531 | 23 | 245 | 0.0 | 0.0 | 0.00 | 0.58 | 0.03 | 95 | 1008.4 |
| 20260904061430 | 23 | 245 | 0.0 | 0.0 | 0.00 | 0.58 | 0.03 | 95 | 1008.4 |
| 20260904061341 | 23 | 245 | 0.0 | 0.0 | 0.00 | 0.61 | 0.03 | 95 | 1008.5 |
| 20260904061331 | 23 | 245 | 0.0 | 0.0 | 0.00 | 0.61 | 0.03 | 95 | 1008.5 |
| 20260904061220 | 23 | 245 | 0.0 | 0.0 | 0.00 | 0.66 | 0.03 | 95 | 1008.5 |
| 20260904061214 | 23 | 245 | 0.0 | 0.0 | 0.00 | 0.64 | 0.03 | 95 | 1008.5 |
| 20260904061206 | 23 | 245 | 0.0 | 0.0 | 0.00 | 0.64 | 0.03 | 95 | 1008.5 |
| 20260904061019 | 23 | 245 | 0.0 | 0.0 | 0.00 | 0.64 | 0.03 | 95 | 1008.7 |
| 20260904060836 | 23 | 245 | 0.0 | 0.0 | 0.00 | 0.66 | 0.03 | 95 | 1008.6 |
| 20260904060627 | 23 | 245 | 0.0 | 0.0 | 0.00 | 0.66 | 0.03 | 95 | 1008.6 |
| 20260904060526 | 23 | 245 | 0.0 | 0.0 | 0.00 | 0.69 | 0.03 | 95 | 1008.6 |
| 20260904060519 | 23 | 245 | 0.0 | 0.0 | 0.00 | 0.69 | 0.03 | 95 | 1008.8 |
| 20260904060426 | 23 | 245 | 0.0 | 0.0 | 0.00 | 0.69 | 0.03 | 95 | 1008.6 |
| 20260904060325 | 23 | 245 | 0.0 | 0.0 | 0.00 | 0.69 | 0.03 | 95 | 1008.7 |
| 20260904060225 | 23 | 245 | 0.0 | 0.0 | 0.00 | 0.69 | 0.03 | 95 | 1008.7 |
| 20260904060125 | 23 | 245 | 0.0 | 0.0 | 0.00 | 0.69 | 0.03 | 95 | 1008.7 |
| 20260904060025 | 23 | 245 | 0.0 | 0.0 | 0.00 | 0.71 | 0.03 | 95 | 1008.8 |
| 20260904060019 | 23 | 245 | 0.0 | 0.0 | 0.00 | 0.71 | 0.03 | 95 | 1009.1 |
| 20260904055924 | 23 | 245 | 0.0 | 0.0 | 0.00 | 0.71 | 0.03 | 95 | 1008.9 |
| 20260904055822 | 23 | 245 | 0.0 | 0.0 | 0.00 | 0.71 | 0.03 | 95 | 1008.8 |
| 20260904055722 | 23 | 245 | 0.0 | 0.0 | 0.00 | 0.71 | 0.03 | 95 | 1008.8 |
| 20260904055622 | 23 | 245 | 0.0 | 0.0 | 0.00 | 0.74 | 0.03 | 95 | 1008.8 |
| 20260904055549 | 23 | 245 | 0.0 | 0.0 | 0.00 | 0.74 | 0.03 | 95 | 1009.1 |
| 20260904055521 | 23 | 245 | 0.0 | 0.0 | 0.00 | 0.74 | 0.03 | 95 | 1008.9 |
| 20260904055419 | 23 | 245 | 0.0 | 0.0 | 0.00 | 0.74 | 0.03 | 95 | 1008.9 |
| 20260904055333 | 23 | 245 | 0.0 | 0.0 | 0.00 | 0.74 | 0.03 | 95 | 1009.0 |
| 20260904055328 | 23 | 245 | 0.0 | 0.0 | 0.00 | 0.74 | 0.03 | 95 | 1009.0 |
| 20260904055117 | 23 | 245 | 0.0 | 0.0 | 0.00 | 0.76 | 0.03 | 95 | 1009.0 |
| 20260904055019 | 23 | 245 | 0.0 | 0.0 | 0.00 | 0.79 | 0.03 | 95 | 1009.3 |
| 20260904055017 | 23 | 245 | 0.0 | 0.0 | 0.00 | 0.79 | 0.03 | 95 | 1009.1 |
| 20260904054916 | 23 | 245 | 0.0 | 0.0 | 0.00 | 0.84 | 0.03 | 95 | 1009.1 |
| 20260904054816 | 23 | 245 | 0.0 | 0.0 | 0.00 | 0.91 | 0.03 | 95 | 1009.1 |
| 20260904054715 | 23 | 245 | 0.0 | 0.0 | 0.00 | 0.99 | 0.03 | 95 | 1009.1 |
| 20260904054615 | 23 | 245 | 0.0 | 0.0 | 0.00 | 1.12 | 0.03 | 95 | 1009.2 |
| 20260904054537 | 23 | 245 | 0.0 | 0.0 | 0.00 | 1.12 | 0.03 | 95 | 1009.3 |
| 20260904054519 | 23 | 245 | 0.0 | 0.0 | 0.00 | 1.17 | 0.03 | 95 | 1009.4 |
| 20260904054515 | 23 | 245 | 0.0 | 0.0 | 0.00 | 1.22 | 0.03 | 95 | 1009.3 |
| 20260904054414 | 23 | 245 | 0.0 | 0.0 | 0.00 | 1.30 | 0.03 | 95 | 1009.2 |
| 20260904054328 | 23 | 245 | 0.0 | 0.0 | 0.00 | 1.35 | 0.03 | 95 | 1009.3 |
| 20260904054322 | 23 | 245 | 0.0 | 0.0 | 0.00 | 1.35 | 0.03 | 95 | 1009.3 |
| 20260904054113 | 23 | 245 | 0.0 | 0.0 | 0.00 | 1.37 | 0.03 | 95 | 1009.4 |
| 20260904054019 | 23 | 245 | 0.0 | 0.0 | 0.00 | 1.37 | 0.03 | 95 | 1009.6 |
| 20260904054012 | 23 | 245 | 0.0 | 0.0 | 0.00 | 1.40 | 0.03 | 95 | 1009.4 |
| 20260904053914 | 23 | 245 | 0.0 | 0.0 | 0.00 | 1.40 | 0.03 | 95 | 1009.4 |
| 20260904053813 | 23 | 245 | 0.0 | 0.0 | 0.00 | 1.42 | 0.03 | 95 | 1009.5 |
| 20260904053712 | 23 | 245 | 0.0 | 0.0 | 0.00 | 1.42 | 0.03 | 95 | 1009.6 |
| 20260904053627 | 23 | 245 | 0.0 | 0.0 | 0.00 | 1.45 | 0.03 | 95 | 1009.7 |
| 20260904053618 | 23 | 245 | 0.0 | 0.0 | 0.00 | 1.45 | 0.03 | 95 | 1009.7 |
| 20260904053534 | 23 | 245 | 0.0 | 0.0 | 0.00 | 1.45 | 0.03 | 95 | 1009.9 |
| 20260904053415 | 23 | 245 | 0.0 | 0.0 | 0.00 | 1.45 | 0.03 | 95 | 1009.7 |
| 20260904053406 | 23 | 245 | 0.0 | 0.0 | 0.00 | 1.47 | 0.03 | 95 | 1009.7 |
| 20260904053209 | 23 | 233 | 0.0 | 0.0 | 0.00 | 1.47 | 0.03 | 95 | 1009.7 |
| 20260904053146 | 23 | 232 | 0.0 | 0.0 | 0.00 | 1.47 | 0.03 | 95 | 1009.7 |
| 20260904053034 | 23 | 232 | 0.0 | 0.0 | 0.00 | 1.47 | 0.03 | 95 | 1010.0 |
| 20260904053005 | 23 | 232 | 0.0 | 0.0 | 0.00 | 1.47 | 0.03 | 95 | 1009.7 |
| 20260904052905 | 23 | 232 | 0.0 | 0.0 | 0.00 | 1.50 | 0.03 | 95 | 1009.8 |
| 20260904052806 | 23 | 232 | 0.0 | 0.0 | 0.00 | 1.50 | 0.03 | 95 | 1009.8 |
| 20260904052737 | 23 | 232 | 0.0 | 0.0 | 0.00 | 1.52 | 0.03 | 95 | 1009.8 |
| 20260904052733 | 23 | 232 | 0.0 | 0.0 | 0.00 | 1.52 | 0.03 | 95 | 1009.7 |
| 20260904052728 | 23 | 232 | 0.0 | 0.0 | 0.00 | 1.50 | 0.03 | 95 | 1009.8 |
| 20260904052611 | 23 | 232 | 0.0 | 0.0 | 0.00 | 1.52 | 0.03 | 95 | 1009.8 |
| 20260904052519 | 23 | 232 | 0.0 | 0.0 | 0.00 | 1.52 | 0.03 | 95 | 1009.9 |
| 20260904052404 | 23 | 232 | 0.0 | 0.0 | 0.00 | 1.52 | 0.03 | 95 | 1009.7 |
| 20260904052306 | 23 | 232 | 0.0 | 0.0 | 0.00 | 1.52 | 0.03 | 95 | 1009.7 |
| 20260904052203 | 23 | 232 | 0.0 | 0.0 | 0.00 | 1.52 | 0.03 | 95 | 1009.7 |
| 20260904052034 | 23 | 232 | 0.0 | 0.0 | 0.00 | 1.52 | 0.03 | 95 | 1009.7 |
| 20260904052019 | 23 | 232 | 0.0 | 0.0 | 0.00 | 1.52 | 0.03 | 95 | 1009.8 |
| 20260904052002 | 23 | 232 | 0.0 | 0.0 | 0.00 | 1.52 | 0.03 | 95 | 1009.6 |
| 20260904051902 | 23 | 232 | 0.0 | 0.0 | 0.00 | 1.55 | 0.03 | 95 | 1009.6 |
| 20260904051758 | 23 | 232 | 0.0 | 0.0 | 0.00 | 1.55 | 0.03 | 95 | 1009.5 |
| 20260904051700 | 23 | 232 | 0.0 | 0.0 | 0.00 | 1.55 | 0.03 | 95 | 1009.5 |
| 20260904051533 | 23 | 232 | 0.0 | 0.0 | 0.00 | 1.55 | 0.03 | 95 | 1009.4 |
| 20260904051519 | 23 | 232 | 0.0 | 0.0 | 0.00 | 1.55 | 0.03 | 95 | 1009.6 |
| 20260904051500 | 23 | 232 | 0.0 | 0.0 | 0.00 | 1.55 | 0.03 | 95 | 1009.4 |
| 20260904051358 | 23 | 232 | 0.0 | 0.0 | 0.00 | 1.55 | 0.03 | 95 | 1009.4 |
| 20260904051258 | 23 | 232 | 0.0 | 0.0 | 0.00 | 1.55 | 0.03 | 95 | 1009.4 |
| 20260904051158 | 23 | 232 | 0.0 | 0.0 | 0.00 | 1.55 | 0.03 | 95 | 1009.4 |
| 20260904051031 | 23 | 232 | 0.0 | 0.0 | 0.00 | 1.55 | 0.03 | 95 | 1009.3 |
| 20260904051019 | 23 | 232 | 0.0 | 0.0 | 0.00 | 1.55 | 0.03 | 95 | 1009.5 |
| 20260904050956 | 23 | 232 | 0.0 | 0.0 | 0.00 | 1.55 | 0.03 | 95 | 1009.3 |
| 20260904050856 | 23 | 232 | 0.0 | 0.0 | 0.03 | 1.55 | 0.03 | 95 | 1009.3 |
| 20260904050755 | 23 | 232 | 0.0 | 0.0 | 0.03 | 1.55 | 0.03 | 95 | 1009.3 |
| 20260904050655 | 23 | 232 | 0.0 | 0.0 | 0.03 | 1.55 | 0.03 | 95 | 1009.3 |
| 20260904050613 | 23 | 232 | 0.0 | 0.0 | 0.03 | 1.55 | 0.03 | 94 | 1009.3 |
| 20260904050601 | 23 | 232 | 0.0 | 0.0 | 0.03 | 1.55 | 0.03 | 94 | 1009.3 |
| 20260904050519 | 23 | 232 | 0.0 | 0.0 | 0.03 | 1.55 | 0.03 | 94 | 1009.5 |
| 20260904050354 | 23 | 232 | 0.0 | 0.0 | 0.03 | 1.55 | 0.03 | 94 | 1009.3 |
| 20260904050252 | 23 | 232 | 0.0 | 0.0 | 0.03 | 1.55 | 0.03 | 94 | 1009.2 |
| 20260904050206 | 23 | 232 | 0.0 | 0.0 | 0.03 | 1.55 | 0.03 | 94 | 1009.2 |
| 20260904050201 | 23 | 232 | 0.0 | 0.0 | 0.03 | 1.55 | 0.03 | 94 | 1009.2 |
| 20260904050029 | 23 | 232 | 0.0 | 0.0 | 0.03 | 1.55 | 0.03 | 94 | 1009.2 |
| 20260904050020 | 23 | 232 | 0.0 | 0.0 | 0.03 | 1.55 | 0.03 | 94 | 1009.2 |
| 20260904050013 | 23 | 232 | 0.0 | 0.0 | 0.03 | 1.55 | 0.03 | 94 | 1009.2 |
| 20260904045749 | 23 | 232 | 0.0 | 0.0 | 0.03 | 1.55 | 0.03 | 94 | 1009.2 |
| 20260904045649 | 23 | 232 | 0.0 | 0.0 | 0.03 | 1.55 | 0.03 | 94 | 1009.1 |
| 20260904045635 | 23 | 232 | 0.0 | 0.0 | 0.03 | 1.55 | 0.03 | 94 | 1009.0 |
| 20260904045519 | 23 | 232 | 0.0 | 0.0 | 0.03 | 1.55 | 0.03 | 94 | 1009.2 |
| 20260904045447 | 23 | 232 | 0.0 | 0.0 | 0.03 | 1.55 | 0.03 | 94 | 1009.0 |
| 20260904045400 | 23 | 232 | 0.0 | 0.0 | 0.03 | 1.55 | 0.03 | 94 | 1009.0 |
| 20260904045356 | 23 | 232 | 0.0 | 0.0 | 0.03 | 1.55 | 0.03 | 94 | 1009.0 |
| 20260904045146 | 23 | 232 | 0.0 | 0.0 | 0.03 | 1.55 | 0.03 | 94 | 1009.0 |
| 20260904045025 | 23 | 232 | 0.0 | 0.0 | 0.03 | 1.55 | 0.03 | 94 | 1009.0 |
| 20260904045019 | 23 | 232 | 0.0 | 0.0 | 0.03 | 1.55 | 0.03 | 94 | 1009.2 |
| 20260904044946 | 23 | 232 | 0.0 | 0.0 | 0.03 | 1.55 | 0.03 | 94 | 1009.0 |
| 20260904044845 | 23 | 232 | 0.0 | 0.0 | 0.03 | 1.55 | 0.03 | 94 | 1009.0 |
| 20260904044817 | 23 | 232 | 0.0 | 0.0 | 0.03 | 1.55 | 0.03 | 94 | 1009.1 |
| 20260904044745 | 23 | 232 | 0.0 | 0.0 | 0.03 | 1.55 | 0.03 | 94 | 1009.0 |
| 20260904044714 | 23 | 232 | 0.0 | 0.0 | 0.03 | 1.55 | 0.03 | 94 | 1009.1 |
| 20260904044708 | 23 | 232 | 0.0 | 0.0 | 0.03 | 1.55 | 0.03 | 94 | 1009.1 |
| 20260904044659 | 23 | 232 | 0.0 | 0.0 | 0.03 | 1.55 | 0.03 | 94 | 1009.1 |
| 20260904044534 | 23 | 232 | 0.0 | 0.0 | 0.03 | 1.55 | 0.03 | 94 | 1009.3 |
| 20260904044344 | 23 | 232 | 0.0 | 0.0 | 0.03 | 1.55 | 0.03 | 94 | 1009.1 |
| 20260904044248 | 23 | 232 | 0.0 | 0.0 | 0.03 | 1.55 | 0.03 | 94 | 1009.0 |
| 20260904044244 | 23 | 232 | 0.0 | 0.0 | 0.03 | 1.55 | 0.03 | 94 | 1009.0 |
| 20260904044143 | 23 | 232 | 0.0 | 0.0 | 0.03 | 1.55 | 0.03 | 94 | 1009.0 |
| 20260904044131 | 23 | 232 | 0.0 | 0.0 | 0.03 | 1.55 | 0.03 | 94 | 1009.0 |
| 20260904044019 | 23 | 232 | 0.0 | 0.0 | 0.03 | 1.55 | 0.03 | 94 | 1009.2 |
| 20260904044017 | 23 | 232 | 0.0 | 0.0 | 0.03 | 1.55 | 0.03 | 94 | 1009.0 |
| 20260904044012 | 23 | 232 | 0.0 | 0.0 | 0.03 | 1.55 | 0.03 | 94 | 1009.0 |
| 20260904043749 | 23 | 232 | 0.0 | 0.0 | 0.03 | 1.55 | 0.03 | 94 | 1009.1 |
| 20260904043523 | 23 | 232 | 0.0 | 0.0 | 0.03 | 1.55 | 0.03 | 94 | 1009.1 |
| 20260904043519 | 23 | 232 | 0.0 | 0.0 | 0.03 | 1.55 | 0.03 | 94 | 1009.3 |
| 20260904043439 | 23 | 232 | 0.0 | 0.0 | 0.03 | 1.55 | 0.03 | 94 | 1009.1 |
| 20260904043339 | 23 | 232 | 0.0 | 0.0 | 0.03 | 1.55 | 0.03 | 94 | 1009.1 |
| 20260904043251 | 23 | 232 | 0.0 | 0.0 | 0.03 | 1.55 | 0.03 | 94 | 1009.1 |
| 20260904043247 | 23 | 232 | 0.0 | 0.0 | 0.03 | 1.55 | 0.03 | 94 | 1009.0 |
| 20260904043057 | 23 | 232 | 0.0 | 0.0 | 0.03 | 1.55 | 0.03 | 94 | 1009.1 |
| 20260904043044 | 23 | 232 | 0.0 | 0.0 | 0.03 | 1.55 | 0.03 | 94 | 1009.1 |
| 20260904043019 | 23 | 232 | 0.0 | 0.0 | 0.03 | 1.55 | 0.03 | 94 | 1009.3 |
| 20260904042836 | 23 | 232 | 0.0 | 0.0 | 0.03 | 1.55 | 0.03 | 94 | 1009.1 |
| 20260904042736 | 23 | 232 | 0.0 | 0.0 | 0.03 | 1.55 | 0.03 | 94 | 1009.2 |
| 20260904042703 | 23 | 232 | 0.0 | 0.0 | 0.03 | 1.55 | 0.03 | 94 | 1009.2 |
| 20260904042542 | 23 | 232 | 0.0 | 0.0 | 0.03 | 1.55 | 0.03 | 94 | 1009.2 |
| 20260904042519 | 23 | 232 | 0.0 | 0.0 | 0.03 | 1.55 | 0.03 | 94 | 1009.4 |
| 20260904042333 | 23 | 232 | 0.0 | 0.0 | 0.03 | 1.55 | 0.03 | 94 | 1009.3 |
| 20260904042233 | 23 | 232 | 0.0 | 0.0 | 0.03 | 1.55 | 0.03 | 94 | 1009.3 |
| 20260904042133 | 23 | 232 | 0.0 | 0.0 | 0.03 | 1.55 | 0.03 | 94 | 1009.3 |
| 20260904042019 | 23 | 232 | 0.0 | 0.0 | 0.03 | 1.55 | 0.03 | 94 | 1009.6 |
| 20260904041932 | 23 | 232 | 0.0 | 0.0 | 0.03 | 1.55 | 0.03 | 94 | 1009.4 |
| 20260904041832 | 23 | 232 | 0.0 | 0.0 | 0.03 | 1.55 | 0.03 | 94 | 1009.4 |
| 20260904041731 | 23 | 232 | 0.0 | 0.0 | 0.03 | 1.55 | 0.03 | 94 | 1009.5 |
| 20260904041644 | 23 | 232 | 0.0 | 0.0 | 0.03 | 1.55 | 0.03 | 94 | 1009.6 |
| 20260904041640 | 23 | 232 | 0.0 | 0.0 | 0.03 | 1.55 | 0.03 | 94 | 1009.6 |
| 20260904041519 | 23 | 232 | 0.0 | 0.0 | 0.03 | 1.55 | 0.03 | 94 | 1009.8 |
| 20260904041517 | 23 | 232 | 0.0 | 0.0 | 0.03 | 1.55 | 0.03 | 94 | 1009.6 |
| 20260904041430 | 23 | 232 | 0.0 | 0.0 | 0.03 | 1.55 | 0.03 | 94 | 1009.6 |
| 20260904041228 | 23 | 232 | 0.0 | 0.0 | 0.03 | 1.55 | 0.03 | 94 | 1009.8 |
| 20260904041128 | 23 | 232 | 0.0 | 0.0 | 0.03 | 1.55 | 0.03 | 94 | 1009.8 |
| 20260904041045 | 23 | 232 | 0.0 | 0.0 | 0.03 | 1.55 | 0.03 | 94 | 1009.8 |
| 20260904041033 | 23 | 232 | 0.0 | 0.0 | 0.03 | 1.55 | 0.03 | 94 | 1009.8 |
| 20260904041019 | 23 | 232 | 0.0 | 0.0 | 0.03 | 1.55 | 0.03 | 94 | 1010.0 |
| 20260904040827 | 23 | 232 | 0.0 | 0.0 | 0.00 | 1.52 | 0.00 | 93 | 1009.8 |
| 20260904040725 | 23 | 232 | 0.0 | 0.0 | 0.00 | 1.52 | 0.00 | 93 | 1009.8 |
| 20260904040625 | 23 | 232 | 0.0 | 0.0 | 0.00 | 1.52 | 0.00 | 93 | 1009.9 |
| 20260904040544 | 23 | 232 | 0.0 | 0.0 | 0.00 | 1.52 | 0.00 | 93 | 1009.8 |
| 20260904040531 | 23 | 232 | 0.0 | 0.0 | 0.00 | 1.52 | 0.00 | 93 | 1009.9 |
| 20260904040519 | 23 | 232 | 0.0 | 0.0 | 0.00 | 1.52 | 0.00 | 93 | 1010.0 |
| 20260904040324 | 23 | 232 | 0.0 | 0.0 | 0.00 | 1.52 | 0.00 | 93 | 1009.8 |
| 20260904040223 | 23 | 232 | 0.0 | 0.0 | 0.00 | 1.52 | 0.00 | 93 | 1009.8 |
| 20260904040136 | 23 | 232 | 0.0 | 0.0 | 0.00 | 1.52 | 0.00 | 93 | 1009.8 |
| 20260904040132 | 23 | 232 | 0.0 | 0.0 | 0.00 | 1.52 | 0.00 | 93 | 1009.8 |
| 20260904040019 | 23 | 232 | 0.0 | 0.0 | 0.00 | 1.52 | 0.00 | 93 | 1010.0 |
| 20260904040012 | 23 | 232 | 0.0 | 0.0 | 0.00 | 1.52 | 0.00 | 93 | 1009.8 |
| 20260904035922 | 23 | 232 | 0.0 | 0.0 | 0.00 | 1.52 | 1.52 | 93 | 1009.8 |
| 20260904035821 | 23 | 232 | 0.0 | 0.0 | 0.00 | 1.52 | 1.52 | 93 | 1009.8 |
| 20260904035720 | 23 | 232 | 0.0 | 0.0 | 0.00 | 1.52 | 1.52 | 93 | 1009.8 |
| 20260904035620 | 23 | 232 | 0.0 | 0.0 | 0.00 | 1.52 | 1.52 | 93 | 1009.8 |
| 20260904035519 | 23 | 232 | 0.0 | 0.0 | 0.00 | 1.52 | 1.52 | 93 | 1010.0 |
| 20260904035513 | 23 | 232 | 0.0 | 0.0 | 0.00 | 1.52 | 1.52 | 93 | 1009.9 |
| 20260904035430 | 23 | 232 | 0.0 | 0.0 | 0.00 | 1.52 | 1.52 | 93 | 1009.8 |
| 20260904035425 | 23 | 232 | 0.0 | 0.0 | 0.00 | 1.52 | 1.52 | 93 | 1009.9 |
| 20260904035216 | 23 | 232 | 0.0 | 0.0 | 0.00 | 1.52 | 1.52 | 93 | 1009.8 |
| 20260904035115 | 23 | 232 | 0.0 | 0.0 | 0.00 | 1.52 | 1.52 | 93 | 1009.8 |
| 20260904035056 | 23 | 232 | 0.0 | 0.0 | 0.00 | 1.52 | 1.52 | 93 | 1009.7 |
| 20260904035044 | 23 | 232 | 0.0 | 0.0 | 0.00 | 1.52 | 1.52 | 93 | 1009.8 |
| 20260904035019 | 23 | 232 | 0.0 | 0.0 | 0.00 | 1.52 | 1.52 | 93 | 1009.9 |
| 20260904034932 | 23 | 232 | 0.0 | 0.0 | 0.00 | 1.52 | 1.52 | 93 | 1009.8 |
| 20260904034613 | 23 | 232 | 0.0 | 0.0 | 0.00 | 1.52 | 1.52 | 93 | 1009.7 |
| 20260904034546 | 23 | 232 | 0.0 | 0.0 | 0.00 | 1.52 | 1.52 | 93 | 1009.7 |
| 20260904034542 | 23 | 232 | 0.0 | 0.0 | 0.00 | 1.52 | 1.52 | 93 | 1009.8 |
| 20260904034532 | 23 | 232 | 0.0 | 0.0 | 0.00 | 1.52 | 1.52 | 93 | 1009.7 |
| 20260904034519 | 23 | 232 | 0.0 | 0.0 | 0.00 | 1.52 | 1.52 | 93 | 1009.8 |
| 20260904034225 | 23 | 232 | 0.0 | 0.0 | 0.00 | 1.52 | 1.52 | 93 | 1009.8 |
| 20260904034221 | 23 | 232 | 0.0 | 0.0 | 0.00 | 1.52 | 1.52 | 93 | 1009.8 |
| 20260904034049 | 23 | 232 | 0.0 | 0.0 | 0.00 | 1.52 | 1.52 | 93 | 1009.9 |
| 20260904034013 | 23 | 232 | 0.0 | 0.0 | 0.00 | 1.52 | 1.52 | 93 | 1009.8 |
| 20260904033910 | 23 | 232 | 0.0 | 0.0 | 0.00 | 1.52 | 1.52 | 93 | 1009.8 |
| 20260904033810 | 23 | 232 | 0.0 | 0.0 | 0.00 | 1.52 | 1.52 | 93 | 1009.8 |
| 20260904033708 | 23 | 232 | 0.0 | 0.0 | 0.00 | 1.52 | 1.52 | 93 | 1009.8 |
| 20260904033608 | 23 | 232 | 0.0 | 0.0 | 0.00 | 1.52 | 1.52 | 93 | 1009.8 |
| 20260904033519 | 23 | 232 | 0.0 | 0.0 | 0.00 | 1.52 | 1.52 | 93 | 1010.0 |
| 20260904033508 | 23 | 232 | 0.0 | 0.0 | 0.00 | 1.52 | 1.52 | 93 | 1009.9 |
| 20260904033408 | 23 | 232 | 0.0 | 0.0 | 0.00 | 1.52 | 1.52 | 93 | 1009.9 |
| 20260904033306 | 23 | 232 | 0.0 | 0.0 | 0.00 | 1.52 | 1.52 | 93 | 1009.9 |
| 20260904033206 | 23 | 232 | 0.0 | 0.0 | 0.00 | 1.52 | 1.52 | 93 | 1009.9 |
| 20260904033106 | 23 | 232 | 0.0 | 0.0 | 0.00 | 1.52 | 1.52 | 93 | 1010.0 |
| 20260904033019 | 23 | 232 | 0.0 | 0.0 | 0.00 | 1.52 | 1.52 | 93 | 1010.0 |
| 20260904033005 | 23 | 232 | 0.0 | 0.0 | 0.00 | 1.52 | 1.52 | 93 | 1009.9 |
| 20260904032905 | 23 | 232 | 0.0 | 0.0 | 0.00 | 1.52 | 1.52 | 93 | 1010.0 |
| 20260904032803 | 23 | 232 | 0.0 | 0.0 | 0.00 | 1.52 | 1.52 | 93 | 1010.0 |
| 20260904032716 | 23 | 232 | 0.0 | 0.0 | 0.00 | 1.52 | 1.52 | 93 | 1010.0 |
| 20260904032712 | 23 | 232 | 0.0 | 0.0 | 0.00 | 1.52 | 1.52 | 93 | 1010.0 |
| 20260904032519 | 23 | 232 | 0.0 | 0.0 | 0.00 | 1.52 | 1.52 | 93 | 1010.1 |
| 20260904032508 | 23 | 232 | 0.0 | 0.0 | 0.00 | 1.52 | 1.52 | 93 | 1010.0 |
| 20260904032502 | 23 | 232 | 0.0 | 0.0 | 0.00 | 1.52 | 1.52 | 93 | 1010.0 |
| 20260904032402 | 23 | 232 | 0.0 | 0.0 | 0.00 | 1.52 | 1.52 | 93 | 1010.1 |
| 20260904032318 | 23 | 232 | 0.0 | 0.0 | 0.00 | 1.52 | 1.52 | 93 | 1010.1 |
| 20260904032314 | 23 | 232 | 0.0 | 0.0 | 0.00 | 1.52 | 1.52 | 93 | 1010.1 |
| 20260904032310 | 23 | 232 | 0.0 | 0.0 | 0.00 | 1.52 | 1.52 | 93 | 1010.1 |
| 20260904032116 | 23 | 232 | 0.0 | 0.0 | 0.00 | 1.52 | 1.52 | 93 | 1010.1 |
| 20260904032019 | 23 | 232 | 0.0 | 0.0 | 0.00 | 1.52 | 1.52 | 93 | 1010.3 |
| 20260904032000 | 23 | 232 | 0.0 | 0.0 | 0.00 | 1.52 | 1.52 | 93 | 1010.2 |
| 20260904031900 | 23 | 232 | 0.0 | 0.0 | 0.00 | 1.52 | 1.52 | 93 | 1010.2 |
| 20260904031759 | 23 | 232 | 0.0 | 0.0 | 0.00 | 1.52 | 1.52 | 93 | 1010.2 |
| 20260904031659 | 23 | 232 | 0.0 | 0.0 | 0.00 | 1.52 | 1.52 | 93 | 1010.2 |
| 20260904031559 | 23 | 232 | 0.0 | 0.0 | 0.00 | 1.52 | 1.52 | 93 | 1010.3 |
| 20260904031519 | 23 | 232 | 0.0 | 0.0 | 0.00 | 1.52 | 1.52 | 93 | 1010.4 |
| 20260904031506 | 23 | 232 | 0.0 | 0.0 | 0.00 | 1.52 | 1.52 | 93 | 1010.3 |
| 20260904031458 | 23 | 232 | 0.0 | 0.0 | 0.00 | 1.52 | 1.52 | 93 | 1010.3 |
| 20260904031358 | 23 | 232 | 0.0 | 0.0 | 0.00 | 1.52 | 1.52 | 92 | 1010.3 |
| 20260904031258 | 23 | 232 | 0.0 | 0.0 | 0.00 | 1.52 | 1.52 | 92 | 1010.4 |
| 20260904031229 | 23 | 232 | 0.0 | 0.0 | 0.00 | 1.52 | 1.52 | 92 | 1010.4 |
| 20260904031224 | 23 | 232 | 0.0 | 0.0 | 0.00 | 1.52 | 1.52 | 92 | 1010.4 |
| 20260904031019 | 23 | 232 | 0.0 | 0.0 | 0.00 | 1.52 | 1.52 | 92 | 1010.5 |
| 20260904030956 | 23 | 232 | 0.0 | 0.0 | 0.00 | 1.52 | 1.52 | 92 | 1010.4 |
| 20260904030856 | 23 | 232 | 0.0 | 0.0 | 0.00 | 1.52 | 1.52 | 92 | 1010.4 |
| 20260904030756 | 23 | 232 | 0.0 | 0.0 | 0.00 | 1.52 | 1.52 | 92 | 1010.4 |
| 20260904030655 | 23 | 232 | 0.0 | 0.0 | 0.00 | 1.52 | 1.52 | 92 | 1010.4 |
| 20260904030614 | 23 | 232 | 0.0 | 0.0 | 0.00 | 1.52 | 1.52 | 92 | 1010.4 |
| 20260904030600 | 23 | 232 | 0.0 | 0.0 | 0.00 | 1.52 | 1.52 | 92 | 1010.4 |
| 20260904030519 | 23 | 232 | 0.0 | 0.0 | 0.00 | 1.52 | 1.52 | 92 | 1010.5 |
| 20260904030354 | 23 | 232 | 0.0 | 0.0 | 0.00 | 1.52 | 1.52 | 92 | 1010.4 |
| 20260904030253 | 23 | 232 | 0.0 | 0.0 | 0.00 | 1.52 | 1.52 | 92 | 1010.3 |
| 20260904030203 | 23 | 232 | 0.0 | 0.0 | 0.00 | 1.52 | 1.52 | 92 | 1010.3 |
| 20260904030159 | 23 | 232 | 0.0 | 0.0 | 0.00 | 1.52 | 1.52 | 92 | 1010.3 |
| 20260904030019 | 23 | 232 | 0.0 | 0.0 | 0.00 | 1.52 | 1.52 | 92 | 1010.4 |
| 20260904030006 | 23 | 232 | 0.0 | 0.0 | 0.00 | 1.52 | 1.52 | 92 | 1010.3 |
| 20260904025949 | 23 | 232 | 0.0 | 0.0 | 0.00 | 1.52 | 1.52 | 92 | 1010.3 |
| 20260904025848 | 23 | 232 | 0.0 | 0.0 | 0.00 | 1.52 | 1.52 | 92 | 1010.4 |
| 20260904025747 | 23 | 232 | 0.0 | 0.0 | 0.00 | 1.52 | 1.52 | 92 | 1010.3 |
| 20260904025647 | 23 | 232 | 0.0 | 0.0 | 0.00 | 1.52 | 1.52 | 92 | 1010.4 |
| 20260904025547 | 23 | 232 | 0.0 | 0.0 | 0.00 | 1.52 | 1.52 | 92 | 1010.3 |
| 20260904025519 | 23 | 232 | 0.0 | 0.0 | 0.00 | 1.52 | 1.52 | 92 | 1010.4 |
| 20260904025507 | 23 | 232 | 0.0 | 0.0 | 0.00 | 1.52 | 1.52 | 92 | 1010.3 |
| 20260904025446 | 23 | 232 | 0.0 | 0.0 | 0.00 | 1.52 | 1.52 | 92 | 1010.3 |
| 20260904025346 | 23 | 232 | 0.0 | 0.0 | 0.00 | 1.52 | 1.52 | 92 | 1010.2 |
| 20260904025245 | 23 | 232 | 0.0 | 0.0 | 0.00 | 1.52 | 1.52 | 92 | 1010.3 |
| 20260904025145 | 23 | 232 | 0.0 | 0.0 | 0.00 | 1.52 | 1.52 | 92 | 1010.2 |
| 20260904025044 | 23 | 232 | 0.0 | 0.0 | 0.00 | 1.52 | 1.52 | 92 | 1010.2 |
| 20260904025019 | 23 | 232 | 0.0 | 0.0 | 0.00 | 1.52 | 1.52 | 92 | 1010.3 |
| 20260904025005 | 23 | 232 | 0.0 | 0.0 | 0.00 | 1.52 | 1.52 | 92 | 1010.2 |
| 20260904024944 | 23 | 232 | 0.0 | 0.0 | 0.00 | 1.52 | 1.52 | 92 | 1010.2 |
| 20260904024843 | 23 | 232 | 0.0 | 0.0 | 0.00 | 1.52 | 1.52 | 92 | 1010.2 |
| 20260904024743 | 23 | 232 | 0.0 | 0.0 | 0.00 | 1.52 | 1.52 | 92 | 1010.2 |
| 20260904024643 | 23 | 232 | 0.0 | 0.0 | 0.00 | 1.52 | 1.52 | 92 | 1010.2 |
| 20260904024543 | 23 | 232 | 0.0 | 0.0 | 0.00 | 1.52 | 1.52 | 92 | 1010.2 |
| 20260904024519 | 23 | 232 | 0.0 | 0.0 | 0.00 | 1.52 | 1.52 | 92 | 1010.3 |
| 20260904024505 | 23 | 232 | 0.0 | 0.0 | 0.00 | 1.52 | 1.52 | 92 | 1010.2 |
| 20260904024442 | 23 | 232 | 0.0 | 0.0 | 0.00 | 1.52 | 1.52 | 91 | 1010.2 |
| 20260904024348 | 23 | 232 | 0.0 | 0.0 | 0.00 | 1.52 | 1.52 | 91 | 1010.1 |
| 20260904024344 | 23 | 232 | 0.0 | 0.0 | 0.00 | 1.52 | 1.52 | 91 | 1010.2 |
| 20260904024335 | 23 | 232 | 0.0 | 0.0 | 0.00 | 1.52 | 1.52 | 91 | 1010.2 |
| 20260904024222 | 23 | 232 | 0.0 | 0.0 | 0.00 | 1.52 | 1.52 | 91 | 1010.2 |
| 20260904024019 | 23 | 232 | 0.0 | 0.0 | 0.00 | 1.52 | 1.52 | 91 | 1010.2 |
| 20260904023938 | 23 | 232 | 0.0 | 0.0 | 0.00 | 1.52 | 1.52 | 91 | 1010.1 |
| 20260904023837 | 23 | 232 | 0.0 | 0.0 | 0.00 | 1.52 | 1.52 | 91 | 1010.1 |
| 20260904023736 | 23 | 232 | 0.0 | 0.0 | 0.00 | 1.52 | 1.52 | 91 | 1010.1 |
| 20260904023635 | 23 | 232 | 0.0 | 0.0 | 0.00 | 1.52 | 1.52 | 91 | 1010.0 |
| 20260904023549 | 23 | 232 | 0.0 | 0.0 | 0.00 | 1.52 | 1.52 | 91 | 1010.1 |
| 20260904023535 | 23 | 232 | 0.0 | 0.0 | 0.00 | 1.52 | 1.52 | 91 | 1010.1 |
| 20260904023504 | 23 | 232 | 0.0 | 0.0 | 0.00 | 1.52 | 1.52 | 91 | 1010.0 |
| 20260904023435 | 23 | 232 | 0.0 | 0.0 | 0.00 | 1.52 | 1.52 | 91 | 1010.0 |
| 20260904023334 | 23 | 232 | 0.0 | 0.0 | 0.00 | 1.52 | 1.52 | 91 | 1010.1 |
| 20260904023235 | 23 | 232 | 0.0 | 0.0 | 0.00 | 1.52 | 1.52 | 91 | 1010.0 |
| 20260904023134 | 23 | 232 | 0.0 | 0.0 | 0.00 | 1.52 | 1.52 | 91 | 1010.1 |
| 20260904023019 | 23 | 232 | 0.0 | 0.0 | 0.00 | 1.52 | 1.52 | 91 | 1010.1 |
| 20260904023003 | 23 | 232 | 0.0 | 0.0 | 0.00 | 1.52 | 1.52 | 91 | 1010.0 |
| 20260904022934 | 23 | 232 | 0.0 | 0.0 | 0.00 | 1.52 | 1.52 | 91 | 1010.0 |
| 20260904022832 | 23 | 232 | 0.0 | 0.0 | 0.00 | 1.52 | 1.52 | 91 | 1010.0 |
| 20260904022732 | 23 | 232 | 0.0 | 0.0 | 0.00 | 1.52 | 1.52 | 91 | 1010.0 |
| 20260904022631 | 23 | 232 | 0.0 | 0.0 | 0.00 | 1.52 | 1.52 | 91 | 1010.0 |
| 20260904022519 | 23 | 232 | 0.0 | 0.0 | 0.00 | 1.52 | 1.52 | 91 | 1010.1 |
| 20260904022502 | 23 | 232 | 0.0 | 0.0 | 0.00 | 1.52 | 1.52 | 91 | 1010.0 |
| 20260904022443 | 23 | 232 | 0.0 | 0.0 | 0.00 | 1.52 | 1.52 | 91 | 1010.1 |
| 20260904022439 | 23 | 232 | 0.0 | 0.0 | 0.00 | 1.52 | 1.52 | 91 | 1010.0 |
| 20260904022230 | 23 | 232 | 0.0 | 0.0 | 0.00 | 1.52 | 1.52 | 91 | 1010.1 |
| 20260904022211 | 23 | 232 | 0.0 | 0.0 | 0.00 | 1.52 | 1.52 | 90 | 1010.2 |
| 20260904022206 | 23 | 232 | 0.0 | 0.0 | 0.00 | 1.52 | 1.52 | 90 | 1010.1 |
| 20260904022045 | 23 | 232 | 0.0 | 0.0 | 0.00 | 1.52 | 1.52 | 90 | 1010.2 |
| 20260904022019 | 23 | 232 | 0.0 | 0.0 | 0.00 | 1.52 | 1.52 | 90 | 1010.3 |
| 20260904021728 | 23 | 232 | 0.0 | 0.0 | 0.00 | 1.52 | 1.52 | 90 | 1010.2 |
| 20260904021628 | 23 | 232 | 0.0 | 0.0 | 0.00 | 1.52 | 1.52 | 90 | 1010.2 |
| 20260904021526 | 23 | 232 | 0.0 | 0.0 | 0.00 | 1.52 | 1.52 | 90 | 1010.2 |
| 20260904021519 | 23 | 232 | 0.0 | 0.0 | 0.00 | 1.52 | 1.52 | 90 | 1010.2 |
| 20260904021502 | 23 | 232 | 0.0 | 0.0 | 0.00 | 1.52 | 1.52 | 90 | 1010.1 |
| 20260904021426 | 23 | 232 | 0.0 | 0.0 | 0.00 | 1.52 | 1.52 | 90 | 1010.1 |
| 20260904021326 | 23 | 232 | 0.0 | 0.0 | 0.00 | 1.52 | 1.52 | 90 | 1010.2 |
| 20260904021226 | 23 | 232 | 0.0 | 0.0 | 0.00 | 1.52 | 1.52 | 90 | 1010.3 |
| 20260904021126 | 23 | 232 | 0.0 | 0.0 | 0.00 | 1.52 | 1.52 | 90 | 1010.3 |
| 20260904021045 | 23 | 232 | 0.0 | 0.0 | 0.00 | 1.52 | 1.52 | 90 | 1010.3 |
| 20260904021034 | 23 | 232 | 0.0 | 0.0 | 0.00 | 1.52 | 1.52 | 90 | 1010.4 |
| 20260904021032 | 23 | 232 | 0.0 | 0.0 | 0.00 | 1.52 | 1.52 | 90 | 1010.3 |
| 20260904020904 | 23 | 232 | 0.0 | 0.0 | 0.00 | 1.52 | 1.52 | 90 | 1010.4 |
| 20260904020900 | 24 | 232 | 0.0 | 0.0 | 0.00 | 1.52 | 1.52 | 90 | 1010.3 |
| 20260904020856 | 24 | 232 | 0.0 | 0.0 | 0.00 | 1.52 | 1.52 | 90 | 1010.4 |
| 20260904020851 | 23 | 232 | 0.0 | 0.0 | 0.00 | 1.52 | 1.52 | 90 | 1010.4 |
| 20260904020519 | 24 | 232 | 0.0 | 0.0 | 0.00 | 1.52 | 1.52 | 90 | 1010.5 |
| 20260904020501 | 24 | 232 | 0.0 | 0.0 | 0.00 | 1.52 | 1.52 | 90 | 1010.4 |
| 20260904020434 | 24 | 232 | 0.0 | 0.0 | 0.00 | 1.52 | 1.52 | 90 | 1010.4 |
| 20260904020430 | 24 | 232 | 0.0 | 0.0 | 0.00 | 1.52 | 1.52 | 90 | 1010.4 |
| 20260904020221 | 24 | 232 | 0.0 | 0.0 | 0.00 | 1.52 | 1.52 | 90 | 1010.4 |
| 20260904020120 | 24 | 232 | 0.0 | 0.0 | 0.00 | 1.52 | 1.52 | 90 | 1010.4 |
| 20260904020034 | 24 | 232 | 0.0 | 0.0 | 0.00 | 1.52 | 1.52 | 90 | 1010.6 |
| 20260904020003 | 24 | 232 | 0.0 | 0.0 | 0.00 | 1.52 | 1.52 | 90 | 1010.5 |
| 20260904015941 | 24 | 232 | 0.0 | 0.0 | 0.00 | 1.52 | 1.52 | 90 | 1010.5 |
| 20260904015828 | 24 | 232 | 0.0 | 0.0 | 0.00 | 1.52 | 1.52 | 90 | 1010.5 |
| 20260904015617 | 24 | 232 | 0.0 | 0.0 | 0.00 | 1.52 | 1.52 | 90 | 1010.6 |
| 20260904015519 | 24 | 232 | 0.0 | 0.0 | 0.00 | 1.52 | 1.52 | 90 | 1010.7 |
| 20260904015503 | 24 | 232 | 0.0 | 0.0 | 0.00 | 1.52 | 1.52 | 90 | 1010.6 |
| 20260904015416 | 24 | 232 | 0.0 | 0.0 | 0.00 | 1.52 | 1.52 | 90 | 1010.6 |
| 20260904015316 | 24 | 232 | 0.0 | 0.0 | 0.00 | 1.52 | 1.52 | 90 | 1010.7 |
| 20260904015215 | 24 | 232 | 0.0 | 0.0 | 0.00 | 1.52 | 1.52 | 90 | 1010.7 |
| 20260904015115 | 24 | 232 | 0.0 | 0.0 | 0.00 | 1.52 | 1.52 | 90 | 1010.7 |
| 20260904015019 | 24 | 232 | 0.0 | 0.0 | 0.00 | 1.52 | 1.52 | 89 | 1010.8 |
| 20260904015014 | 24 | 232 | 0.0 | 0.0 | 0.00 | 1.52 | 1.52 | 89 | 1010.7 |
| 20260904015002 | 24 | 232 | 0.0 | 0.0 | 0.00 | 1.52 | 1.52 | 89 | 1010.7 |
| 20260904014926 | 24 | 232 | 0.0 | 0.0 | 0.00 | 1.52 | 1.52 | 89 | 1010.7 |
| 20260904014922 | 24 | 232 | 0.0 | 0.0 | 0.00 | 1.52 | 1.52 | 89 | 1010.7 |
| 20260904014712 | 24 | 232 | 0.0 | 0.0 | 0.00 | 1.52 | 1.52 | 89 | 1010.8 |
| 20260904014612 | 24 | 232 | 0.0 | 0.0 | 0.00 | 1.52 | 1.52 | 89 | 1010.7 |
| 20260904014534 | 24 | 232 | 0.0 | 0.0 | 0.00 | 1.52 | 1.52 | 89 | 1010.7 |
| 20260904014512 | 24 | 232 | 0.0 | 0.0 | 0.00 | 1.52 | 1.52 | 89 | 1010.7 |
| 20260904014501 | 24 | 232 | 0.0 | 0.0 | 0.00 | 1.52 | 1.52 | 89 | 1010.7 |
| 20260904014410 | 24 | 232 | 0.0 | 0.0 | 0.00 | 1.52 | 1.52 | 89 | 1010.7 |
| 20260904014310 | 24 | 232 | 0.0 | 0.0 | 0.00 | 1.52 | 1.52 | 89 | 1010.6 |
| 20260904014209 | 24 | 232 | 0.0 | 0.0 | 0.00 | 1.52 | 1.52 | 89 | 1010.6 |
| 20260904014109 | 24 | 232 | 0.0 | 0.0 | 0.00 | 1.52 | 1.52 | 89 | 1010.5 |
| 20260904014023 | 24 | 232 | 0.0 | 0.0 | 0.00 | 1.52 | 1.52 | 89 | 1010.5 |
| 20260904014019 | 24 | 232 | 0.0 | 0.0 | 0.00 | 1.52 | 1.52 | 89 | 1010.6 |
| 20260904014016 | 24 | 232 | 0.0 | 0.0 | 0.00 | 1.52 | 1.52 | 89 | 1010.6 |
| 20260904013807 | 24 | 232 | 0.0 | 0.0 | 0.00 | 1.52 | 1.52 | 89 | 1010.6 |
| 20260904013708 | 24 | 232 | 0.0 | 0.0 | 0.00 | 1.52 | 1.52 | 89 | 1010.6 |
| 20260904013607 | 24 | 232 | 0.0 | 0.0 | 0.00 | 1.52 | 1.52 | 89 | 1010.6 |
| 20260904013519 | 24 | 232 | 0.0 | 0.0 | 0.00 | 1.52 | 1.52 | 89 | 1010.7 |
| 20260904013507 | 24 | 232 | 0.0 | 0.0 | 0.00 | 1.52 | 1.52 | 89 | 1010.7 |
| 20260904013456 | 24 | 232 | 0.0 | 0.0 | 0.00 | 1.52 | 1.52 | 89 | 1010.7 |
| 20260904013406 | 24 | 232 | 0.0 | 0.0 | 0.00 | 1.52 | 1.52 | 89 | 1010.6 |
| 20260904013305 | 24 | 232 | 0.0 | 0.0 | 0.00 | 1.52 | 1.52 | 89 | 1010.7 |
| 20260904013205 | 24 | 232 | 0.0 | 0.0 | 0.00 | 1.52 | 1.52 | 89 | 1010.7 |
| 20260904013105 | 24 | 232 | 0.0 | 0.0 | 0.00 | 1.52 | 1.52 | 89 | 1010.7 |
| 20260904013019 | 24 | 232 | 0.0 | 0.0 | 0.00 | 1.52 | 1.52 | 89 | 1010.7 |
| 20260904012954 | 24 | 232 | 0.0 | 0.0 | 0.00 | 1.52 | 1.52 | 89 | 1010.7 |
| 20260904012904 | 24 | 232 | 0.0 | 0.0 | 0.00 | 1.52 | 1.52 | 89 | 1010.6 |
| 20260904012803 | 24 | 232 | 0.0 | 0.0 | 0.00 | 1.52 | 1.52 | 89 | 1010.7 |
| 20260904012703 | 24 | 232 | 0.0 | 0.0 | 0.00 | 1.52 | 1.52 | 89 | 1010.6 |
| 20260904012601 | 24 | 232 | 0.0 | 0.0 | 0.00 | 1.52 | 1.52 | 89 | 1010.7 |
| 20260904012519 | 24 | 232 | 0.0 | 0.0 | 0.00 | 1.52 | 1.52 | 89 | 1010.6 |
| 20260904012455 | 24 | 232 | 0.0 | 0.0 | 0.00 | 1.52 | 1.52 | 89 | 1010.6 |
| 20260904012414 | 24 | 232 | 0.0 | 0.0 | 0.00 | 1.52 | 1.52 | 89 | 1010.7 |
| 20260904012410 | 24 | 232 | 0.0 | 0.0 | 0.00 | 1.52 | 1.52 | 89 | 1010.6 |
| 20260904012200 | 24 | 232 | 0.0 | 0.0 | 0.00 | 1.52 | 1.52 | 89 | 1010.6 |
| 20260904012100 | 24 | 232 | 0.0 | 0.0 | 0.00 | 1.52 | 1.52 | 89 | 1010.6 |
| 20260904012034 | 24 | 232 | 0.0 | 0.0 | 0.00 | 1.52 | 1.52 | 89 | 1010.6 |
| 20260904012019 | 24 | 232 | 0.0 | 0.0 | 0.00 | 1.52 | 1.52 | 89 | 1010.7 |
| 20260904012007 | 24 | 232 | 0.0 | 0.0 | 0.00 | 1.52 | 1.52 | 89 | 1010.6 |
| 20260904011759 | 24 | 232 | 0.0 | 0.0 | 0.00 | 1.52 | 1.52 | 89 | 1010.7 |
| 20260904011658 | 24 | 232 | 0.0 | 0.0 | 0.00 | 1.52 | 1.52 | 89 | 1010.7 |
| 20260904011558 | 24 | 232 | 0.0 | 0.0 | 0.00 | 1.52 | 1.52 | 89 | 1010.8 |
| 20260904011519 | 24 | 232 | 0.0 | 0.0 | 0.00 | 1.52 | 1.52 | 89 | 1010.7 |
| 20260904011517 | 24 | 232 | 0.0 | 0.0 | 0.00 | 1.52 | 1.52 | 89 | 1010.7 |
| 20260904011405 | 24 | 232 | 0.0 | 0.0 | 0.00 | 1.52 | 1.52 | 89 | 1010.8 |
| 20260904011155 | 24 | 232 | 0.0 | 0.0 | 0.00 | 1.52 | 1.52 | 89 | 1010.8 |
| 20260904011055 | 24 | 232 | 0.0 | 0.0 | 0.00 | 1.52 | 1.52 | 89 | 1010.8 |
| 20260904011019 | 25 | 232 | 0.0 | 0.0 | 0.00 | 1.52 | 1.52 | 89 | 1010.9 |
| 20260904011014 | 24 | 232 | 0.0 | 0.0 | 0.00 | 1.52 | 1.52 | 89 | 1010.9 |
| 20260904011004 | 24 | 232 | 0.0 | 0.0 | 0.00 | 1.52 | 1.52 | 89 | 1010.9 |
| 20260904010753 | 24 | 232 | 0.0 | 0.0 | 0.00 | 1.52 | 1.52 | 88 | 1010.9 |
| 20260904010706 | 24 | 232 | 0.0 | 0.0 | 0.00 | 1.52 | 1.52 | 88 | 1011.0 |
| 20260904010702 | 25 | 232 | 0.0 | 0.0 | 0.00 | 1.52 | 1.52 | 88 | 1011.0 |
| 20260904010549 | 25 | 232 | 0.0 | 0.0 | 0.00 | 1.52 | 1.52 | 88 | 1011.0 |
| 20260904010452 | 25 | 232 | 0.0 | 0.0 | 0.00 | 1.52 | 1.52 | 88 | 1011.0 |
| 20260904010400 | 25 | 232 | 0.0 | 0.0 | 0.00 | 1.52 | 1.52 | 88 | 1011.0 |
| 20260904010351 | 25 | 232 | 0.0 | 0.0 | 0.00 | 1.52 | 1.52 | 88 | 1011.0 |
| 20260904010240 | 25 | 232 | 0.0 | 0.0 | 0.00 | 1.52 | 1.52 | 88 | 1010.9 |
| 20260904010234 | 25 | 232 | 0.0 | 0.0 | 0.00 | 1.52 | 1.52 | 88 | 1011.0 |
| 20260904010115 | 25 | 232 | 0.0 | 0.0 | 0.00 | 1.52 | 1.52 | 88 | 1010.9 |
| 20260904010019 | 25 | 232 | 0.0 | 0.0 | 0.00 | 1.52 | 1.52 | 88 | 1010.9 |
| 20260904005857 | 25 | 232 | 0.0 | 0.0 | 0.00 | 1.52 | 1.52 | 87 | 1010.9 |
| 20260904005647 | 25 | 232 | 0.0 | 0.0 | 0.00 | 1.52 | 1.52 | 87 | 1010.7 |
| 20260904005549 | 25 | 232 | 0.0 | 0.0 | 0.00 | 1.52 | 1.52 | 87 | 1010.7 |
| 20260904005547 | 25 | 232 | 0.0 | 0.0 | 0.00 | 1.52 | 1.52 | 87 | 1010.7 |
| 20260904005446 | 25 | 232 | 0.0 | 0.0 | 0.00 | 1.52 | 1.52 | 87 | 1010.7 |
| 20260904005346 | 25 | 232 | 0.0 | 0.0 | 0.00 | 1.52 | 1.52 | 87 | 1010.7 |
| 20260904005246 | 25 | 232 | 0.0 | 0.0 | 0.00 | 1.52 | 1.52 | 87 | 1010.7 |
| 20260904005145 | 25 | 232 | 0.0 | 0.0 | 0.00 | 1.52 | 1.52 | 87 | 1010.8 |
| 20260904005045 | 25 | 232 | 0.0 | 0.0 | 0.00 | 1.52 | 1.52 | 87 | 1010.8 |
| 20260904005019 | 25 | 232 | 0.0 | 0.0 | 0.00 | 1.52 | 1.52 | 87 | 1010.9 |
| 20260904004944 | 25 | 232 | 0.0 | 0.0 | 0.00 | 1.52 | 1.52 | 87 | 1010.9 |
| 20260904004857 | 25 | 232 | 0.0 | 0.0 | 0.00 | 1.52 | 1.52 | 87 | 1010.9 |
| 20260904004853 | 25 | 232 | 0.0 | 0.0 | 0.00 | 1.52 | 1.52 | 87 | 1010.9 |
| 20260904004643 | 25 | 232 | 0.0 | 0.0 | 0.00 | 1.52 | 1.52 | 87 | 1010.9 |
| 20260904004543 | 25 | 232 | 0.0 | 0.0 | 0.00 | 1.52 | 1.52 | 87 | 1010.8 |
| 20260904004519 | 25 | 232 | 0.0 | 0.0 | 0.00 | 1.52 | 1.52 | 87 | 1010.8 |
| 20260904004500 | 25 | 232 | 0.0 | 0.0 | 0.00 | 1.52 | 1.52 | 87 | 1010.8 |
| 20260904004449 | 25 | 232 | 0.0 | 0.0 | 0.00 | 1.52 | 1.52 | 87 | 1010.8 |
| 20260904004239 | 25 | 232 | 0.0 | 0.0 | 0.00 | 1.52 | 1.52 | 87 | 1010.8 |
| 20260904004139 | 25 | 232 | 0.0 | 0.0 | 0.00 | 1.52 | 1.52 | 87 | 1010.8 |
| 20260904004039 | 25 | 232 | 0.0 | 0.0 | 0.00 | 1.52 | 1.52 | 87 | 1010.8 |
| 20260904004019 | 25 | 232 | 0.0 | 0.0 | 0.00 | 1.52 | 1.52 | 87 | 1010.7 |
| 20260904003938 | 25 | 232 | 0.0 | 0.0 | 0.00 | 1.52 | 1.52 | 87 | 1010.7 |
| 20260904003835 | 25 | 232 | 0.0 | 0.0 | 0.00 | 1.52 | 1.52 | 87 | 1010.7 |
| 20260904003735 | 25 | 232 | 0.0 | 0.0 | 0.00 | 1.52 | 1.52 | 86 | 1010.8 |
| 20260904003648 | 25 | 232 | 0.0 | 0.0 | 0.00 | 1.52 | 1.52 | 86 | 1010.8 |
| 20260904003644 | 25 | 232 | 0.0 | 0.0 | 0.00 | 1.52 | 1.52 | 86 | 1010.8 |
| 20260904003519 | 25 | 232 | 0.0 | 0.0 | 0.00 | 1.52 | 1.52 | 86 | 1010.8 |
| 20260904003434 | 25 | 232 | 0.0 | 0.0 | 0.00 | 1.52 | 1.52 | 86 | 1010.8 |
| 20260904003345 | 25 | 232 | 0.0 | 0.0 | 0.00 | 1.52 | 1.52 | 86 | 1010.8 |
| 20260904003341 | 25 | 232 | 0.0 | 0.0 | 0.00 | 1.52 | 1.52 | 86 | 1010.8 |
| 20260904003132 | 25 | 232 | 0.0 | 0.0 | 0.00 | 1.52 | 1.52 | 86 | 1010.8 |
| 20260904003031 | 25 | 232 | 0.0 | 0.0 | 0.00 | 1.52 | 1.52 | 86 | 1010.9 |
| 20260904003019 | 25 | 232 | 0.0 | 0.0 | 0.00 | 1.52 | 1.52 | 86 | 1010.8 |
| 20260904002931 | 25 | 232 | 0.0 | 0.0 | 0.00 | 1.52 | 1.52 | 86 | 1010.8 |
| 20260904002843 | 25 | 232 | 0.0 | 0.0 | 0.00 | 1.52 | 1.52 | 86 | 1010.8 |
| 20260904002839 | 25 | 232 | 0.0 | 0.0 | 0.00 | 1.52 | 1.52 | 86 | 1010.8 |
| 20260904002702 | 25 | 232 | 0.0 | 0.0 | 0.00 | 1.52 | 1.52 | 86 | 1010.7 |
| 20260904002657 | 25 | 232 | 0.0 | 0.0 | 0.00 | 1.52 | 1.52 | 86 | 1010.7 |
| 20260904002652 | 25 | 232 | 0.0 | 0.0 | 0.00 | 1.52 | 1.52 | 86 | 1010.8 |
| 20260904002534 | 25 | 232 | 0.0 | 0.0 | 0.00 | 1.52 | 1.52 | 86 | 1010.7 |
| 20260904002520 | 25 | 232 | 0.0 | 0.0 | 0.00 | 1.52 | 1.52 | 86 | 1010.7 |
| 20260904002327 | 25 | 232 | 0.0 | 0.0 | 0.00 | 1.52 | 1.52 | 86 | 1010.6 |
| 20260904002227 | 25 | 232 | 0.0 | 0.0 | 0.00 | 1.52 | 1.52 | 86 | 1010.6 |
| 20260904002126 | 25 | 232 | 0.0 | 0.0 | 0.00 | 1.52 | 1.52 | 86 | 1010.5 |
| 20260904002026 | 25 | 232 | 0.0 | 0.0 | 0.00 | 1.52 | 1.52 | 85 | 1010.4 |
| 20260904002019 | 25 | 232 | 0.0 | 0.0 | 0.00 | 1.52 | 1.52 | 85 | 1010.4 |
| 20260904001925 | 25 | 232 | 0.0 | 0.0 | 0.00 | 1.52 | 1.52 | 85 | 1010.4 |
| 20260904001825 | 25 | 232 | 0.0 | 0.0 | 0.00 | 1.52 | 1.52 | 85 | 1010.4 |
| 20260904001725 | 25 | 232 | 0.0 | 0.0 | 0.00 | 1.52 | 1.52 | 85 | 1010.4 |
| 20260904001624 | 25 | 232 | 0.0 | 0.0 | 0.00 | 1.52 | 1.52 | 85 | 1010.4 |
| 20260904001525 | 25 | 232 | 0.0 | 0.0 | 0.00 | 1.52 | 1.52 | 85 | 1010.3 |
| 20260904001519 | 25 | 232 | 0.0 | 0.0 | 0.00 | 1.52 | 1.52 | 85 | 1010.3 |
| 20260904001425 | 25 | 232 | 0.0 | 0.0 | 0.00 | 1.52 | 1.52 | 85 | 1010.3 |
| 20260904001323 | 25 | 232 | 0.0 | 0.0 | 0.00 | 1.52 | 1.52 | 84 | 1010.3 |
| 20260904001305 | 25 | 232 | 0.0 | 0.0 | 0.00 | 1.52 | 1.52 | 84 | 1010.3 |
| 20260904001259 | 25 | 232 | 0.0 | 0.0 | 0.00 | 1.52 | 1.52 | 84 | 1010.2 |
| 20260904001146 | 25 | 232 | 0.0 | 0.0 | 0.00 | 1.52 | 1.52 | 84 | 1010.3 |
| 20260904001029 | 25 | 232 | 0.0 | 0.0 | 0.00 | 1.52 | 1.52 | 84 | 1010.3 |
| 20260904001019 | 25 | 232 | 0.0 | 0.0 | 0.00 | 1.52 | 1.52 | 84 | 1010.3 |
| 20260904000819 | 25 | 232 | 0.0 | 0.0 | 0.00 | 1.52 | 1.52 | 84 | 1010.3 |
| 20260904000718 | 25 | 232 | 0.0 | 0.0 | 0.00 | 1.52 | 1.52 | 84 | 1010.3 |
| 20260904000618 | 25 | 232 | 0.0 | 0.0 | 0.00 | 1.52 | 1.52 | 84 | 1010.3 |
| 20260904000519 | 25 | 232 | 0.0 | 0.0 | 0.00 | 1.52 | 1.52 | 84 | 1010.2 |
| 20260904000440 | 25 | 232 | 0.0 | 0.0 | 0.00 | 1.52 | 1.52 | 84 | 1010.2 |
| 20260904000418 | 25 | 232 | 0.0 | 0.0 | 0.00 | 1.52 | 1.52 | 83 | 1010.2 |
| 20260904000318 | 25 | 232 | 0.0 | 0.0 | 0.00 | 1.52 | 1.52 | 83 | 1010.2 |
| 20260904000215 | 25 | 232 | 0.0 | 0.0 | 0.00 | 1.52 | 1.52 | 83 | 1010.2 |
| 20260904000203 | 26 | 232 | 0.0 | 0.0 | 0.00 | 1.52 | 1.52 | 82 | 1010.1 |
| 20260904000115 | 25 | 232 | 0.0 | 0.0 | 0.00 | 1.52 | 1.52 | 83 | 1010.2 |
| 20260904000048 | 26 | 232 | 0.0 | 0.0 | 0.00 | 1.52 | 1.52 | 83 | 1010.2 |
| 20260904000019 | 26 | 232 | 0.0 | 0.0 | 0.00 | 1.52 | 1.52 | 82 | 1010.1 |
| 20260903235914 | 26 | 232 | 0.0 | 0.0 | 0.00 | 1.52 | 1.52 | 82 | 1010.1 |
| 20260903235812 | 26 | 232 | 0.0 | 0.0 | 0.00 | 1.52 | 1.52 | 82 | 1010.1 |
| 20260903235712 | 26 | 232 | 0.0 | 0.0 | 0.00 | 1.52 | 1.52 | 82 | 1010.1 |
| 20260903235610 | 26 | 232 | 0.0 | 0.0 | 0.00 | 1.52 | 1.52 | 82 | 1010.0 |
| 20260903235519 | 26 | 232 | 0.0 | 0.0 | 0.00 | 1.52 | 1.52 | 82 | 1010.1 |
| 20260903235510 | 26 | 232 | 0.0 | 0.0 | 0.00 | 1.52 | 1.52 | 82 | 1010.1 |
| 20260903235410 | 26 | 232 | 0.0 | 0.0 | 0.00 | 1.52 | 1.52 | 82 | 1010.1 |
| 20260903235310 | 26 | 232 | 0.0 | 0.0 | 0.00 | 1.52 | 1.52 | 81 | 1010.1 |
| 20260903235209 | 26 | 232 | 0.0 | 0.0 | 0.00 | 1.52 | 1.52 | 81 | 1010.2 |
| 20260903235108 | 26 | 232 | 0.0 | 0.0 | 0.00 | 1.52 | 1.52 | 81 | 1010.1 |
| 20260903235019 | 26 | 232 | 0.0 | 0.0 | 0.00 | 1.52 | 1.52 | 81 | 1010.1 |
| 20260903235008 | 26 | 232 | 0.0 | 0.0 | 0.00 | 1.52 | 1.52 | 81 | 1010.1 |
| 20260903234939 | 26 | 232 | 0.0 | 0.0 | 0.00 | 1.52 | 1.52 | 81 | 1010.1 |
| 20260903234906 | 26 | 232 | 0.0 | 0.0 | 0.00 | 1.52 | 1.52 | 81 | 1010.1 |
| 20260903234806 | 26 | 232 | 0.0 | 0.0 | 0.00 | 1.52 | 1.52 | 81 | 1010.1 |
| 20260903234720 | 26 | 232 | 0.0 | 0.0 | 0.00 | 1.52 | 1.52 | 81 | 1010.1 |
| 20260903234715 | 26 | 232 | 0.0 | 0.0 | 0.00 | 1.52 | 1.52 | 81 | 1010.1 |
| 20260903234519 | 26 | 232 | 0.0 | 0.0 | 0.00 | 1.52 | 1.52 | 80 | 1010.1 |
| 20260903234506 | 26 | 232 | 0.0 | 0.0 | 0.00 | 1.52 | 1.52 | 80 | 1010.1 |
| 20260903234437 | 26 | 232 | 0.0 | 0.0 | 0.00 | 1.52 | 1.52 | 80 | 1010.1 |
| 20260903234405 | 26 | 232 | 0.0 | 0.0 | 0.00 | 1.52 | 1.52 | 80 | 1010.2 |
| 20260903234305 | 26 | 232 | 0.0 | 0.0 | 0.00 | 1.52 | 1.52 | 81 | 1010.3 |
| 20260903234204 | 26 | 232 | 0.0 | 0.0 | 0.00 | 1.52 | 1.52 | 81 | 1010.3 |
| 20260903234152 | 26 | 232 | 0.0 | 0.0 | 0.00 | 1.52 | 1.52 | 81 | 1010.4 |
| 20260903234049 | 27 | 232 | 0.0 | 0.0 | 0.00 | 1.52 | 1.52 | 80 | 1010.3 |
| 20260903234030 | 26 | 232 | 0.0 | 0.0 | 0.00 | 1.52 | 1.52 | 80 | 1010.3 |
| 20260903233810 | 27 | 232 | 0.0 | 0.0 | 0.00 | 1.52 | 1.52 | 80 | 1010.4 |
| 20260903233616 | 27 | 232 | 0.0 | 0.0 | 0.00 | 1.52 | 1.52 | 80 | 1010.4 |
| 20260903233610 | 27 | 232 | 0.0 | 0.0 | 0.00 | 1.52 | 1.52 | 80 | 1010.4 |
| 20260903233519 | 27 | 232 | 0.0 | 0.0 | 0.00 | 1.52 | 1.52 | 80 | 1010.4 |
| 20260903233435 | 27 | 232 | 0.0 | 0.0 | 0.00 | 1.52 | 1.52 | 80 | 1010.4 |
| 20260903233401 | 27 | 232 | 0.0 | 0.0 | 0.00 | 1.52 | 1.52 | 80 | 1010.4 |
| 20260903233300 | 27 | 232 | 0.0 | 0.0 | 0.00 | 1.52 | 1.52 | 80 | 1010.4 |
| 20260903233200 | 27 | 232 | 0.0 | 0.0 | 0.00 | 1.52 | 1.52 | 80 | 1010.4 |
| 20260903233059 | 27 | 232 | 0.0 | 0.0 | 0.00 | 1.52 | 1.52 | 80 | 1010.4 |
| 20260903233034 | 27 | 232 | 0.0 | 0.0 | 0.00 | 1.52 | 1.52 | 80 | 1010.4 |
| 20260903232933 | 27 | 232 | 0.0 | 0.0 | 0.00 | 1.52 | 1.52 | 80 | 1010.4 |
| 20260903232858 | 27 | 232 | 0.0 | 0.0 | 0.00 | 1.52 | 1.52 | 79 | 1010.5 |
| 20260903232758 | 27 | 232 | 0.0 | 0.0 | 0.00 | 1.52 | 1.52 | 79 | 1010.4 |
| 20260903232702 | 27 | 232 | 0.0 | 0.0 | 0.00 | 1.52 | 1.52 | 79 | 1010.4 |
| 20260903232658 | 27 | 232 | 0.0 | 0.0 | 0.00 | 1.52 | 1.52 | 79 | 1010.4 |
| 20260903232557 | 27 | 232 | 0.0 | 0.0 | 0.00 | 1.52 | 1.52 | 79 | 1010.4 |
| 20260903232539 | 27 | 232 | 0.0 | 0.0 | 0.00 | 1.52 | 1.52 | 79 | 1010.4 |
| 20260903232519 | 27 | 232 | 0.0 | 0.0 | 0.00 | 1.52 | 1.52 | 79 | 1010.4 |
| 20260903232356 | 27 | 232 | 0.0 | 0.0 | 0.00 | 1.52 | 1.52 | 79 | 1010.3 |
| 20260903232255 | 27 | 232 | 0.0 | 0.0 | 0.00 | 1.52 | 1.52 | 79 | 1010.3 |
| 20260903232157 | 27 | 232 | 0.0 | 0.0 | 0.00 | 1.52 | 1.52 | 78 | 1010.3 |
| 20260903232150 | 27 | 232 | 0.0 | 0.0 | 0.00 | 1.52 | 1.52 | 78 | 1010.4 |
| 20260903232055 | 27 | 232 | 0.0 | 0.0 | 0.00 | 1.52 | 1.52 | 78 | 1010.4 |
| 20260903232038 | 27 | 232 | 0.0 | 0.0 | 0.00 | 1.52 | 1.52 | 78 | 1010.4 |
| 20260903232019 | 27 | 232 | 0.0 | 0.0 | 0.00 | 1.52 | 1.52 | 78 | 1010.3 |
| 20260903231853 | 27 | 232 | 0.0 | 0.0 | 0.00 | 1.52 | 1.52 | 77 | 1010.4 |
| 20260903231753 | 27 | 232 | 0.0 | 0.0 | 0.00 | 1.52 | 1.52 | 77 | 1010.4 |
| 20260903231653 | 28 | 232 | 0.0 | 0.0 | 0.00 | 1.52 | 1.52 | 77 | 1010.4 |
| 20260903231552 | 28 | 232 | 0.0 | 0.0 | 0.00 | 1.52 | 1.52 | 77 | 1010.4 |
| 20260903231519 | 28 | 232 | 0.0 | 0.0 | 0.00 | 1.52 | 1.52 | 77 | 1010.3 |
| 20260903231430 | 28 | 232 | 0.0 | 0.0 | 0.00 | 1.52 | 1.52 | 76 | 1010.4 |
| 20260903231351 | 28 | 232 | 0.0 | 0.0 | 0.00 | 1.52 | 1.52 | 76 | 1010.3 |
| 20260903231251 | 28 | 232 | 0.0 | 0.0 | 0.00 | 1.52 | 1.52 | 76 | 1010.3 |
| 20260903231153 | 28 | 232 | 0.0 | 0.0 | 0.00 | 1.52 | 1.52 | 76 | 1010.3 |
| 20260903231146 | 28 | 232 | 0.0 | 0.0 | 0.00 | 1.52 | 1.52 | 76 | 1010.3 |
| 20260903231051 | 28 | 232 | 0.0 | 0.0 | 0.00 | 1.52 | 1.52 | 76 | 1010.3 |
| 20260903231035 | 28 | 232 | 0.0 | 0.0 | 0.00 | 1.52 | 1.52 | 76 | 1010.3 |
| 20260903230848 | 28 | 232 | 0.0 | 0.0 | 0.00 | 1.52 | 1.52 | 75 | 1010.4 |
| 20260903230748 | 28 | 232 | 0.0 | 0.0 | 0.00 | 1.52 | 1.52 | 75 | 1010.3 |
| 20260903230648 | 28 | 232 | 0.0 | 0.0 | 0.00 | 1.52 | 1.52 | 74 | 1010.4 |
| 20260903230547 | 28 | 232 | 0.0 | 0.0 | 0.00 | 1.52 | 1.52 | 74 | 1010.5 |
| 20260903230519 | 28 | 232 | 0.0 | 0.0 | 0.00 | 1.52 | 1.52 | 74 | 1010.3 |
| 20260903230427 | 28 | 232 | 0.0 | 0.0 | 0.00 | 1.52 | 1.52 | 74 | 1010.4 |
| 20260903230408 | 28 | 232 | 0.0 | 0.0 | 0.00 | 1.52 | 1.52 | 74 | 1010.4 |
| 20260903230254 | 28 | 232 | 0.0 | 0.0 | 0.00 | 1.52 | 1.52 | 74 | 1010.3 |
| 20260903230058 | 28 | 232 | 0.0 | 0.0 | 0.00 | 1.52 | 1.52 | 73 | 1010.1 |
| 20260903230052 | 28 | 232 | 0.0 | 0.0 | 0.00 | 1.52 | 1.52 | 73 | 1010.2 |
| 20260903230019 | 28 | 232 | 0.0 | 0.0 | 0.00 | 1.52 | 1.52 | 73 | 1010.0 |
| 20260903225928 | 28 | 232 | 0.0 | 0.0 | 0.00 | 1.52 | 1.52 | 72 | 1010.1 |
| 20260903225842 | 28 | 232 | 0.0 | 0.0 | 0.00 | 1.52 | 1.52 | 72 | 1010.1 |
| 20260903225741 | 28 | 232 | 0.0 | 0.0 | 0.00 | 1.52 | 1.52 | 72 | 1010.1 |
| 20260903225652 | 29 | 232 | 0.0 | 0.0 | 0.00 | 1.52 | 1.52 | 71 | 1010.1 |
| 20260903225641 | 29 | 232 | 0.0 | 0.0 | 0.00 | 1.52 | 1.52 | 72 | 1010.1 |
| 20260903225543 | 29 | 232 | 0.0 | 0.0 | 0.00 | 1.52 | 1.52 | 71 | 1010.1 |
| 20260903225534 | 29 | 232 | 0.0 | 0.0 | 0.00 | 1.52 | 1.52 | 71 | 1010.1 |
| 20260903225519 | 29 | 232 | 0.0 | 0.0 | 0.00 | 1.52 | 1.52 | 71 | 1010.0 |
| 20260903225338 | 29 | 232 | 0.0 | 0.0 | 0.00 | 1.52 | 1.52 | 71 | 1010.1 |
| 20260903225237 | 29 | 232 | 0.0 | 0.0 | 0.00 | 1.52 | 1.52 | 70 | 1010.1 |
| 20260903225149 | 30 | 232 | 0.0 | 0.0 | 0.00 | 1.52 | 1.52 | 70 | 1010.1 |
| 20260903225145 | 29 | 232 | 0.0 | 0.0 | 0.00 | 1.52 | 1.52 | 71 | 1010.1 |
| 20260903225019 | 30 | 232 | 0.0 | 0.0 | 0.00 | 1.52 | 1.52 | 70 | 1010.0 |
| 20260903224927 | 30 | 232 | 0.0 | 0.0 | 0.00 | 1.52 | 1.52 | 70 | 1010.1 |
| 20260903224834 | 30 | 232 | 0.0 | 0.0 | 0.00 | 1.52 | 1.52 | 70 | 1010.1 |
| 20260903224733 | 30 | 232 | 0.0 | 0.0 | 0.00 | 1.52 | 1.52 | 69 | 1010.2 |
| 20260903224633 | 30 | 232 | 0.0 | 0.0 | 0.00 | 1.52 | 1.52 | 69 | 1010.2 |
| 20260903224532 | 30 | 232 | 0.0 | 0.0 | 0.00 | 1.52 | 1.52 | 68 | 1010.2 |
| 20260903224519 | 30 | 232 | 0.0 | 0.0 | 0.00 | 1.52 | 1.52 | 68 | 1010.1 |
| 20260903224427 | 30 | 232 | 0.0 | 0.0 | 0.00 | 1.52 | 1.52 | 69 | 1010.2 |
| 20260903224331 | 30 | 232 | 0.0 | 0.0 | 0.00 | 1.52 | 1.52 | 68 | 1010.2 |
| 20260903224229 | 30 | 232 | 0.0 | 0.0 | 0.00 | 1.52 | 1.52 | 67 | 1010.2 |
| 20260903224129 | 30 | 232 | 0.0 | 0.0 | 0.00 | 1.52 | 1.52 | 67 | 1010.2 |
| 20260903224029 | 30 | 232 | 0.0 | 0.0 | 0.00 | 1.52 | 1.52 | 67 | 1010.2 |
| 20260903224019 | 30 | 232 | 0.0 | 0.0 | 0.00 | 1.52 | 1.52 | 67 | 1010.1 |
| 20260903223928 | 30 | 232 | 0.0 | 0.0 | 0.00 | 1.52 | 1.52 | 67 | 1010.2 |
| 20260903223826 | 30 | 232 | 0.0 | 0.0 | 0.00 | 1.52 | 1.52 | 66 | 1010.2 |
| 20260903223726 | 30 | 288 | 0.0 | 0.0 | 0.00 | 1.52 | 1.52 | 67 | 1010.0 |
| 20260903223624 | 30 | 280 | 0.0 | 0.0 | 0.00 | 1.52 | 1.52 | 67 | 1010.0 |
| 20260903223552 | 30 | 280 | 0.0 | 0.0 | 0.00 | 1.52 | 1.52 | 67 | 1009.9 |
| 20260903223534 | 30 | 280 | 0.0 | 0.0 | 0.00 | 1.52 | 1.52 | 67 | 1009.7 |
| 20260903223433 | 30 | 280 | 0.0 | 0.0 | 0.00 | 1.52 | 1.52 | 67 | 1009.8 |
| 20260903223234 | 30 | 280 | 0.0 | 0.0 | 0.00 | 1.52 | 1.52 | 66 | 1009.9 |
| 20260903223230 | 30 | 280 | 0.0 | 0.0 | 0.00 | 1.52 | 1.52 | 67 | 1009.9 |
| 20260903223034 | 30 | 280 | 0.0 | 0.0 | 0.00 | 1.52 | 1.52 | 67 | 1009.9 |
| 20260903223025 | 30 | 280 | 0.0 | 0.0 | 0.00 | 1.52 | 1.52 | 67 | 1009.9 |
| 20260903223019 | 30 | 280 | 0.0 | 0.0 | 0.00 | 1.52 | 1.52 | 67 | 1009.8 |
| 20260903222833 | 30 | 280 | 0.0 | 0.0 | 0.00 | 1.52 | 1.52 | 67 | 1009.9 |
| 20260903222828 | 30 | 280 | 0.0 | 0.0 | 0.00 | 1.52 | 1.52 | 67 | 1009.9 |
| 20260903222632 | 30 | 280 | 0.0 | 0.0 | 0.00 | 1.52 | 1.52 | 66 | 1009.8 |
| 20260903222627 | 30 | 280 | 0.0 | 0.0 | 0.00 | 1.52 | 1.52 | 67 | 1009.8 |
| 20260903222519 | 30 | 280 | 0.0 | 0.0 | 0.00 | 1.52 | 1.52 | 66 | 1009.8 |
| 20260903222417 | 30 | 280 | 0.0 | 0.0 | 0.00 | 1.52 | 1.52 | 66 | 1009.9 |
| 20260903222316 | 30 | 280 | 0.0 | 0.0 | 0.00 | 1.52 | 1.52 | 66 | 1010.0 |
| 20260903222216 | 30 | 280 | 0.0 | 0.0 | 0.00 | 1.52 | 1.52 | 66 | 1010.0 |
| 20260903222129 | 30 | 290 | 0.0 | 0.0 | 0.00 | 1.52 | 1.52 | 66 | 1010.0 |
| 20260903222124 | 30 | 280 | 0.0 | 0.0 | 0.00 | 1.52 | 1.52 | 66 | 1010.0 |
| 20260903222019 | 30 | 294 | 0.0 | 0.0 | 0.00 | 1.52 | 1.52 | 66 | 1009.9 |
| 20260903221914 | 30 | 294 | 0.0 | 0.0 | 0.00 | 1.52 | 1.52 | 66 | 1010.0 |
| 20260903221814 | 30 | 294 | 0.0 | 0.0 | 0.00 | 1.52 | 1.52 | 66 | 1010.0 |
| 20260903221714 | 30 | 294 | 0.0 | 0.0 | 0.00 | 1.52 | 1.52 | 66 | 1010.0 |
| 20260903221613 | 30 | 294 | 0.0 | 0.0 | 0.00 | 1.52 | 1.52 | 67 | 1010.0 |
| 20260903221534 | 30 | 294 | 0.0 | 0.0 | 0.00 | 1.52 | 1.52 | 66 | 1009.9 |
| 20260903221513 | 30 | 294 | 0.0 | 0.0 | 0.00 | 1.52 | 1.52 | 66 | 1010.0 |
| 20260903221413 | 30 | 294 | 0.0 | 0.0 | 0.00 | 1.52 | 1.52 | 66 | 1010.0 |
| 20260903221312 | 30 | 294 | 0.0 | 0.0 | 0.00 | 1.52 | 1.52 | 66 | 1010.0 |
| 20260903221211 | 30 | 294 | 0.0 | 0.0 | 0.00 | 1.52 | 1.52 | 66 | 1010.0 |
| 20260903221149 | 30 | 295 | 0.0 | 0.0 | 0.00 | 1.52 | 1.52 | 65 | 1010.1 |
| 20260903221145 | 30 | 295 | 0.0 | 0.0 | 0.00 | 1.52 | 1.52 | 66 | 1010.0 |
| 20260903221140 | 30 | 294 | 0.0 | 0.0 | 0.00 | 1.52 | 1.52 | 66 | 1010.0 |
| 20260903221019 | 30 | 295 | 0.0 | 0.0 | 0.00 | 1.52 | 1.52 | 66 | 1010.0 |
| 20260903220910 | 30 | 295 | 0.0 | 0.0 | 0.00 | 1.52 | 1.52 | 65 | 1010.1 |
| 20260903220824 | 30 | 260 | 0.0 | 0.0 | 0.00 | 1.52 | 1.52 | 66 | 1010.0 |
| 20260903220819 | 30 | 237 | 0.0 | 0.0 | 0.00 | 1.52 | 1.52 | 66 | 1010.1 |
| 20260903220647 | 30 | 259 | 0.0 | 0.0 | 0.00 | 1.52 | 1.52 | 66 | 1010.0 |
| 20260903220642 | 30 | 260 | 0.0 | 0.0 | 0.00 | 1.52 | 1.52 | 66 | 1010.0 |
| 20260903220637 | 30 | 260 | 0.0 | 0.0 | 0.00 | 1.52 | 1.52 | 66 | 1010.0 |
| 20260903220519 | 30 | 260 | 0.0 | 0.0 | 0.00 | 1.52 | 1.52 | 66 | 1009.9 |
| 20260903220408 | 30 | 260 | 0.0 | 0.0 | 0.00 | 1.52 | 1.52 | 66 | 1010.0 |
| 20260903220308 | 30 | 259 | 0.0 | 0.0 | 0.00 | 1.52 | 1.52 | 66 | 1010.0 |
| 20260903220207 | 30 | 259 | 0.0 | 0.0 | 0.00 | 1.52 | 1.52 | 66 | 1010.0 |
| 20260903220107 | 30 | 259 | 0.0 | 0.0 | 0.00 | 1.52 | 1.52 | 66 | 1009.9 |
| 20260903220019 | 30 | 259 | 0.0 | 0.0 | 0.00 | 1.52 | 1.52 | 66 | 1009.8 |
| 20260903220007 | 30 | 259 | 0.0 | 0.0 | 0.00 | 1.52 | 1.52 | 66 | 1009.9 |
| 20260903215919 | 30 | 259 | 0.0 | 0.0 | 0.00 | 1.52 | 1.52 | 66 | 1009.9 |
| 20260903215904 | 30 | 259 | 0.0 | 0.0 | 0.00 | 1.52 | 1.52 | 66 | 1009.8 |
| 20260903215804 | 30 | 259 | 0.0 | 0.0 | 0.00 | 1.52 | 1.52 | 66 | 1009.8 |
| 20260903215703 | 30 | 259 | 0.0 | 0.0 | 0.00 | 1.52 | 1.52 | 66 | 1009.7 |
| 20260903215614 | 30 | 259 | 0.0 | 0.0 | 0.00 | 1.52 | 1.52 | 65 | 1009.7 |
| 20260903215609 | 30 | 259 | 0.0 | 0.0 | 0.00 | 1.52 | 1.52 | 65 | 1009.7 |
| 20260903215519 | 30 | 259 | 0.0 | 0.0 | 0.00 | 1.52 | 1.52 | 65 | 1009.6 |
| 20260903215417 | 30 | 259 | 0.0 | 0.0 | 0.00 | 1.52 | 1.52 | 65 | 1009.7 |
| 20260903215359 | 30 | 259 | 0.0 | 0.0 | 0.00 | 1.52 | 1.52 | 65 | 1009.7 |
| 20260903215259 | 30 | 259 | 0.0 | 0.0 | 0.00 | 1.52 | 1.52 | 65 | 1009.6 |
| 20260903215159 | 30 | 259 | 0.0 | 0.0 | 0.00 | 1.52 | 1.52 | 65 | 1009.6 |
| 20260903215057 | 30 | 259 | 0.0 | 0.0 | 0.00 | 1.52 | 1.52 | 65 | 1009.7 |
| 20260903215019 | 30 | 259 | 0.0 | 0.0 | 0.00 | 1.52 | 1.52 | 65 | 1009.6 |
| 20260903215017 | 30 | 259 | 0.0 | 0.0 | 0.00 | 1.52 | 1.52 | 64 | 1009.7 |
| 20260903215012 | 30 | 259 | 0.0 | 0.0 | 0.00 | 1.52 | 1.52 | 65 | 1009.7 |
| 20260903215004 | 30 | 259 | 0.0 | 0.0 | 0.00 | 1.52 | 1.52 | 64 | 1009.7 |
| 20260903214757 | 30 | 259 | 0.0 | 0.0 | 0.00 | 1.52 | 1.52 | 65 | 1009.8 |
| 20260903214654 | 30 | 259 | 0.0 | 0.0 | 0.00 | 1.52 | 1.52 | 65 | 1009.8 |
| 20260903214643 | 31 | 259 | 0.0 | 0.0 | 0.00 | 1.52 | 1.52 | 65 | 1009.7 |
| 20260903214554 | 31 | 259 | 0.0 | 0.0 | 0.00 | 1.52 | 1.52 | 65 | 1009.8 |
| 20260903214524 | 31 | 259 | 0.0 | 0.0 | 0.00 | 1.52 | 1.52 | 65 | 1009.7 |
| 20260903214519 | 31 | 259 | 0.0 | 0.0 | 0.00 | 1.52 | 1.52 | 65 | 1009.6 |
| 20260903214354 | 31 | 259 | 0.0 | 0.0 | 0.00 | 1.52 | 1.52 | 65 | 1009.7 |
| 20260903214253 | 31 | 259 | 0.0 | 0.0 | 0.00 | 1.52 | 1.52 | 64 | 1009.7 |
| 20260903214152 | 31 | 259 | 0.0 | 0.0 | 0.00 | 1.52 | 1.52 | 64 | 1009.6 |
| 20260903214141 | 31 | 257 | 0.0 | 0.0 | 0.00 | 1.52 | 1.52 | 64 | 1009.7 |
| 20260903214052 | 31 | 259 | 0.0 | 0.0 | 0.00 | 1.52 | 1.52 | 64 | 1009.7 |
| 20260903214022 | 31 | 259 | 0.0 | 0.0 | 0.00 | 1.52 | 1.52 | 64 | 1009.7 |
| 20260903214019 | 31 | 259 | 0.0 | 0.0 | 0.00 | 1.52 | 1.52 | 64 | 1009.6 |
| 20260903213850 | 31 | 257 | 0.0 | 0.0 | 0.00 | 1.52 | 1.52 | 64 | 1009.7 |
| 20260903213750 | 31 | 257 | 0.0 | 0.0 | 0.00 | 1.52 | 1.52 | 64 | 1009.7 |
| 20260903213650 | 31 | 257 | 0.0 | 0.0 | 0.00 | 1.52 | 1.52 | 64 | 1009.6 |
| 20260903213549 | 31 | 257 | 0.0 | 0.0 | 0.00 | 1.52 | 1.52 | 63 | 1009.6 |
| 20260903213520 | 31 | 257 | 0.0 | 0.0 | 0.00 | 1.52 | 1.52 | 63 | 1009.4 |
| 20260903213449 | 31 | 257 | 0.0 | 0.0 | 0.00 | 1.52 | 1.52 | 65 | 1009.5 |
| 20260903213412 | 31 | 257 | 0.0 | 0.0 | 0.00 | 1.52 | 1.52 | 65 | 1009.5 |
| 20260903213400 | 31 | 257 | 0.0 | 1.6 | 0.00 | 1.52 | 1.52 | 63 | 1009.4 |
| 20260903213355 | 31 | 257 | 0.0 | 0.0 | 0.00 | 1.52 | 1.52 | 64 | 1009.5 |
| 20260903213146 | 31 | 257 | 0.0 | 3.2 | 0.00 | 1.52 | 1.52 | 63 | 1009.4 |
| 20260903213045 | 31 | 257 | 0.0 | 3.2 | 0.00 | 1.52 | 1.52 | 63 | 1009.3 |
| 20260903213034 | 31 | 257 | 0.0 | 3.2 | 0.00 | 1.52 | 1.52 | 63 | 1009.2 |
| 20260903212945 | 31 | 257 | 0.0 | 3.2 | 0.00 | 1.52 | 1.52 | 62 | 1009.3 |
| 20260903212912 | 31 | 257 | 0.0 | 3.2 | 0.00 | 1.52 | 1.52 | 62 | 1009.3 |
| 20260903212841 | 31 | 257 | 1.6 | 4.8 | 0.00 | 1.52 | 1.52 | 62 | 1009.3 |
| 20260903212742 | 31 | 257 | 1.6 | 9.7 | 0.00 | 1.52 | 1.52 | 62 | 1009.4 |
| 20260903212656 | 31 | 257 | 1.6 | 9.7 | 0.00 | 1.52 | 1.52 | 62 | 1009.4 |
| 20260903212650 | 31 | 257 | 1.6 | 9.7 | 0.00 | 1.52 | 1.52 | 62 | 1009.4 |
| 20260903212519 | 31 | 257 | 0.0 | 9.7 | 0.00 | 1.52 | 1.52 | 63 | 1009.4 |
| 20260903212511 | 31 | 257 | 1.6 | 9.7 | 0.00 | 1.52 | 1.52 | 62 | 1009.5 |
| 20260903212505 | 31 | 257 | 1.6 | 9.7 | 0.00 | 1.52 | 1.52 | 63 | 1009.5 |
| 20260903212457 | 31 | 257 | 1.6 | 9.7 | 0.00 | 1.52 | 1.52 | 63 | 1009.5 |
| 20260903212451 | 31 | 257 | 1.6 | 9.7 | 0.00 | 1.52 | 1.52 | 63 | 1009.5 |